[[{"header":{"parameterUnit":"m.s-1","parameterCategory":1,"la1":30.6,"la2":29.2853,"lo1":-89.7004,"lo2":-87.6739,"dy":0.0162,"dx":0.0183,"nx":112,"ny":82,"refTime":"2024-10-09T12:00:00:Z","depth":0,"parameterNumber":2,"parameterNumberName":"U-component_of_WINDS"},"data":[0.0,0.0,0.0,0.0,0.0,0.0,0.0,0.0,0.0,0.0,0.0,0.0,0.0,0.0,0.0,0.0,0.0,0.0,0.0,0.0,0.0,0.0,0.0,0.0,0.0,0.0,0.0,0.0,0.0,0.0,0.0,0.0,0.0,0.0,0.0,0.0,0.0,0.0,0.0,0.0,0.0,0.0,0.0,0.0,0.0,0.0,0.0,0.0,0.0,0.0,0.0,0.0,0.0,0.0,0.0,0.0,0.0,0.0,0.0,0.0,0.0,0.0,0.0,0.0,0.0,0.0,0.0,0.0,0.0,0.0,0.0,0.0,0.0,0.0,0.0,0.0,0.0,0.0,0.0,0.0,0.0,0.0,0.0,0.0,0.0,0.0,0.0,0.0,0.0,0.0,1.0925,1.1781,1.312,1.3991,1.411,1.2894,1.2121,1.2123,0.0,0.0,0.0,0.0,0.0,0.0,0.0,0.0,0.0,0.0,0.0,0.0,0.0,0.0,0.0,0.0,0.0,0.0,0.0,0.0,0.0,0.0,0.0,0.0,0.0,0.0,0.0,0.0,0.0,0.0,0.0,0.0,0.0,0.0,0.0,0.0,0.0,0.0,0.0,0.0,0.0,0.0,0.0,0.0,0.0,0.0,0.0,0.0,0.0,0.0,0.0,0.0,0.0,0.0,0.0,0.0,0.0,0.0,0.0,0.0,0.0,0.0,0.0,0.0,0.0,0.0,0.0,0.0,0.0,0.0,0.0,0.0,0.0,0.0,0.0,0.0,0.0,0.0,0.0,0.0,0.0,0.0,0.0,0.0,0.0,0.0,0.0,0.0,0.0,0.0,0.0,0.0,0.0,0.0,0.0,0.0,0.0,0.0,0.0,0.0,0.0,0.0,0.0,0.0,1.1962,1.3384,1.387,1.4091,1.4175,1.3516,1.2844,1.2294,0.0,0.0,0.0,0.0,0.0,0.0,0.0,0.0,0.0,0.0,0.0,0.0,0.0,0.0,0.0,0.0,0.0,0.0,0.0,0.0,0.0,0.0,0.0,0.0,0.0,0.0,0.0,0.0,0.0,0.0,0.0,0.0,0.0,0.0,0.0,0.0,0.0,0.0,0.0,0.0,0.0,0.0,0.0,0.0,0.0,0.0,0.0,0.0,0.0,0.0,0.0,0.0,0.0,0.0,0.0,0.0,0.0,0.0,0.0,0.0,0.0,0.0,0.0,0.0,0.0,0.0,0.0,0.0,0.0,0.0,0.0,0.0,0.0,0.0,0.0,0.0,0.0,0.0,0.0,0.0,0.0,0.0,0.0,0.0,0.0,0.0,0.0,0.0,0.0,0.0,0.0,0.0,0.0,0.0,0.0,0.0,0.0,0.0,0.0,0.0,0.0,0.0,0.0,1.1272,1.2305,1.3886,1.4145,1.4242,1.4289,1.3713,1.3058,1.2394,1.0093,0.0,0.0,0.0,0.0,0.0,0.0,0.0,0.0,0.0,0.0,0.0,0.0,0.0,0.0,0.0,0.0,0.0,0.0,0.0,0.0,0.0,0.0,0.0,0.0,0.0,0.0,0.0,0.0,0.0,0.0,0.0,0.0,0.0,0.0,0.0,0.0,0.0,0.0,0.0,0.0,0.0,0.0,0.0,0.0,0.0,0.0,0.0,0.0,0.0,0.0,0.0,0.0,0.0,0.0,0.0,0.0,0.0,0.0,0.0,0.0,0.0,0.0,0.0,0.0,0.0,0.0,0.0,0.0,0.0,0.0,0.0,0.0,0.0,0.0,0.0,0.0,0.0,0.0,0.0,0.0,0.0,0.0,0.0,0.0,0.0,0.0,0.0,0.0,0.0,0.0,0.0,0.0,0.0,0.0,0.0,0.0,0.0,0.0,0.0,0.0,0.0,0.0,1.1801,1.2423,1.4036,1.4268,1.4356,1.4416,1.3805,1.3122,1.2444,1.0136,0.0,0.0,0.0,0.0,0.0,0.0,0.0,0.0,0.0,0.0,0.0,0.0,0.0,0.0,0.0,0.0,0.0,0.0,0.0,0.0,0.0,0.0,0.0,0.0,0.0,0.0,0.0,0.0,0.0,0.0,0.0,0.0,0.0,0.0,0.0,0.0,0.0,0.0,0.0,0.0,0.0,0.0,0.0,0.0,0.0,0.0,0.0,0.0,0.0,0.0,0.0,0.0,0.0,0.0,0.0,0.0,0.0,0.0,0.0,0.0,0.0,0.0,0.0,0.0,0.0,0.0,0.0,0.0,0.0,0.0,0.0,0.0,0.0,0.0,0.0,0.0,0.0,0.0,0.0,0.0,0.0,0.0,0.0,0.0,0.0,0.0,0.0,0.0,0.0,0.0,0.0,0.0,0.0,0.0,0.0,0.0,0.0,0.0,0.0,0.0,0.0,0.0,1.1794,1.2423,1.4036,1.433,1.4417,1.4476,1.3874,1.3182,1.2456,1.0125,0.0,0.0,0.0,0.0,0.0,0.0,0.0,0.0,0.0,0.0,0.0,0.0,0.0,0.0,0.0,0.0,0.0,0.0,0.0,0.0,0.0,0.0,0.0,0.0,0.0,0.0,0.0,0.0,0.0,0.0,0.0,0.0,0.0,0.0,0.0,0.0,0.0,0.0,0.0,0.0,0.0,0.0,0.0,0.0,0.0,0.0,0.0,0.0,0.0,0.0,0.0,0.0,0.0,0.0,0.0,0.0,0.0,0.0,0.0,0.0,0.0,0.0,0.0,0.0,0.0,0.0,0.0,0.0,0.0,0.0,0.0,0.0,0.0,0.0,0.0,0.0,0.0,0.0,0.0,0.0,0.0,0.0,0.0,0.0,0.0,0.0,0.0,0.0,0.0,0.0,0.0,0.0,0.0,0.0,0.0,0.0,0.0,0.0,0.0,0.0,0.0,0.0,1.1918,1.2535,1.4162,1.4423,1.4506,1.4618,1.3961,1.3258,1.2503,0.0,0.0,0.0,0.0,0.0,0.0,0.0,0.0,0.0,0.0,0.0,0.0,0.0,0.0,0.0,0.0,0.0,0.0,0.0,0.0,0.0,0.0,0.0,0.0,0.0,0.0,0.0,0.0,0.0,0.0,0.0,0.0,0.0,0.0,0.0,0.0,0.0,0.0,0.0,0.0,0.0,0.0,0.0,0.0,0.0,0.0,0.0,0.0,0.0,0.0,0.0,0.0,0.0,0.0,0.0,0.0,0.0,0.0,0.0,0.0,0.0,0.0,0.0,0.0,0.0,0.0,0.0,0.0,0.0,0.0,0.0,0.0,0.0,0.0,0.0,0.0,0.0,0.0,0.0,0.0,0.0,0.0,0.0,0.0,0.0,0.0,0.0,0.0,0.0,0.0,0.0,0.0,0.0,0.0,0.0,0.0,0.0,0.0,0.0,0.0,0.0,0.0,1.18,1.2038,1.2641,1.4263,1.4481,1.4578,1.4685,1.3793,1.3014,1.2559,0.0,0.0,0.0,0.0,0.0,0.0,0.0,0.0,0.0,0.0,0.0,0.0,0.0,0.0,0.0,0.0,0.0,0.0,0.0,0.0,0.0,0.0,0.0,0.0,0.0,0.0,0.0,0.0,0.0,0.0,0.0,0.0,0.0,0.0,0.0,0.0,0.0,0.0,0.0,0.0,0.0,0.0,0.0,0.0,0.0,0.0,0.0,0.0,0.0,0.0,0.0,0.0,0.0,0.0,0.0,0.0,0.0,0.0,0.0,0.0,0.0,0.0,0.0,0.0,0.0,0.0,0.0,0.0,0.0,0.0,0.0,0.0,0.0,0.0,0.0,0.0,0.0,0.0,0.0,0.0,0.0,0.0,0.0,0.0,0.0,0.0,0.0,0.0,0.0,0.0,0.0,0.0,0.0,0.0,0.0,0.0,0.0,0.0,0.0,0.0,0.0,0.0,1.1783,1.2096,1.2704,1.4316,1.456,1.4624,1.469,1.3292,1.2456,0.0,0.0,0.0,0.0,0.0,0.0,0.0,0.0,0.0,0.0,0.0,0.0,0.0,0.0,0.0,0.0,0.0,0.0,0.0,0.0,0.0,0.0,0.0,0.0,0.0,0.0,0.0,0.0,0.0,0.0,0.0,0.0,0.0,0.0,0.0,0.0,0.0,0.0,0.0,0.0,0.0,0.0,0.0,0.0,0.0,0.0,0.0,0.0,0.0,0.0,0.0,0.0,0.0,0.0,0.0,0.0,0.0,0.0,0.0,0.0,0.0,0.0,0.0,0.0,0.0,0.0,0.0,0.0,0.0,0.0,0.0,0.0,0.0,0.0,0.0,0.0,0.0,0.0,0.0,0.0,0.0,0.0,0.0,0.0,0.0,0.0,0.0,0.0,0.0,0.0,0.0,0.0,0.0,0.0,0.0,0.0,0.0,0.0,0.0,0.0,0.0,0.0,0.0,1.1086,1.1808,1.2576,1.3614,1.4284,1.4727,1.4832,1.338,1.2516,1.2593,0.0,0.0,0.0,0.0,0.0,0.0,0.0,0.0,0.0,0.0,0.0,0.0,0.0,0.0,0.0,0.0,0.0,0.0,0.0,0.0,0.0,0.0,0.0,0.0,0.0,0.0,0.0,0.0,0.0,0.0,0.0,0.0,0.0,0.0,0.0,0.0,0.0,0.0,0.0,0.0,0.0,0.0,0.0,0.0,0.0,0.0,0.0,0.0,0.0,0.0,0.0,0.0,0.0,0.0,0.0,0.0,0.0,0.0,0.0,0.0,0.0,0.0,0.0,0.0,0.0,0.0,0.0,0.0,0.0,0.0,0.0,0.0,0.0,0.0,0.0,0.0,0.0,0.0,0.0,0.0,0.0,0.0,0.0,0.0,0.0,0.0,0.0,0.0,0.0,0.0,0.0,0.0,0.0,0.0,0.0,0.0,0.0,0.0,0.0,0.0,0.0,0.0,1.0822,1.1735,1.2555,1.3393,1.4232,1.4785,1.4931,1.3439,1.2538,1.2623,0.0,0.0,0.0,0.0,0.0,0.0,0.0,0.0,0.0,0.0,0.0,0.0,0.0,0.0,0.0,0.0,0.0,0.0,0.0,0.0,0.0,0.0,0.0,0.0,0.0,0.0,0.0,0.0,0.0,0.0,0.0,0.0,0.0,0.0,0.0,0.0,0.0,0.0,0.0,0.0,0.0,0.0,0.0,0.0,0.0,0.0,0.0,0.0,0.0,0.0,0.0,0.0,0.0,0.0,0.0,0.0,0.0,0.0,0.0,0.0,0.0,0.0,0.0,0.0,0.0,0.0,0.0,0.0,0.0,0.0,0.0,0.0,0.0,0.0,0.0,0.0,0.0,0.0,0.0,0.0,0.0,0.0,0.0,0.0,0.0,0.0,0.0,0.0,0.0,0.0,0.0,0.0,0.0,0.0,0.0,0.0,0.0,0.0,0.0,0.0,0.0,0.0,1.0887,1.1809,1.2641,1.3511,1.4335,1.4859,1.4979,1.3468,1.2566,1.268,0.0,0.0,0.0,0.0,0.0,0.0,0.0,0.0,0.0,0.0,0.0,0.0,0.0,0.0,0.0,0.0,0.0,0.0,0.0,0.0,0.0,0.0,0.0,0.0,0.0,0.0,0.0,0.0,0.0,0.0,0.0,0.0,0.0,0.0,0.0,0.0,0.0,0.0,0.0,0.0,0.0,0.0,0.0,0.0,0.0,0.0,0.0,0.0,0.0,0.0,0.0,0.0,0.0,0.0,0.0,0.0,0.0,0.0,0.0,0.0,0.9431,0.9406,0.0,0.0,0.0,0.0,0.0,0.0,0.0,0.0,0.0,0.0,0.0,0.0,0.0,0.0,0.0,0.0,0.0,0.0,0.0,0.0,0.0,0.0,0.0,0.0,0.0,0.0,0.0,0.0,0.0,0.0,0.0,0.0,0.0,0.0,0.0,0.0,0.0,0.0,0.0,0.0,1.0884,1.1854,1.27,1.3516,1.4378,1.4909,1.4985,1.3519,1.2608,1.2684,1.0357,0.0,0.0,0.0,0.0,0.0,0.0,0.0,0.0,0.0,0.0,0.0,0.0,0.0,0.0,0.0,0.0,0.0,0.0,0.0,0.0,0.0,0.0,0.0,0.0,0.0,0.0,0.0,0.0,0.0,0.0,0.0,0.0,0.0,0.0,0.0,0.0,0.0,0.0,0.0,0.0,0.0,0.0,0.0,0.0,0.0,0.0,0.0,0.0,0.0,0.0,0.0,0.0,0.0,0.0,0.0,0.0,0.0,0.0,0.0,1.0827,1.025,0.0,0.0,0.0,0.0,0.0,0.0,0.0,0.0,0.0,0.0,0.0,0.0,0.0,0.0,0.0,0.0,0.0,0.0,0.0,0.0,0.0,0.0,0.0,0.0,0.0,0.0,0.0,0.0,0.0,0.0,0.0,0.0,0.0,0.0,0.0,0.0,0.0,0.0,0.0,0.0,1.0997,1.2192,1.314,1.3562,1.4411,1.4968,1.5033,1.3919,1.3065,1.2715,1.1125,0.0,0.0,0.0,0.0,0.0,0.0,0.0,0.0,0.0,0.0,0.0,0.0,0.0,0.0,0.0,0.0,0.0,0.0,0.0,0.0,0.0,0.0,0.0,0.0,0.0,0.0,0.0,0.0,0.0,0.0,0.0,0.0,0.0,0.0,0.0,0.0,0.0,0.0,0.0,0.0,0.0,0.0,0.0,0.0,0.0,0.0,0.0,0.0,0.0,0.0,0.0,0.0,0.0,1.2035,1.257,1.3547,1.3638,1.3804,1.3947,1.2483,1.1489,1.0934,1.0908,0.0,0.0,0.0,0.0,0.0,0.0,0.0,0.0,0.0,0.0,0.0,0.0,0.0,0.0,0.0,0.0,0.0,0.0,0.0,0.0,0.0,0.0,1.4028,1.5361,1.518,1.4386,1.3227,0.0,0.0,0.0,0.0,0.0,0.0,0.0,0.0,0.0,0.0,0.0,1.1516,1.2729,1.3658,1.3815,1.4522,1.5038,1.5099,1.4351,1.3624,1.297,1.216,1.1036,0.0,0.0,0.0,0.0,0.0,0.0,0.0,0.0,0.0,0.0,0.0,0.0,0.0,0.0,0.0,0.0,0.0,0.0,0.0,0.0,0.0,0.0,0.0,0.0,0.0,0.0,0.0,0.0,0.0,0.0,0.0,0.0,0.5173,0.5993,0.0,0.0,0.0,0.0,0.0,0.0,0.0,0.0,0.0,0.0,0.0,0.0,0.0,0.9805,1.0454,1.105,1.1739,1.2503,1.2628,1.2805,1.3012,1.3649,1.4018,1.42,1.4654,0.0,1.3063,1.2595,0.0,0.0,0.0,0.0,0.0,0.0,0.0,0.0,0.0,0.0,0.0,0.0,0.0,0.0,0.0,0.0,0.0,0.0,0.0,0.0,0.0,0.0,1.6112,1.6396,1.6378,1.6265,1.6117,1.4562,1.3158,1.3114,1.1921,1.0923,0.0,0.0,0.0,0.0,0.0,0.0,1.3091,1.3468,1.389,1.465,1.489,1.5027,1.5101,1.4368,1.3879,1.3838,1.3078,1.2185,1.1217,1.0509,0.0,0.0,0.0,0.0,0.0,0.0,0.0,0.0,0.0,0.0,0.0,0.0,0.0,0.0,0.0,0.0,0.0,0.0,0.0,0.0,0.0,0.0,0.0,0.0,0.0,0.0,0.0,0.0,0.0,0.4733,0.536,0.5853,0.5763,0.5687,0.0,0.0,0.0,0.0,0.0,0.0,0.0,0.0,0.0,0.9358,1.0135,1.086,1.1539,1.197,1.271,1.3658,1.3765,1.3998,1.4361,1.4699,1.4931,1.5134,1.5545,1.5348,1.4683,1.4205,1.3789,1.3415,0.0,0.0,0.0,0.0,1.3944,1.4658,1.4912,1.5151,1.5304,1.514,0.0,0.0,0.0,0.0,0.0,0.0,0.0,1.5622,1.6848,1.779,1.8539,1.9002,1.8807,1.8538,1.8607,1.7149,1.5488,1.4294,1.3561,1.2863,1.2019,1.1563,0.0,0.0,0.0,1.2801,1.3518,1.3997,1.4419,1.4794,1.4938,1.5034,1.5088,1.4816,1.4454,1.4035,1.37,1.3136,1.2267,1.1463,1.0614,0.0,0.0,0.0,0.0,0.0,0.0,0.0,0.0,0.0,0.0,0.0,0.0,0.0,0.0,0.0,0.0,0.0,0.0,0.0,0.0,0.0,0.0,0.0,0.0,0.0,0.0,0.0,0.0,0.5391,0.5718,0.5992,0.6008,0.6026,0.0,0.0,0.0,0.0,0.0,0.0,0.9031,0.9387,0.9846,1.0409,1.1012,1.1627,1.2315,1.2601,1.3278,1.4303,1.4424,1.4662,1.5142,1.5187,1.5311,1.5522,1.5712,1.5801,1.5695,1.5372,1.5055,1.4768,1.4716,1.4925,1.5248,1.5281,1.5572,1.6009,1.6293,1.66,1.6834,1.657,1.6588,1.6479,1.5458,0.0,0.0,0.0,0.0,1.7434,1.8812,1.9666,2.0347,2.0954,2.0675,2.0307,2.0366,1.9345,1.7835,1.587,1.5218,1.4568,1.323,1.2823,0.0,1.2684,1.3182,1.3642,1.3877,1.4429,1.4794,1.4794,1.5091,1.5228,1.5099,1.5349,1.5164,1.438,1.4397,1.4048,1.3177,1.2569,1.1721,1.0656,0.0,0.0,0.0,0.0,0.0,0.0,0.0,0.0,0.0,0.0,0.0,0.0,0.0,0.0,0.0,0.0,0.0,0.0,0.0,0.0,0.0,0.0,0.0,0.0,0.0,0.0,0.0,0.0,0.0,0.6909,0.6877,0.0,0.0,0.0,0.0,0.8366,0.8728,0.9171,0.9799,1.0143,1.046,1.0777,1.1312,1.192,1.2664,1.2955,1.3342,1.3826,1.3993,1.405,1.4071,1.4326,1.4593,1.4801,1.5175,1.5511,1.5792,1.5897,1.5776,1.5491,1.5043,1.5446,1.6186,1.5756,1.6146,1.6997,1.7316,1.7595,1.7913,1.8267,1.8259,1.8077,1.7586,1.7591,0.0,0.0,1.9204,1.9559,2.0464,2.0819,2.098,2.1096,2.1067,2.1054,2.1131,2.0584,1.9649,1.821,1.6743,1.5503,1.4716,0.0,1.343,1.343,1.3486,1.3794,1.4634,1.4765,1.4794,1.4794,1.5555,1.5797,1.5143,1.585,1.6019,1.5278,1.5294,1.4943,1.4062,1.3995,1.3192,1.1571,1.0675,0.0,0.0,0.0,0.0,0.0,0.0,0.0,0.0,0.0,0.0,0.0,0.0,0.0,0.0,0.0,0.0,0.0,0.0,0.0,0.0,0.0,0.0,0.0,0.0,0.0,0.0,0.0,0.0,0.7243,0.7292,0.0,0.7853,0.7992,0.8378,0.9098,0.9264,0.9591,1.0202,1.0553,1.0767,1.094,1.1565,1.2082,1.2368,1.2635,1.2952,1.3266,1.3351,1.3447,1.36,1.3705,1.3941,1.428,1.449,1.4812,1.5242,1.5345,1.5758,1.6316,1.6283,1.6573,1.7022,1.6962,1.7322,1.7843,1.82,1.8548,1.8877,1.8992,1.8882,1.8707,1.869,1.8943,1.9331,1.9818,2.0407,2.0999,2.1394,2.1943,2.2365,2.2452,2.2118,2.1832,2.1893,2.1388,2.0806,2.0421,1.8717,1.7108,1.6365,1.6038,1.5884,1.5884,1.5892,1.5993,1.6302,1.634,1.6351,1.6335,1.6693,1.6857,1.6666,1.6481,1.6316,1.6145,1.5672,1.5268,1.4943,1.4392,1.3565,1.2382,1.1551,1.0428,0.0,0.0,0.0,0.0,0.0,0.0,0.0,0.0,0.0,0.0,0.0,0.0,0.0,0.0,0.0,0.0,0.0,0.0,0.0,0.0,0.0,0.0,0.0,0.0,0.0,0.6686,0.7114,0.7704,0.7859,0.8093,0.8435,0.8594,0.8952,0.9575,0.9689,0.9947,1.0561,1.0771,1.0957,1.1037,1.1536,1.1868,1.1968,1.2197,1.2384,1.2589,1.2589,1.2686,1.289,1.2987,1.3228,1.361,1.3847,1.4165,1.4593,1.4834,1.5412,1.6139,1.6565,1.696,1.7267,1.7474,1.7747,1.8123,1.863,1.9064,1.9413,1.9546,1.9546,1.951,1.9855,2.0228,2.0585,2.0849,2.143,2.2038,2.2146,2.2635,2.3119,2.3168,2.2859,2.2584,2.2665,2.2132,2.17,2.1897,2.0325,1.8757,1.8022,1.7733,1.7491,1.7212,1.7162,1.7181,1.7181,1.7193,1.7205,1.7209,1.7554,1.7718,1.7517,1.708,1.6747,1.658,1.5839,1.5401,1.5393,1.4844,1.413,1.3256,1.216,1.0898,0.9426,0.0,0.0,0.0,0.0,0.0,0.0,0.0,0.0,0.0,0.0,0.0,0.0,0.0,0.0,0.0,0.0,0.0,0.0,0.0,0.0,0.0,0.0,0.0,0.636,0.7318,0.807,0.8305,0.8586,0.8825,0.884,0.9066,0.9385,0.9866,0.9987,1.0336,1.0854,1.0871,1.0922,1.1074,1.1226,1.1318,1.1477,1.1628,1.1678,1.1678,1.1678,1.1728,1.1877,1.2175,1.2461,1.2812,1.317,1.3621,1.402,1.4395,1.4697,1.4949,1.5824,1.6491,1.7002,1.7115,1.7419,1.7788,1.8528,1.9064,1.9487,1.994,2.0292,2.0663,2.1071,2.1481,2.1811,2.2039,2.2326,2.2605,2.2685,2.2893,2.3095,2.3077,2.3193,2.3313,2.3378,2.2843,2.24,2.2612,2.1516,2.0358,1.9686,1.8916,1.8146,1.7374,1.7226,0.0,1.7226,1.7244,1.7279,1.7284,1.8099,1.834,1.7641,1.7592,1.7298,1.6598,1.5812,1.5401,1.5393,1.5365,1.4946,1.4079,1.2477,1.1228,1.0388,0.0,0.0,0.0,0.0,0.0,0.0,0.0,0.0,0.0,0.0,0.0,0.0,0.0,0.0,0.0,0.0,0.0,0.0,0.0,0.0,0.0,0.5651,0.6352,0.6978,0.7573,0.8134,0.8666,0.8803,0.8947,0.9235,0.9307,0.9394,0.9526,0.9753,0.9951,1.0095,1.0205,1.0257,1.0308,1.0462,1.0565,1.0624,1.0769,1.0922,1.1124,1.1124,1.1267,1.1619,1.1678,1.1918,1.2314,1.251,1.2842,1.3314,1.361,1.4035,1.4605,1.5457,1.5988,1.6293,1.6607,1.7102,1.7774,1.8214,1.8721,1.925,1.969,1.9995,2.0308,2.0761,2.1119,2.145,2.1781,2.2056,2.2281,2.2579,2.2712,2.2842,2.2944,2.307,2.3168,2.3193,2.3177,2.3218,2.3376,2.2691,2.1899,2.135,2.1047,2.0856,2.0678,2.0158,1.9783,1.9773,1.9285,1.897,1.9014,1.9294,1.9424,1.9314,1.8247,1.7545,1.7445,1.6109,1.5359,1.5393,1.4781,1.4052,1.3164,1.275,1.2402,0.0,0.0,0.0,0.0,0.0,0.0,0.0,0.0,0.0,0.0,0.0,0.0,0.0,0.0,0.0,0.0,0.0,0.0,0.0,0.0,0.0,0.0,0.5658,0.6367,0.697,0.759,0.8208,0.8781,0.8843,0.8906,0.8981,0.9047,0.9047,0.8995,0.9271,0.948,0.9532,0.9792,0.9895,0.9895,1.0058,1.0162,1.0162,1.0257,1.036,1.0514,1.0514,1.0667,1.1023,1.1074,1.1326,1.1669,1.1877,1.2215,1.2638,1.2919,1.3351,1.3931,0.0,0.0,0.0,0.0,1.6808,1.7434,1.7855,1.8319,1.886,1.931,1.969,1.9995,2.0429,2.0794,2.1103,2.1433,2.1751,2.2027,2.2271,2.2508,2.2685,2.279,2.2944,2.307,2.3077,2.3241,2.343,2.3634,2.3364,0.0,2.2868,2.231,2.1914,2.1996,2.1606,2.1176,2.0848,2.0415,2.0028,1.9719,1.9794,1.9877,1.9947,1.8515,0.0,0.0,0.0,1.5336,1.5402,1.4907,0.0,0.0,0.0,0.0,0.0,0.0,0.0,0.0,1.0526,1.0833,0.0,0.0,0.0,0.0,0.0,0.0,0.0,0.0,0.0,0.0,0.0,0.0,0.0,0.0,0.0,0.0,0.5533,0.6062,0.6586,0.7377,0.8082,0.8613,0.8699,0.8586,0.8368,0.8421,0.8415,0.8315,0.8692,0.8956,0.9106,0.948,0.0,0.0,0.0,0.9947,0.9947,0.9947,0.9947,0.9999,0.9999,1.0058,1.0265,1.0368,1.0667,1.1023,1.1276,1.1628,1.2026,1.2335,1.2716,1.3112,1.4236,1.4994,1.5501,1.602,1.6454,1.6905,1.7434,0.0,0.0,1.886,1.9325,1.9711,2.0035,2.0429,2.0794,2.1071,2.1433,2.1781,2.194,2.2271,2.2579,2.2659,2.2842,2.2995,2.3052,2.3144,2.3247,2.3504,2.3634,2.3765,2.4034,2.3015,2.2194,2.2259,2.22,2.1897,2.1183,2.0984,2.0648,1.992,1.9875,0.0,1.9907,1.8564,1.7769,1.7823,1.6329,1.5394,1.5253,1.5344,1.5352,1.5257,1.4681,1.4393,1.4394,1.3729,1.3782,1.4529,1.3537,1.3143,0.0,0.0,0.0,0.0,0.0,0.0,0.0,0.0,0.0,0.0,0.0,0.0,0.0,0.0,0.0,0.5222,0.5553,0.5878,0.6231,0.6528,0.7079,0.7978,0.809,0.7984,0.783,0.7783,0.7676,0.7676,0.8109,0.8427,0.8527,0.8949,0.9218,0.9316,0.9472,0.9569,0.9666,0.9666,0.9732,0.9851,0.9851,0.0,1.0051,1.0102,1.0205,1.047,1.0624,1.0922,1.1326,1.1719,1.2393,1.3256,1.3978,1.4582,1.5051,1.5501,1.5976,1.6497,1.6951,1.7462,1.7988,1.85,1.8936,1.931,1.9752,2.007,0.0,2.0761,2.1119,2.1495,2.184,2.213,2.2415,2.2579,2.2738,2.2868,2.2902,2.3028,2.3168,2.3336,2.3499,2.366,2.3834,2.3801,2.3805,2.3913,2.3423,2.3005,2.2906,2.1774,2.0931,2.0834,2.0276,1.9919,1.9982,1.9106,1.8599,1.8651,1.7214,1.5741,1.4409,1.503,1.5079,1.4378,1.5574,1.6205,1.621,1.6738,1.707,1.7206,1.5623,1.5273,0.0,0.0,0.0,0.0,0.0,0.0,0.0,0.0,0.0,0.0,0.0,0.3781,0.3774,0.0,0.4623,0.4792,0.5157,0.5462,0.5714,0.6,0.649,0.7295,0.7402,0.7348,0.73,0.7252,0.7198,0.7198,0.7467,0.7729,0.783,0.8256,0.8573,0.8791,0.9054,0.9309,0.951,0.9562,0.9621,0.9681,0.9681,0.9732,0.9777,0.9777,0.9888,1.0058,1.011,1.0368,1.0777,1.1368,1.2107,1.289,1.342,1.4035,1.4686,1.5051,1.5579,1.6139,1.6655,1.7186,1.7693,1.8161,1.8461,1.8769,1.9295,1.9624,1.9929,2.0342,2.0745,2.1151,2.1509,2.184,2.2175,2.2432,2.2632,2.279,2.2893,2.2995,2.3095,2.3217,2.336,2.3504,2.3664,2.3876,2.4077,2.4321,2.4094,2.3787,2.3444,2.272,2.1966,2.1179,2.0759,2.0391,1.9979,1.9239,1.8654,1.8323,1.7614,1.6848,1.6035,1.6444,1.6495,1.6054,1.6917,1.7351,1.7356,1.7788,1.8218,1.863,1.7754,1.734,0.0,0.0,0.0,0.0,0.0,0.0,0.0,0.0,0.2867,0.3083,0.3351,0.3585,0.3537,0.3846,0.4124,0.4227,0.4599,0.4959,0.5132,0.5513,0.6,0.6549,0.6657,0.6717,0.6717,0.6717,0.6717,0.6717,0.6874,0.7025,0.7182,0.7551,0.7931,0.8262,0.8639,0.9001,0.9309,0.9458,0.951,0.9562,0.9562,0.9614,0.9614,0.9614,0.9673,0.974,0.9799,1.0007,1.0368,1.1124,1.1828,1.248,1.2822,1.3478,1.428,1.4686,1.5175,1.5744,1.6411,1.6905,1.735,1.776,1.8068,1.8344,1.8822,1.9199,1.9515,1.9925,2.0376,2.0827,2.1183,2.154,2.1928,2.2276,2.2525,2.2712,2.2868,2.2944,2.302,2.3151,2.3241,2.3336,2.3544,2.3664,2.3858,2.421,2.4375,2.4258,2.3691,2.3524,2.2966,2.1712,2.1312,2.0833,1.9976,1.9372,1.8729,1.7972,1.8003,1.8009,1.7909,1.7952,1.8008,1.8005,1.8164,1.8244,1.8248,1.8425,1.8874,1.9558,1.9732,1.9349,0.0495,0.0837,0.1193,0.145,0.1435,0.152,0.0,0.0,0.2324,0.2665,0.297,0.3146,0.2987,0.3353,0.366,0.366,0.3953,0.4242,0.4519,0.4846,0.512,0.5462,0.5841,0.6114,0.6114,0.6009,0.5955,0.6109,0.6327,0.6544,0.6756,0.7128,0.7503,0.7777,0.8109,0.8474,0.8883,0.9099,0.9316,0.9413,0.9562,0.9614,0.9614,0.9614,0.9614,0.9621,0.974,1.0007,1.0316,1.0922,1.1528,1.2175,1.2578,1.3152,1.3763,1.4384,1.4834,1.5277,1.6051,1.6595,1.7002,1.7447,1.7747,1.8108,1.8461,1.8884,1.9317,1.9717,2.012,2.0579,2.1071,2.137,2.1675,2.2203,2.2415,2.2579,2.2842,2.2919,2.2944,2.3095,2.3168,2.3265,2.3407,2.3526,2.3747,2.4074,2.4247,2.4338,2.4369,2.3752,2.3294,2.3247,2.191,2.0728,1.9964,1.9933,1.9602,1.8811,1.8885,1.8642,1.7929,1.7965,1.8008,1.8005,1.8767,1.9142,1.9166,1.9929,2.0359,2.0476,2.1257,2.1139,-0.0355,0.0081,0.0426,0.0607,0.0723,0.0904,0.1357,0.1625,0.1898,0.2128,0.2385,0.2518,0.2518,0.2658,0.285,0.0,0.3294,0.363,0.4018,0.4405,0.4791,0.5014,0.5289,0.5567,0.5845,0.5845,0.585,0.59,0.6009,0.6059,0.6168,0.6431,0.6763,0.7289,0.7566,0.8017,0.867,0.8844,0.9038,0.92,0.9341,0.9413,0.9465,0.9562,0.9614,0.9614,0.9673,0.9836,1.0154,1.0565,1.1175,1.1778,1.2274,1.2803,1.3314,1.401,1.4616,1.5198,1.5788,1.6337,1.6846,1.7199,1.7488,1.7747,1.8175,1.8553,1.8921,1.9479,1.9889,2.0289,2.0811,2.1151,2.1464,2.1957,2.2158,2.2354,2.2659,2.2764,2.2816,2.297,2.3045,2.3144,2.3313,2.343,2.3567,2.3828,2.4054,2.4228,2.4375,2.4112,2.3822,2.3525,2.2077,2.101,2.0732,2.0304,1.9936,1.9682,1.9757,1.967,1.9372,1.941,1.9442,1.9446,1.9819,2.0018,2.0066,2.0925,2.1354,2.1374,2.2213,2.2408,-0.1123,-0.0825,-0.0641,-0.0515,-0.0295,-0.0,0.0429,0.0863,0.1195,0.1393,0.1624,0.1793,0.1905,0.1961,0.2015,0.2237,0.2571,0.2963,0.3408,0.3962,0.4405,0.4736,0.4959,0.5238,0.5631,0.5686,0.5686,0.5686,0.5736,0.5762,0.5814,0.5921,0.629,0.6841,0.713,0.7554,0.8257,0.8471,0.872,0.9065,0.9241,0.9368,0.9436,0.9553,0.9614,0.9614,0.9614,0.9725,0.9947,1.0257,1.0769,1.1377,1.1877,1.2403,1.2977,1.3621,1.4326,1.5062,1.5623,1.612,1.6633,1.7002,1.7253,1.7432,1.7963,1.8293,1.8655,1.931,1.9741,2.0131,2.0644,2.0974,2.1294,2.1675,2.194,2.2141,2.2426,2.2579,2.2685,2.2825,2.2944,2.3052,2.3265,2.336,2.3453,2.3634,2.3828,2.4034,2.4191,2.4321,2.4143,2.3514,2.2499,2.1796,2.1639,2.1075,2.0766,2.0879,2.0731,2.0798,2.1094,2.0943,2.0977,2.1218,2.1221,2.1247,2.1296,2.192,2.2232,2.2252,2.3072,2.3462,-0.1681,-0.18,-0.1989,-0.1773,-0.1594,-0.1343,-0.0944,-0.0504,-0.0,0.0505,0.0785,0.101,0.129,0.129,0.1234,0.1234,0.1681,0.2184,0.2689,0.3355,0.4018,0.446,0.4849,0.5183,0.0,0.5301,0.5301,0.5301,0.5517,0.5648,0.5776,0.601,0.6209,0.652,0.6717,0.7021,0.7439,0.7892,0.841,0.8891,0.9356,0.9606,0.9583,0.9602,0.9614,0.9614,0.9614,0.9673,0.9799,0.9947,1.036,1.0972,1.1377,1.1968,1.2706,1.3228,1.3952,1.4708,1.5534,1.5988,1.6275,1.6833,1.7115,1.7282,1.7747,1.8175,1.863,1.9213,1.9669,2.0111,2.0592,2.0909,2.1183,2.1432,2.1705,2.1969,2.2181,2.2354,2.2552,2.2764,2.2919,2.3052,2.3265,2.336,2.3448,2.3585,2.3607,2.37,2.3976,2.4247,2.4113,2.3372,2.3441,2.3245,2.2514,2.2513,2.2562,2.2623,2.1955,2.197,2.2879,2.2172,2.2153,2.2996,2.3023,2.3027,2.3013,2.3052,2.3052,2.3072,2.3968,2.436,-0.2597,-0.2469,-0.2376,-0.2116,-0.1949,-0.1822,-0.1732,-0.1455,-0.112,-0.0673,-0.0449,-0.0168,0.0336,0.0505,0.0673,0.0954,0.1177,0.1513,0.2128,0.2794,0.3461,0.4076,0.4577,0.0,0.0,0.0,0.0,0.5297,0.5514,0.5604,0.5665,0.5847,0.6117,0.6427,0.6498,0.6746,0.7253,0.7479,0.7772,0.8204,0.8924,0.9491,0.991,0.9816,0.9836,0.9929,0.9709,0.9673,0.9799,0.9851,1.0154,1.0667,1.1175,1.1769,1.2403,1.3025,1.3695,1.4419,1.5198,1.5736,1.6132,1.662,1.6918,1.717,1.7625,1.8043,1.8411,1.9026,1.9472,1.9904,2.0373,2.066,2.0909,2.123,2.1433,2.1615,2.184,2.2056,2.2298,2.2508,2.2747,2.2995,2.3193,2.3313,2.3448,2.3585,2.3678,2.3771,2.3917,2.4209,2.4353,2.419,2.3832,2.3549,2.3391,2.289,2.264,2.2767,2.2585,2.2629,2.2996,2.278,2.2796,2.3093,2.3101,2.3105,2.3091,2.3679,2.3952,2.3971,2.4868,2.5258,-0.3337,-0.3074,-0.2828,-0.2591,-0.2477,-0.2404,-0.2404,-0.2238,-0.1959,-0.1682,-0.1401,-0.1064,-0.0449,-0.0224,0.0056,0.0617,0.0785,0.1121,0.1793,0.2486,0.3114,0.3802,0.4402,0.4945,0.0,0.0,0.0,0.539,0.5547,0.5665,0.5795,0.5912,0.6125,0.6369,0.6378,0.6625,0.7003,0.7136,0.7448,0.7954,0.863,0.9341,0.9989,0.9974,0.9993,1.0089,0.9877,0.9783,0.9732,0.9792,1.0058,1.047,1.1074,1.1669,1.2304,1.2977,1.36,1.4233,1.4983,1.5513,1.5944,1.6547,1.6803,1.7044,1.7556,1.7909,1.8254,1.8912,1.9398,1.9797,2.0285,2.0559,2.081,2.1038,2.1246,2.1402,2.1556,2.1823,2.2113,2.2371,2.2685,2.297,2.3193,2.336,2.3494,2.3603,2.3725,2.3816,2.3896,2.4153,2.4411,2.4582,2.4279,2.4125,2.4245,2.3801,2.3571,2.3688,2.3452,2.3499,2.3888,2.3655,2.3692,2.4027,2.4037,2.4024,2.4028,2.4594,2.4852,2.4874,2.5439,2.5691,-0.3904,-0.3614,-0.3385,-0.3169,-0.3135,-0.3077,-0.2968,-0.2745,-0.2519,-0.2404,-0.2122,-0.1673,-0.106,-0.095,-0.0615,0.0168,0.0616,0.1067,0.1519,0.2307,0.3076,0.0,0.0,0.0,0.0,0.0,0.0,0.5636,0.564,0.5787,0.6191,0.6215,0.6241,0.6412,0.642,0.6482,0.6675,0.6811,0.7335,0.8231,0.8583,0.915,0.9823,1.0003,1.0094,1.0126,1.0111,0.9914,0.9614,0.974,1.0007,1.0368,1.1023,1.1728,1.2372,1.2987,1.3515,1.4104,1.4834,1.5277,1.5724,1.6448,1.6803,1.7002,1.7515,1.7814,1.8161,1.886,1.9347,1.9797,2.027,2.0577,2.0794,2.0861,2.1103,2.1309,2.1386,2.1645,2.2015,2.2415,2.2712,2.2995,2.3265,2.3453,2.3607,2.3607,2.3725,2.3816,2.3896,2.4077,2.4302,2.4564,2.4783,2.4953,2.5101,2.5153,2.5231,2.5303,2.4599,2.4559,2.5454,2.4778,2.4799,2.5678,2.5698,2.5707,2.5709,2.5709,2.5694,2.57,2.57,2.5698,-0.4222,-0.3949,-0.3785,-0.3454,-0.3362,-0.3322,-0.3232,-0.3074,-0.289,-0.2603,-0.2372,-0.2085,-0.1775,-0.1273,-0.0648,0.0054,0.0552,0.0,0.1393,0.199,0.0,0.3595,0.0,0.4913,0.5512,0.5696,0.0,0.0,0.6072,0.6113,0.6203,0.6274,0.6371,0.6416,0.642,0.6416,0.6482,0.6745,0.7335,0.8236,0.8634,0.9307,1.0184,1.0255,1.0303,1.0448,1.0207,0.9914,0.9614,0.974,1.0007,1.0368,1.1023,1.1728,1.2372,1.2852,1.3382,1.3962,1.4523,1.5062,1.5635,1.6207,1.665,1.696,1.7406,1.7733,1.8029,1.8592,1.9035,1.9442,1.9955,2.0304,2.0543,2.0711,2.0957,2.1183,2.1309,2.1631,2.2015,2.2371,2.2799,2.3217,2.3471,2.3562,2.3634,2.3728,2.3774,2.3816,2.3896,2.4172,2.4411,2.4582,2.4827,2.5006,2.5101,2.5206,2.5282,2.5303,2.5138,2.5194,2.5499,2.5362,2.5399,2.5683,2.5696,2.5694,2.5702,2.5702,2.5703,2.5703,2.5703,2.5703,-0.4538,-0.4233,-0.4002,-0.3732,-0.3613,-0.3532,-0.3386,-0.3217,-0.2979,-0.2724,-0.2464,-0.2181,-0.1869,-0.1621,-0.1078,0.0,0.0,0.0,0.1347,0.1907,0.2596,0.0,0.4165,0.0,0.5443,0.5755,0.6013,0.6185,0.6189,0.6244,0.6262,0.6363,0.642,0.642,0.642,0.642,0.6548,0.6876,0.7335,0.7982,0.8506,0.9274,1.0155,1.0436,1.0625,1.0785,1.0455,1.0133,0.9886,0.9903,1.0154,1.0624,1.1226,1.1877,1.2529,1.2949,1.3382,1.3868,1.428,1.4834,1.5412,1.6095,1.6509,1.6876,1.7352,1.7693,1.8003,1.8475,1.8921,1.9384,1.9904,2.0235,2.0509,2.0728,2.0974,2.1183,2.1419,2.1751,2.2141,2.2598,2.3052,2.3383,2.3562,2.3656,2.3725,2.3834,2.3919,2.3999,2.4057,2.4266,2.4464,2.4631,2.4856,2.5032,2.5149,2.5231,2.5322,2.5351,2.5387,2.5434,2.5492,2.556,2.5624,2.5694,2.5705,2.57,2.5703,2.5701,2.57,2.57,2.5697,2.5696,-0.4761,-0.4449,-0.4119,-0.3901,-0.3778,-0.3678,-0.3471,-0.3187,-0.2921,-0.2754,-0.2411,-0.2036,-0.1657,-0.1828,-0.1549,-0.0208,0.0,0.1038,0.1343,0.1936,0.259,0.3333,0.4124,0.4842,0.536,0.5743,0.5993,0.6203,0.6201,0.625,0.6412,0.642,0.642,0.642,0.6416,0.6548,0.6741,0.7134,0.7466,0.7862,0.8571,0.9338,1.0085,1.0604,1.0946,1.1055,1.0733,1.0468,1.0268,1.0091,1.0411,1.0972,1.1528,1.2175,1.2764,1.3084,1.3467,1.381,1.4082,1.4593,1.5187,1.5964,1.6436,1.6803,1.7323,1.7666,1.8003,1.8475,1.8988,1.9487,1.9975,2.0289,2.0561,2.0828,2.1055,2.1294,2.1648,2.1998,2.2402,2.3028,2.3336,2.3539,2.3607,2.3747,2.3855,2.3937,2.4115,2.4266,2.4339,2.4411,2.4515,2.4689,2.4912,2.5069,2.5198,2.5273,2.5332,2.5398,2.5404,2.5434,2.5511,2.5562,2.5634,2.5707,2.5693,2.5703,2.57,2.5693,2.5707,2.5707,2.5707,2.5707,-0.4791,-0.4376,-0.4023,-0.3992,-0.3724,-0.3431,-0.3392,-0.3079,0.0,0.0,-0.2079,-0.1748,-0.141,-0.1434,-0.1196,-0.0145,0.0512,0.1038,0.1343,0.1936,0.2611,0.0,0.4319,0.4992,0.5512,0.5778,0.0,0.0,0.6183,0.6248,0.6416,0.642,0.642,0.642,0.6548,0.6806,0.7138,0.7596,0.8117,0.8641,0.9268,0.9907,1.0415,1.087,1.1076,1.1055,1.0733,1.0468,1.0322,1.0248,1.0565,1.1124,1.1778,1.2323,1.2803,1.3228,1.3467,1.3668,1.4082,1.4444,1.4892,1.5644,1.625,1.6803,1.7267,1.7556,1.7882,1.8436,1.886,1.9288,1.9884,2.0216,2.0509,2.0828,2.1103,2.1402,2.1853,2.2419,2.2935,2.3289,2.3448,2.3567,2.3728,2.3834,2.3958,2.4191,2.4321,2.4429,2.4613,2.4645,2.4673,2.476,2.5013,2.5206,2.5271,2.5332,2.5397,2.5406,2.544,2.5499,2.5503,2.5568,2.563,2.5702,2.5707,2.5703,2.57,2.5693,2.5707,2.5707,2.5707,2.5707,-0.4684,-0.4297,-0.3957,-0.384,-0.3499,-0.3173,-0.3009,0.0,0.0,0.0,-0.1849,-0.149,-0.1337,-0.1264,0.0,-0.0137,0.0641,0.1222,0.148,0.2008,0.2694,0.371,0.4294,0.4813,0.5415,0.562,0.5752,0.5881,0.6079,0.628,0.642,0.642,0.642,0.642,0.6679,0.7007,0.733,0.7977,0.8501,0.9087,0.9722,1.0295,1.0674,1.1059,1.1286,1.1419,1.0916,1.079,1.0902,1.064,1.0922,1.1578,1.2026,1.251,1.3035,1.3372,1.3573,1.3763,1.4186,1.4536,1.4892,1.5567,1.6163,1.6705,1.7238,1.761,1.7922,1.8436,1.8921,1.942,1.996,2.0357,2.0695,2.1071,2.1554,2.2027,2.2392,2.2859,2.3265,2.3476,2.3594,2.3707,2.3917,2.4037,2.4173,2.4373,2.451,2.4657,2.4823,2.4907,2.4961,2.4961,2.5099,2.5241,2.5332,2.5406,2.544,2.544,2.548,2.5517,2.5544,2.5582,2.563,2.571,2.5691,2.5703,2.57,2.5693,2.5705,2.5703,2.5703,2.5701,-0.4405,-0.4097,-0.3754,-0.3548,-0.3197,-0.2839,-0.2631,-0.2239,0.0,-0.1901,-0.1462,-0.1053,-0.1059,-0.0922,-0.0599,0.0,0.08,0.1369,0.1593,0.2112,0.2801,0.0,0.4223,0.0,0.5345,0.5554,0.0,0.5749,0.6148,0.6412,0.6482,0.6482,0.6482,0.6486,0.6876,0.7204,0.7591,0.8296,0.8947,0.9408,1.011,1.0555,1.087,1.1178,1.1516,1.1721,1.1128,1.1118,1.1416,1.0987,1.1276,1.2026,1.2314,1.2793,1.3314,1.361,1.381,1.3962,1.4373,1.4731,1.513,1.57,1.6194,1.665,1.7253,1.7679,1.8109,1.8553,1.9147,1.9711,2.0154,2.0579,2.099,2.1401,2.2056,2.2642,2.2919,2.3217,2.3499,2.3638,2.3771,2.3937,2.4134,2.4284,2.4408,2.457,2.4741,2.4921,2.5044,2.5164,2.522,2.5176,2.5212,2.5284,2.5416,2.5476,2.5507,2.5507,2.5511,2.5557,2.5601,2.5604,2.5652,2.5705,2.5699,2.5703,2.5696,2.5707,2.5701,2.5698,2.5698,2.5693,-0.3852,-0.3527,-0.3198,-0.3135,-0.2693,-0.2318,-0.246,0.0,-0.1497,-0.0967,-0.0548,-0.0271,-0.0205,-0.0036,0.019,0.0501,0.1013,0.1464,0.1689,0.2261,0.2941,0.374,0.0,0.0,0.5345,0.5554,0.5749,0.6145,0.6548,0.6811,0.6675,0.6675,0.6745,0.6881,0.7269,0.7591,0.7922,0.8823,0.9402,0.974,1.0428,1.087,1.1059,1.1435,1.1584,1.151,1.1318,1.1257,1.1317,1.1285,1.1628,1.2323,1.2735,1.317,1.361,1.3988,1.4129,1.4222,1.4674,1.5073,1.5433,1.6051,1.6454,1.6795,1.731,1.7841,1.8383,1.8898,1.9472,2.0025,2.0392,2.0761,2.1214,2.1823,2.2381,2.2868,2.3102,2.3407,2.3638,2.3834,2.3976,2.4134,2.4338,2.4474,2.4636,2.4831,2.4981,2.5118,2.525,2.5284,2.5321,2.5376,2.5385,2.5412,2.5476,2.5503,2.5499,2.5493,2.5562,2.5593,2.5601,2.5664,2.5683,2.5699,2.5703,2.5694,2.5704,2.571,2.569,2.569,2.569,2.5704,-0.3277,-0.3019,-0.2742,-0.2856,-0.2428,-0.1987,-0.2043,-0.1447,-0.0806,-0.0558,-0.0145,0.0235,0.0403,0.0597,0.0858,0.1157,0.1543,0.1886,0.2024,0.262,0.3202,0.3754,0.4429,0.0,0.0,0.0,0.621,0.6741,0.7068,0.7396,0.7582,0.7195,0.7068,0.7265,0.7591,0.8052,0.8506,0.9075,0.9658,1.0117,1.0681,1.1059,1.1247,1.1685,1.1936,1.1937,1.1809,1.1784,1.1851,1.1888,1.2175,1.2657,1.3074,1.3467,1.3868,1.4291,1.4512,1.4674,1.5175,1.549,1.5844,1.6466,1.6892,1.7256,1.7585,1.8068,1.8577,1.9109,1.9711,2.0239,2.063,2.1229,2.1807,2.2309,2.273,2.3102,2.3336,2.3571,2.3771,2.3976,2.4135,2.4301,2.454,2.4693,2.485,2.5056,2.5157,2.5243,2.5351,2.5404,2.5453,2.5505,2.5476,2.5468,2.5505,2.5538,2.5556,2.555,2.5595,2.5629,2.5662,2.5652,2.5663,2.57,2.5661,2.5662,2.5694,2.5655,2.5652,2.5691,2.566,2.5643,-0.2634,-0.2499,-0.2394,-0.2449,-0.1923,-0.1399,-0.1432,-0.0816,-0.0207,-0.0117,0.0287,0.0672,0.0841,0.1076,0.131,0.1628,0.1986,0.2253,0.2403,0.2916,0.3403,0.3889,0.0,0.5157,0.5561,0.6238,0.6933,0.7521,0.7787,0.8042,0.8495,0.8107,0.7852,0.7852,0.8177,0.8506,0.9022,0.946,0.9849,1.0308,1.0807,1.1122,1.1428,1.1934,1.2177,1.2249,1.2268,1.2323,1.2274,1.2386,1.2657,1.3035,1.3457,1.3847,1.428,1.4708,1.5017,1.522,1.5712,1.6032,1.6349,1.6905,1.7393,1.7787,1.8068,1.85,1.8959,1.9479,2.007,2.0665,2.1118,2.1761,2.232,2.2703,2.3028,2.3313,2.3504,2.3728,2.3937,2.4152,2.432,2.4505,2.4756,2.4891,2.5061,2.5233,2.5313,2.5378,2.5414,2.5495,2.555,2.5595,2.5562,2.5523,2.5537,2.5571,2.5615,2.5639,2.5609,2.5616,2.5663,2.5624,2.5611,2.5636,2.558,2.5591,2.5648,2.5595,2.5591,2.5634,2.559,2.5556,-0.2002,-0.2125,-0.2125,-0.1871,-0.111,-0.0445,-0.0596,-0.0261,0.0205,0.0596,0.0909,0.111,0.111,0.131,0.1599,0.1852,0.2192,0.2506,0.276,0.3148,0.3622,0.0,0.0,0.5214,0.6045,0.7072,0.7902,0.8425,0.8694,0.8958,0.9274,0.9274,0.9151,0.877,0.8894,0.9139,0.9518,0.9849,1.011,1.0301,1.0618,1.1052,1.1622,1.2058,1.2281,1.2325,1.2657,1.2661,1.2529,1.2735,1.3016,1.3467,1.3988,1.4398,1.4755,1.5277,1.5635,1.5876,1.6337,1.6663,1.696,1.7352,1.7868,1.8383,1.8898,1.9236,1.9479,1.996,2.073,2.1493,2.1982,2.2337,2.2651,2.2927,2.3217,2.3435,2.3649,2.3917,2.4152,2.4358,2.4561,2.4756,2.4968,2.5103,2.5234,2.5385,2.5456,2.5495,2.5493,2.5551,2.5596,2.5595,2.5593,2.559,2.56,2.5605,2.562,2.5694,2.5643,2.5604,2.5592,2.559,2.5576,2.5498,2.5499,2.5498,2.5499,2.5506,2.5506,2.5499,2.5498,2.5437,-0.1288,-0.1116,-0.0975,-0.0902,-0.0534,-0.0093,0.0316,0.0539,0.072,0.1028,0.119,0.1279,0.141,0.1609,0.1878,0.2233,0.2465,0.2792,0.3358,0.0,0.0,0.4506,0.5478,0.6426,0.0,0.0,0.8624,0.9134,0.9338,0.9542,0.9792,0.9792,0.9594,0.9268,0.9472,0.9664,0.9849,1.011,1.0364,1.0681,1.1122,1.1622,1.212,1.2781,1.2982,1.2822,1.3322,1.3271,1.289,1.3324,1.3658,1.3978,1.449,1.4858,1.5175,1.568,1.5976,1.6225,1.668,1.7002,1.7308,1.7828,1.8319,1.8817,1.9449,1.9732,1.996,2.0763,2.1385,2.1911,2.2337,2.2651,2.2952,2.3271,2.3553,2.3771,2.3955,2.4173,2.4409,2.458,2.476,2.4949,2.5118,2.5254,2.5376,2.5456,2.5531,2.5577,2.557,2.5595,2.56,2.5609,2.5642,2.5662,2.5679,2.5634,2.5605,2.5622,2.5607,2.5574,2.5521,2.5498,2.5441,2.5422,2.5434,2.5434,2.5422,2.539,2.5337,2.5292,2.5293,2.5244,0.0,-0.0351,-0.0045,-0.0,0.0178,0.0469,0.0964,0.1092,0.1196,0.1384,0.1482,0.1613,0.1744,0.1945,0.2224,0.2618,0.2817,0.3158,0.0,0.0,0.0,0.5259,0.0,0.0,0.0,0.8606,0.9174,0.9773,0.9919,1.0053,1.0244,1.0238,1.011,0.9913,0.9983,1.0117,1.0301,1.0491,1.0744,1.1122,1.1622,1.2174,1.272,1.3237,1.3416,1.3368,1.3691,1.369,0.0,1.3894,1.4233,1.4593,1.504,1.54,1.568,1.6175,1.6466,1.671,1.7115,1.7474,1.7801,1.8268,1.8968,1.9677,2.0333,2.0565,2.0747,2.1507,2.1982,2.2364,2.273,2.301,2.3259,2.358,2.384,2.4059,2.4248,2.4459,2.4654,2.4794,2.4968,2.5118,2.5254,2.5357,2.5456,2.5531,2.5574,2.5605,2.5609,2.5601,2.5603,2.5602,2.5644,2.5651,2.5625,2.5613,2.5583,2.5559,2.5547,2.5492,2.5426,2.539,2.5346,2.5321,2.5313,2.5303,2.5293,2.5244,2.5192,2.5118,2.5103,2.5056,0.0,0.0261,0.0583,0.0859,0.1016,0.116,0.1292,0.1416,0.0,0.1625,0.1845,0.2047,0.2147,0.2311,0.2568,0.2968,0.3208,0.3571,0.0,0.4723,0.0,0.0,0.6905,0.0,0.8498,0.8902,0.9482,1.0255,1.0295,1.0371,1.0561,1.0604,1.0604,1.0618,1.0471,1.0534,1.0807,1.0975,1.1274,1.1586,1.2058,1.2647,1.3296,1.3455,1.37,1.3903,1.3868,1.3936,1.4071,1.4398,1.4777,1.5198,1.5656,1.6032,1.6331,1.6761,1.7086,1.7282,1.7638,1.8003,1.8333,1.8769,1.9763,2.0879,2.1399,2.1598,2.1731,2.2136,2.2483,2.2816,2.3151,2.3399,2.3613,2.3885,2.41,2.4316,2.4572,2.4727,2.4874,2.5006,2.5141,2.5255,2.5387,2.5476,2.5525,2.5604,2.5609,2.5606,2.5597,2.5605,2.5595,2.559,2.5571,2.5556,2.5484,2.5554,2.5571,2.5492,2.5414,2.5352,2.5293,2.5284,2.5252,2.5176,2.5176,2.5145,2.5091,2.5094,2.5032,2.4966,2.4921,2.4832,0.074,0.0,0.0918,0.114,0.1227,0.1333,0.0,0.1728,0.1873,0.2147,0.0,0.2444,0.2673,0.2709,0.2881,0.3376,0.3586,0.4016,0.5035,0.5896,0.0,0.7025,0.7467,0.7965,0.8539,0.9163,0.9726,1.0091,1.0372,1.0561,1.0624,1.0465,1.0568,1.0989,1.0951,1.0944,1.1059,1.1005,1.124,1.1653,1.1977,1.2411,1.3032,1.3653,1.398,1.4023,1.4364,1.4548,1.4571,1.4949,1.5355,1.5812,1.6107,1.6423,1.6791,1.7141,1.7419,1.7639,1.8121,1.8525,1.8977,1.9993,2.083,2.1549,2.2046,2.2147,2.2203,2.2563,2.2908,2.3206,2.3518,2.3762,2.4024,2.4228,2.4484,2.4704,2.4869,2.5005,2.5133,2.5207,2.5346,2.5456,2.5536,2.5579,2.5601,2.5668,2.5634,2.5605,2.5597,2.5564,2.5498,2.5456,2.5398,2.5365,2.5351,2.5406,2.5418,2.5348,2.5236,2.5156,2.5141,2.5099,2.5069,2.5044,2.5,2.4929,2.4861,2.4865,2.4808,2.4685,2.4673,2.461,0.1368,0.129,0.1239,0.1444,0.1587,0.1721,0.1996,0.0,0.0,0.0,0.0,0.3029,0.3276,0.3296,0.3448,0.3957,0.4329,0.4933,0.0,0.0,0.7359,0.7526,0.7695,0.8037,0.8608,0.9068,0.9479,0.9907,1.012,1.0336,1.0397,1.0405,1.064,1.1142,1.1406,1.1533,1.156,1.1586,1.1886,1.2355,1.2673,1.3086,1.3619,1.4073,1.4369,1.4461,1.4784,1.4967,1.5085,1.5546,1.5901,1.625,1.6582,1.6892,1.7183,1.7597,1.7895,1.8147,1.8664,1.9295,2.0032,2.0959,2.1681,2.2224,2.2626,2.288,2.301,2.3135,2.3369,2.3656,2.3905,2.4137,2.4385,2.4579,2.4818,2.5018,2.5152,2.5236,2.5309,2.5371,2.5486,2.5551,2.56,2.5606,2.5615,2.5643,2.56,2.5534,2.5507,2.544,2.5383,2.5313,2.5274,2.5244,2.522,2.5203,2.5205,2.5203,2.5115,2.5043,2.5006,2.4961,2.4926,2.4917,2.4808,2.4749,2.4707,2.4645,2.4561,2.4461,2.4409,2.432,0.1915,0.1852,0.1702,0.1836,0.2087,0.2344,0.261,0.0,0.0,0.0,0.0,0.0,0.0,0.4061,0.0,0.0,0.0,0.0,0.7242,0.7663,0.7943,0.8062,0.7943,0.8135,0.8754,0.8867,0.9108,0.9707,0.9884,1.002,1.0186,1.0422,1.0768,1.1337,1.1873,1.2193,1.2263,1.2378,1.2687,1.3204,1.3414,1.383,1.4335,1.4516,1.4779,1.5037,1.5188,1.5367,1.5647,1.6144,1.6436,1.6693,1.7102,1.7406,1.7679,1.8189,1.8514,1.8793,1.9405,2.0252,2.1179,2.177,2.2361,2.288,2.3236,2.3577,2.3866,2.3803,2.3885,2.4061,2.4317,2.4535,2.4714,2.4924,2.5118,2.5274,2.5401,2.5425,2.5447,2.5505,2.5556,2.5593,2.5597,2.5586,2.558,2.5562,2.552,2.5457,2.5381,2.5307,2.5245,2.5184,2.5138,2.5118,2.5069,2.5012,2.4966,2.5051,2.5012,2.4945,2.4856,2.4842,2.4798,2.4742,2.4631,2.453,2.453,2.4411,2.4284,2.4229,2.4097,2.402,0.2467,0.2698,0.2821,0.2743,0.2873,0.3093,0.3368,0.0,0.0,0.0,0.0,0.0,0.0,0.5176,0.5636,0.0,0.0,0.7931,0.0,0.0,0.8798,0.885,0.8692,0.8712,0.8964,0.9194,0.9467,0.9847,1.0094,1.0358,1.0594,1.0672,1.0989,1.1704,1.2402,1.2882,1.3101,1.2817,1.2957,1.3541,1.3357,1.3565,1.4084,1.4482,1.4867,1.5279,1.5659,1.5976,1.6194,1.6607,1.6989,1.7352,1.7585,1.8082,1.863,1.8921,1.9339,1.9814,2.0685,2.1456,2.2074,2.2574,2.3028,2.3437,2.3783,2.4043,2.428,2.4535,2.4572,2.454,2.4674,2.4866,2.5057,2.5206,2.5346,2.5483,2.555,2.5576,2.5564,2.557,2.5584,2.5604,2.5593,2.5545,2.5503,2.5449,2.5379,2.5307,2.5245,2.5171,2.5099,2.5043,2.4929,2.4865,2.4926,2.4817,2.4742,2.4768,2.4802,2.4806,2.4729,2.4629,2.4545,2.4459,2.4393,2.4284,2.4173,2.4098,2.4039,2.3958,2.3878,2.3834,0.3188,0.3472,0.3673,0.4105,0.4024,0.3966,0.4398,0.0,0.0,0.0,0.0,0.0,0.0,0.0,0.6839,0.7713,0.0,0.8991,0.9206,0.9416,0.951,0.9465,0.9309,0.9263,0.9413,0.9542,0.9727,0.994,1.0187,1.0493,1.0716,1.1044,1.1538,1.2208,1.2867,1.3402,1.3897,1.3772,1.3812,1.3906,1.391,1.4165,1.4582,1.4994,1.54,1.5824,1.6207,1.6497,1.6697,1.7144,1.7516,1.7787,1.8187,1.864,1.9155,1.9814,2.0436,2.1006,2.1635,2.2252,2.2797,2.3153,2.3559,2.3966,2.4247,2.4452,2.4666,2.4898,2.4885,2.4845,2.4974,2.5135,2.5293,2.5376,2.5473,2.5566,2.559,2.5605,2.5604,2.56,2.5564,2.5531,2.5504,2.5447,2.5364,2.5293,2.5224,2.5152,2.5061,2.4968,2.4926,2.4898,2.4779,2.4704,2.4738,2.4645,2.458,2.4594,2.4629,2.4615,2.4534,2.441,2.4302,2.4229,2.4154,2.4057,2.3979,2.3937,2.3873,2.3789,2.3725,2.3678,0.3817,0.4074,0.438,0.5164,0.0,0.4922,0.5441,0.0,0.0,0.0,0.0,0.0,0.0,0.7752,0.0,0.9264,0.9597,0.9838,1.0195,1.0277,1.0277,1.0174,1.0072,1.0028,1.0123,1.0123,1.0174,1.0328,1.0541,1.0804,1.1099,1.161,1.2195,1.2744,1.3367,1.3901,1.444,1.4718,1.474,1.4471,1.4628,1.4915,1.5334,1.568,1.6032,1.6392,1.6795,1.7076,1.7312,1.7801,1.8159,1.8433,1.893,1.9456,1.9997,2.0879,2.1576,2.2141,2.2468,2.2937,2.3406,2.3707,2.41,2.4454,2.4663,2.4845,2.5022,2.5163,2.5166,2.5168,2.5245,2.5354,2.5466,2.5518,2.5552,2.5603,2.5605,2.5583,2.5566,2.5565,2.5502,2.5434,2.5331,2.5265,2.5206,2.5149,2.5094,2.5019,2.4888,2.4823,2.4768,2.4757,2.4626,2.4528,2.4479,2.4426,2.4391,2.4338,2.4373,2.4374,2.4339,2.4192,2.4097,2.4039,2.3917,2.3813,2.381,2.3721,2.3656,2.3611,2.3544,2.3494,0.4071,0.4463,0.4861,0.5352,0.0,0.0,0.6193,0.6846,0.0,0.7486,0.0,0.0,0.0,0.9344,0.9913,1.0308,1.0626,1.0787,1.0812,1.1065,1.1217,1.1167,1.1108,1.1099,1.1099,1.1099,1.1158,1.1368,1.146,1.171,1.2058,1.2384,1.2783,1.3316,1.4027,1.4471,1.4587,1.5328,1.5567,1.5304,1.528,1.549,1.5944,1.6293,1.6637,1.6951,1.7503,1.7854,1.8066,1.866,1.9133,1.9534,2.0024,2.0782,2.1681,2.2197,2.26,2.2954,2.3315,2.3627,2.3912,2.4316,2.4582,2.4804,2.4998,2.5166,2.5292,2.5425,2.5499,2.5537,2.5484,2.5525,2.5585,2.558,2.5598,2.5604,2.5607,2.5547,2.5498,2.5425,2.5361,2.5274,2.5143,2.5072,2.5006,2.4942,2.4921,2.4884,2.4808,2.4753,2.4673,2.4623,2.4497,2.4339,2.4152,2.4135,2.4058,2.3858,2.4039,2.4135,2.4116,2.3979,2.3896,2.3816,2.3685,2.3571,2.3539,2.3407,2.3336,2.3336,2.3313,2.3289,0.4675,0.5054,0.548,0.5932,0.0,0.0,0.0,0.0,0.0,0.0,0.922,0.0,0.0,0.0,1.0856,1.0998,1.1175,1.1318,1.1528,1.1678,1.1828,1.1927,1.1968,1.2017,1.2017,1.2017,1.2058,1.2187,1.2276,1.253,1.2929,1.3218,1.3552,1.3999,1.449,1.4864,1.5096,1.5747,1.6113,1.6256,1.6005,1.6095,1.6454,1.6824,1.7242,1.7652,1.8159,1.8559,1.8948,1.9468,1.9943,2.0369,2.1069,2.1807,2.2521,2.2855,2.3264,2.366,2.385,2.4136,2.4439,2.4662,2.4911,2.5137,2.5243,2.5348,2.5446,2.5532,2.5587,2.559,2.557,2.5577,2.5595,2.5605,2.5577,2.5538,2.5473,2.5425,2.5332,2.5234,2.5179,2.5134,2.5,2.4955,2.4893,2.4794,2.4783,2.4738,2.4626,2.4596,2.453,2.4426,2.421,2.4018,2.3858,2.3813,2.375,2.3685,2.3816,2.3878,2.3792,2.3703,2.3616,2.3549,2.3458,2.3383,2.3313,2.3217,2.3151,2.3119,2.307,2.3045,0.5077,0.5473,0.5965,0.0,0.0,0.0,0.0,0.0,0.0,0.0,1.0468,0.0,0.0,0.0,0.0,0.0,1.1669,1.1828,1.2076,1.2264,1.2461,1.2608,1.2803,1.291,1.2949,1.2997,1.2987,1.3054,1.315,1.3399,1.3742,1.3988,1.4362,1.4777,1.504,1.5389,1.5832,1.625,1.668,1.7105,1.7008,1.7008,1.7131,1.7517,1.7947,1.8408,1.8954,1.9405,1.9838,2.0405,2.0911,2.1467,2.2201,2.2795,2.3252,2.3516,2.3888,2.4264,2.4414,2.4624,2.4866,2.5015,2.5197,2.5362,2.5424,2.5465,2.5508,2.5566,2.5543,2.5531,2.5517,2.5541,2.5556,2.5547,2.5489,2.5415,2.5361,2.5274,2.5166,2.5065,2.5019,2.498,2.4865,2.4808,2.4768,2.4626,2.4613,2.4564,2.4426,2.4393,2.4303,2.4135,2.3937,2.375,2.3602,2.3553,2.3504,2.3481,2.3531,2.3553,2.3504,2.343,2.336,2.3265,2.3217,2.3144,2.3045,2.2952,2.2876,2.2842,2.273,2.2677,0.5233,0.5699,0.6331,0.0,0.0,0.0,0.0,0.0,0.0,1.121,0.0,1.2332,1.248,1.2382,0.0,1.2332,1.2332,1.2323,1.248,1.2793,1.3112,1.3362,1.3621,1.3858,1.3978,1.4025,1.4025,1.4025,1.4129,1.4269,1.4501,1.4766,1.513,1.5591,1.5756,1.6095,1.671,1.6909,1.7271,1.7827,1.8224,1.8277,1.8028,1.8433,1.8817,1.9244,1.9914,2.0382,2.0782,2.1428,2.2197,2.2947,2.3346,2.3684,2.395,2.4227,2.4514,2.4818,2.496,2.5088,2.5225,2.536,2.5446,2.5504,2.5494,2.5508,2.5492,2.55,2.5443,2.5388,2.5303,2.5398,2.5473,2.5412,2.536,2.5274,2.5214,2.5091,2.4981,2.4915,2.4851,2.4783,2.4707,2.4647,2.4566,2.4444,2.4411,2.4358,2.4229,2.4154,2.3999,2.3753,2.366,2.3562,2.3442,2.3401,2.3354,2.3234,2.3144,2.3168,2.3289,2.3241,2.3144,2.2995,2.2944,2.2842,2.2685,2.2561,2.248,2.2487,2.2281,2.2192,0.604,0.6443,0.0,0.7837,0.0,0.0,0.0,0.0,0.0,0.0,1.257,1.2783,1.2735,1.2832,0.0,1.2677,1.2832,1.2939,1.2987,1.3324,1.3621,1.3821,1.4057,1.4233,1.428,1.428,1.4326,1.4419,1.4512,1.4697,1.5028,1.5277,1.5623,1.6107,1.6355,1.674,1.7269,1.7693,1.812,1.8574,1.9103,1.9103,1.8664,1.9192,1.9651,2.0078,2.075,2.1301,2.1807,2.2591,2.3159,2.3566,2.387,2.4191,2.4492,2.4657,2.4866,2.5099,2.5225,2.5337,2.543,2.5461,2.551,2.5546,2.5469,2.5426,2.5418,2.5328,2.5241,2.5178,2.5111,2.5072,2.5105,2.5224,2.5163,2.5077,2.5,2.4915,2.4837,2.4716,2.5126,2.5475,2.5335,2.5783,2.6078,2.5904,2.5844,2.5719,2.5502,2.4906,2.4689,2.5141,2.4526,2.4272,2.476,2.4173,2.3711,2.3702,2.312,2.2893,2.3003,2.2919,2.2816,2.2712,2.2554,2.2429,2.2347,2.2169,2.2044,2.2003,2.1794,2.1764,0.6547,0.6892,0.0,0.8611,0.9487,1.0499,1.2003,0.0,0.0,0.0,1.3286,1.3409,1.3447,1.3494,0.0,1.3399,1.3447,1.3542,1.36,1.3847,1.4104,1.4326,1.4558,1.4743,1.4834,1.488,1.4937,1.504,1.5153,1.5379,1.5691,1.5944,1.6312,1.6824,1.7118,1.753,1.8054,1.8472,1.893,1.9398,2.0004,2.0162,1.9963,2.0249,2.0585,2.1006,2.1786,2.2392,2.2874,2.3505,2.3931,2.417,2.4425,2.4695,2.4943,2.5028,2.5177,2.5325,2.5406,2.5478,2.5506,2.5467,2.5464,2.5464,2.5356,2.5274,2.5216,2.5077,2.4984,2.4924,2.4831,2.4718,2.4723,2.4962,2.4923,2.4828,2.476,2.4689,2.4629,2.4528,2.5132,2.5616,2.5502,2.6086,2.6515,2.6362,2.6186,2.6027,2.585,2.5316,2.51,2.5517,2.4998,2.4776,2.5118,2.4625,2.4236,2.419,2.3402,2.31,2.3436,2.2887,2.2617,2.2711,2.2321,2.2173,2.2328,2.1883,2.1631,2.1617,2.1433,2.1402,0.6932,0.0,0.0,0.9269,1.0376,0.0,1.3129,1.3514,1.361,1.381,0.0,1.4114,1.4373,1.4326,1.4269,1.4222,1.4165,1.4118,1.4269,1.4419,1.4605,1.4949,1.5096,1.5289,1.5513,1.5659,1.576,1.576,1.5957,1.6163,1.6355,1.671,1.7173,1.7747,1.7988,1.8408,1.9006,1.9273,1.9707,2.0296,2.0846,2.1305,2.1694,2.1442,2.1546,2.2012,2.2915,2.3527,2.3912,2.4222,2.4512,2.4758,2.4958,2.5154,2.5313,2.5318,2.5399,2.5494,2.5488,2.5473,2.5465,2.539,2.5324,2.5266,2.5184,2.5069,2.4937,2.479,2.4697,2.461,2.4495,2.4355,2.4317,2.4554,2.4594,2.4547,2.4478,2.441,2.4394,2.445,2.5002,2.5474,2.5447,2.5972,2.6356,2.6273,2.5982,2.5764,2.5747,2.555,2.5383,2.5368,2.5259,2.5126,2.4983,2.4872,2.476,2.4649,2.3802,2.3611,2.4206,2.3076,2.2613,2.2972,2.2297,2.2094,2.2476,2.173,2.131,2.1246,2.1119,2.1103,0.7839,0.8207,0.0,0.0,1.199,1.3304,1.3597,1.4224,1.464,1.4176,1.4291,1.4488,1.4534,1.4627,1.4627,1.4523,1.464,1.472,1.4766,1.5051,1.5322,1.5457,1.568,1.5812,1.5901,1.6064,1.6151,1.6151,1.6411,1.668,1.6976,1.7297,1.7774,1.8394,1.8693,1.9132,1.9687,2.0093,2.0585,2.1054,2.1678,2.2146,2.2531,2.2228,2.2514,2.3325,2.3835,2.4223,2.4531,2.4739,2.4938,2.5099,2.5267,2.5368,2.5453,2.5453,2.5449,2.542,2.5418,2.5356,2.5255,2.5188,2.5118,2.5053,2.4915,2.4756,2.4582,2.4454,2.4372,2.4284,2.4135,2.4057,2.3961,2.3923,2.4098,2.4284,2.4266,2.421,2.4318,2.4842,2.5521,2.6172,2.6633,2.7338,2.7736,2.7493,2.7238,2.7051,2.7021,2.638,2.6122,2.6647,2.6028,2.5751,2.6232,2.548,2.493,2.493,2.4034,2.3588,2.3652,2.2979,2.2912,2.3522,2.3158,2.2731,2.2246,2.2,2.1532,2.0974,2.0893,2.0893,0.8331,0.0,0.0,1.104,0.0,1.3879,1.4217,1.4716,1.5043,1.5005,1.4926,1.4937,1.5028,1.504,1.504,1.5028,1.5108,1.5232,1.5322,1.5603,1.5869,1.6032,1.625,1.6411,1.6454,1.671,1.6866,1.6866,1.7188,1.7476,1.7774,1.8133,1.864,1.92,1.9522,1.9934,2.0518,2.0975,2.1425,2.1876,2.2435,2.3041,2.3601,2.3303,2.3518,2.4153,2.4482,2.4752,2.4941,2.5117,2.5247,2.5342,2.5414,2.5466,2.5481,2.5437,2.5351,2.5305,2.5232,2.5126,2.4994,2.4898,2.4823,2.4746,2.4607,2.4424,2.4247,2.4155,2.402,2.3881,2.3792,2.3685,2.3576,2.3468,2.3692,2.3901,2.3901,2.3899,2.4052,2.4735,2.5434,2.6118,2.6766,2.7465,2.7893,2.7659,2.7448,2.7261,2.7233,2.6713,2.6432,2.674,2.6236,2.6,2.6297,2.5719,2.531,2.5291,2.4479,2.411,2.4414,2.3751,2.3557,2.3929,2.3414,2.2955,2.2521,2.2131,2.1573,2.0844,2.0827,2.0827,0.0,0.0,0.9334,1.1515,1.2852,0.0,1.4671,1.4994,1.5248,1.5695,1.5555,1.5435,1.5513,1.548,1.5435,1.5558,1.5635,1.5724,1.5957,1.6188,1.6448,1.665,1.6837,1.7047,1.716,1.7503,1.772,1.772,1.808,1.8366,1.8636,1.9058,1.9558,2.0112,2.0385,2.0846,2.1442,2.1811,2.2228,2.2718,2.3298,2.3934,2.4605,2.4429,2.4452,2.4726,2.4968,2.5136,2.526,2.5375,2.5449,2.5488,2.5476,2.5469,2.5432,2.5297,2.5187,2.5088,2.4962,2.4831,2.4693,2.4538,2.4459,2.4355,2.4229,2.4058,2.3901,2.3816,2.3689,2.3518,2.344,2.3319,2.3241,2.3168,2.3324,2.3495,2.3518,2.362,2.3909,2.4615,2.5375,2.6081,2.663,2.718,2.7448,2.7341,2.7135,2.694,2.6859,2.664,2.6418,2.6314,2.612,2.5941,2.5844,2.568,2.5589,2.553,2.4901,2.4762,2.5323,2.4659,2.4264,2.434,2.366,2.3211,2.288,2.2327,2.1616,2.0794,2.0794,2.0794,0.0,0.0,1.0773,0.0,1.3022,1.3818,0.0,0.0,1.5718,0.0,1.5727,1.5748,1.5748,1.5748,1.5792,1.5913,1.6064,1.6312,1.6625,1.6892,1.7157,1.7352,1.7544,1.7707,1.7868,1.8226,1.85,1.863,1.8869,1.9229,1.9594,1.9934,2.0418,2.1085,2.1364,2.1811,2.2415,2.2626,2.3035,2.3554,2.4262,2.4771,2.5111,2.5197,2.519,2.5129,2.5286,2.5394,2.5469,2.5488,2.5469,2.5418,2.5349,2.5287,2.5216,2.5094,2.4917,2.4741,2.4598,2.4491,2.4338,2.4155,2.404,2.3958,2.3819,2.3689,2.3553,2.3499,2.3365,2.3223,2.3102,2.3052,2.3003,2.297,2.2977,2.3052,2.3223,2.3753,2.4416,2.5156,2.6335,2.7248,2.7291,2.7224,2.7085,2.6923,2.6657,2.6436,2.6245,2.6137,2.601,2.5811,2.5701,2.5605,2.5454,2.5301,2.5185,2.5185,2.5028,2.495,2.5045,2.495,2.4863,2.4902,2.4784,2.4135,2.288,2.2801,2.2074,2.0794,2.0794,2.0794,0.8896,1.0087,1.1373,0.0,1.2816,1.3911,1.4312,0.0,1.5583,1.5824,1.6205,1.6424,1.6244,1.612,1.6163,1.638,1.6497,1.671,1.7131,1.7516,1.7855,1.8082,1.8408,1.8664,1.8803,1.9192,1.95,1.9615,1.9919,2.0249,2.0602,2.0959,2.1362,2.1922,2.2184,2.2557,2.3106,2.3374,2.3832,2.4425,2.4865,2.5158,2.5318,2.5403,2.5425,2.5375,2.5434,2.5449,2.5444,2.5405,2.5337,2.5228,2.512,2.4989,2.4839,2.4714,2.4551,2.4407,2.4211,2.4098,2.3998,2.3795,2.3689,2.3642,2.3486,2.3348,2.3247,2.3175,2.3095,2.2952,2.2868,2.279,2.2712,2.2685,2.2959,2.3278,2.3386,2.3763,2.4425,2.553,2.6536,2.7201,2.7137,2.6973,2.6791,2.6556,2.6314,2.6101,2.5905,2.5738,2.5642,2.553,2.54,2.5301,2.5224,2.5107,2.5029,2.5029,2.5005,2.5005,2.5005,2.4942,2.4942,2.5005,2.5005,2.4325,2.288,2.288,2.2169,2.0794,2.0794,2.0794,0.0,0.0,1.1252,1.1544,1.2522,1.3651,0.0,0.0,1.5449,0.0,1.6559,1.6937,1.6664,1.6661,1.674,1.6993,1.7131,1.7325,1.7774,1.824,1.8592,1.8907,1.9266,1.9594,1.9778,2.0143,2.0431,2.0585,2.0943,2.1241,2.1573,2.1922,2.2293,2.271,2.2964,2.3312,2.3753,2.4116,2.4565,2.5101,2.5267,2.5387,2.5427,2.5437,2.5422,2.5369,2.541,2.5371,2.5291,2.5213,2.5079,2.4929,2.4812,2.4625,2.4437,2.4319,2.4155,2.3999,2.3855,2.3732,2.3624,2.344,2.3389,2.3342,2.3175,2.307,2.2995,2.2944,2.2842,2.2712,2.2632,2.2569,2.2511,2.2698,2.3073,2.3536,2.4028,2.4259,2.4712,2.5945,2.6567,2.6876,2.6809,2.664,2.6418,2.6189,2.5974,2.5791,2.5589,2.5416,2.5301,2.5301,2.5146,2.5068,2.5068,2.5005,2.4966,2.5005,2.4982,2.4942,2.4942,2.4806,2.4782,2.4846,2.4846,2.4288,2.3149,2.2975,2.2248,2.1079,2.0889,2.0889,0.0,0.9877,0.0,1.2002,1.2316,0.0,0.0,0.0,1.555,1.6177,1.6688,1.6987,1.6878,1.7332,1.7787,1.7908,1.8108,1.8369,1.8779,1.9132,1.9464,1.9793,2.0074,2.0333,2.0618,2.0943,2.121,2.1406,2.1766,2.2079,2.2426,2.276,2.3165,2.362,2.3832,2.41,2.4431,2.4912,2.5224,2.5371,2.5453,2.5484,2.5492,2.5362,2.5208,2.503,2.5152,2.5152,2.5007,2.4873,2.4714,2.4529,2.4368,2.421,2.4022,2.3959,2.3756,2.3522,2.3513,2.3389,2.3217,2.3126,2.3095,2.3003,2.2944,2.2816,2.2712,2.2712,2.2605,2.2515,2.2432,2.2405,2.2564,2.3202,2.33,2.3644,2.5249,2.5618,2.5807,2.6521,2.6641,2.6572,2.6453,2.6225,2.5974,2.5775,2.5567,2.5378,2.5185,2.513,2.5107,2.5045,2.5005,2.5005,2.5005,2.4902,2.4862,2.5005,2.4902,2.4822,2.4822,2.4686,2.4589,2.4539,2.4539,2.4302,2.386,2.3196,2.2517,2.1821,2.1126,2.1124,0.0,0.0,0.0,1.094,1.1955,1.2959,1.3609,1.4479,1.5327,1.5977,1.6507,1.7001,1.7403,1.7728,1.7955,1.8039,1.8664,1.9259,1.9626,2.0012,2.0436,2.0799,2.1147,2.1423,2.1703,2.199,2.2275,2.2496,2.2793,2.3082,2.3382,2.3637,2.3932,2.4279,2.4428,2.4676,2.5009,2.5219,2.5368,2.5466,2.5432,2.5385,2.5312,2.5069,2.4872,2.4672,2.4545,2.4561,2.4681,2.4482,2.4298,2.41,2.3964,2.3819,2.3667,2.3553,2.3417,2.3301,2.3223,2.3102,2.2995,2.2893,2.2764,2.2659,2.2605,2.2453,2.2309,2.2309,2.2271,2.2158,2.2118,2.202,2.2202,2.3273,2.3852,2.4447,2.5489,2.5948,2.6168,2.6229,2.6225,2.6154,2.5977,2.5864,2.568,2.5454,2.5301,2.5185,2.5029,2.5045,2.5045,2.5005,2.4942,2.4862,2.4862,2.4726,2.4686,2.4766,2.4686,2.4645,2.462,2.4385,2.4245,2.4261,2.4193,2.3979,2.3585,2.3427,2.3011,2.2332,2.1978,2.1957,0.9636,0.0,0.0,0.0,0.0,1.2467,1.2902,1.3837,1.4776,1.5415,1.6039,1.6677,1.7417,1.7765,1.8052,1.8281,1.8918,1.9617,2.0193,2.0604,2.1128,2.1797,2.2129,2.2426,2.271,2.294,2.3158,2.3422,2.3674,2.3913,2.4171,2.4323,2.4557,2.4822,2.4946,2.5118,2.5349,2.5417,2.5449,2.547,2.5349,2.5225,2.5057,2.4785,2.4538,2.4315,2.4062,2.4099,2.4283,2.4062,2.3885,2.3714,2.3584,2.3445,2.3319,2.3223,2.3144,2.302,2.2902,2.2773,2.2668,2.2544,2.2426,2.2315,2.2248,2.213,2.1998,2.1924,2.1866,2.1823,2.1721,2.1993,2.2459,2.3254,2.4229,2.5098,2.5438,2.5832,2.6101,2.5901,2.5791,2.5717,2.5626,2.5454,2.5317,2.5201,2.5045,2.491,2.4886,2.4886,2.4846,2.4846,2.4742,2.4661,2.4564,2.4467,2.4385,2.4385,2.4343,2.4302,2.4276,2.4036,2.3894,2.3809,2.3797,2.3613,2.331,2.3434,2.3266,2.2847,2.2463,2.2386,0.0,0.0,0.0,0.0,0.0,0.0,1.2437,0.0,1.3927,1.4568,1.5261,1.601,1.6851,1.7485,1.807,1.8692,1.8945,1.9404,2.0472,2.0827,2.1439,2.2663,2.297,2.3221,2.3602,2.3753,2.3914,2.4118,2.431,2.4504,2.4709,2.4835,2.5051,2.5297,2.5371,2.5421,2.55,2.5497,2.5457,2.5389,2.5178,2.4972,2.4776,2.45,2.4228,2.3963,2.3777,2.3753,2.3855,2.3588,2.3445,2.336,2.3241,2.3119,2.2995,2.2977,2.2868,2.2685,2.2605,2.247,2.226,2.2141,2.2039,2.1969,2.1882,2.184,2.1721,2.1554,2.1493,2.1462,2.1309,2.2328,2.3345,2.3115,2.4349,2.5492,2.5185,2.54,2.5663,2.5605,2.5432,2.5278,2.5378,2.5045,2.4822,2.4982,2.4751,2.4589,2.4589,2.4589,2.4564,2.4498,2.4457,2.4359,2.412,2.4009,2.3982,2.3982,2.3839,2.3797,2.3782,2.3653,2.348,2.3275,2.3275,2.3216,2.3083,2.3217,2.3293,2.3277,2.2515,2.2379,1.0047,0.0,0.0,0.0,0.0,0.0,0.0,0.0,1.3018,1.4352,1.4756,1.5287,1.6666,1.7049,1.7433,1.8247,1.9318,2.0246,2.0685,2.0982,2.158,2.2732,2.3015,2.3416,2.4253,2.4436,2.4586,2.4731,2.4891,2.5028,2.5119,2.5259,2.5366,2.5444,2.5467,2.5464,2.5431,2.5379,2.5271,2.51,2.4854,2.4606,2.4368,2.4043,2.3783,2.3548,2.3289,2.3182,2.3182,2.3206,2.3175,2.3077,2.2919,2.2816,2.2764,2.2605,2.2497,2.2371,2.2215,2.2073,2.1899,2.1735,2.1584,2.1479,2.1417,2.1276,2.115,2.1087,2.1023,2.0974,2.0876,2.189,2.2885,2.2755,2.3824,2.4871,2.4751,2.4831,2.495,2.5107,2.5045,2.4886,2.4831,2.471,2.4645,2.4661,2.4482,2.4343,2.4245,2.4219,2.4094,2.4009,2.3925,2.3767,2.3623,2.3595,2.3566,2.3494,2.3508,2.3465,2.3304,2.3157,2.3024,2.2889,2.2889,2.2844,2.2799,2.3127,2.3313,2.3298,2.3076,2.3063,0.0,0.0,0.0,0.0,0.0,0.0,1.0737,1.1292,1.2093,1.3035,1.3747,1.4616,1.591,1.6431,1.6943,1.7814,1.8994,2.0023,2.0713,2.0978,2.1522,2.2559,2.2788,2.3245,2.4252,2.4415,2.4659,2.5129,2.5271,2.5344,2.5379,2.5457,2.5488,2.5453,2.5429,2.5369,2.5284,2.5177,2.5011,2.4801,2.4548,2.4282,2.3984,2.3692,2.3445,2.3218,2.296,2.2816,2.2738,2.2764,2.279,2.279,2.2632,2.2508,2.2436,2.2287,2.2175,2.2061,2.1823,2.1645,2.1509,2.1308,2.1198,2.1087,2.1023,2.0925,2.0794,2.0728,2.0662,2.0644,2.061,2.1408,2.2285,2.245,2.3351,2.4166,2.4364,2.4369,2.4467,2.4726,2.4686,2.4564,2.4467,2.4385,2.4343,2.4343,2.4177,2.4036,2.3894,2.3824,2.3696,2.3523,2.3436,2.329,2.3143,2.3098,2.3068,2.3008,2.3038,2.3038,2.2904,2.2814,2.2723,2.2572,2.2572,2.2526,2.248,2.2934,2.3083,2.3038,2.3038,2.3038,0.0,0.0,0.0,0.0,0.0,0.0,1.0097,1.0643,1.1199,1.1284,1.2491,1.3791,1.4659,1.55,1.6324,1.719,1.8014,1.9027,2.0395,2.0785,2.1274,2.2208,2.2364,2.2805,2.3782,2.3895,2.4223,2.5075,2.5274,2.5396,2.5484,2.5495,2.5444,2.5387,2.5312,2.5209,2.5067,2.493,2.4714,2.4449,2.4247,2.3979,2.3667,2.3435,2.3193,2.2927,2.2738,2.2552,2.2415,2.2293,2.2321,2.2443,2.2377,2.2231,2.2039,2.1953,2.1823,2.1661,2.1417,2.1261,2.1103,2.0909,2.0811,2.0728,2.0693,2.066,2.0626,2.0423,2.0388,2.0373,2.0426,2.0973,2.1657,2.217,2.2863,2.3582,2.3983,2.4078,2.412,2.4359,2.4317,2.4219,2.4219,2.4094,2.3967,2.4036,2.3867,2.3653,2.3551,2.3421,2.3246,2.3038,2.3038,2.2934,2.2663,2.2663,2.2618,2.2555,2.2555,2.2555,2.2555,2.2555,2.2509,2.237,2.237,2.2324,2.2184,2.2632,2.2754,2.2663,2.2663,2.2632,0.0,0.0,0.0,0.0,0.0,0.0,1.01,1.0222,1.0528,1.1232,1.1636,1.2128,1.2949,1.3788,1.4647,1.552,1.6381,1.7491,1.9039,1.9947,2.0762,2.1657,2.1828,2.2204,2.3112,2.3205,2.3266,2.3444,2.4078,2.4742,2.5381,2.5428,2.536,2.5245,2.5111,2.5,2.4864,2.4666,2.4441,2.4174,2.3862,2.3602,2.3365,2.3003,2.2764,2.2579,2.2271,2.2084,2.2015,2.1857,2.1974,2.2169,2.2044,2.1882,2.1688,2.1509,2.1308,2.1134,2.0974,2.086,2.0744,2.0543,2.0475,2.0491,2.0407,2.0373,2.0339,2.0185,2.015,2.015,2.0096,2.0599,2.1271,2.1904,2.2574,2.3244,2.3731,2.3867,2.3839,2.3726,2.3797,2.3925,2.3925,2.3782,2.3653,2.3625,2.3392,2.3216,2.3068,2.2859,2.2692,2.2555,2.2555,2.2463,2.231,2.2402,2.2417,2.2278,2.237,2.237,2.2278,2.2278,2.2278,2.2231,2.2231,2.2231,2.2184,2.231,2.2356,2.2463,2.2463,2.2509,1.1856,0.0,0.0,1.1162,1.0876,0.0,0.0,1.0259,1.0116,1.0568,1.1007,1.1422,1.1837,1.2609,1.3473,1.4317,1.5218,1.6215,1.7438,1.8433,1.922,1.9654,1.9739,2.027,2.1581,2.1699,2.2043,2.2887,2.3291,2.3851,2.4656,2.463,2.4739,2.5043,2.485,2.4689,2.4554,2.4355,2.4116,2.3801,2.3518,2.3253,2.2995,2.2694,2.2426,2.2203,2.1957,2.1751,2.1601,2.1511,2.1479,2.1491,2.1554,2.1462,2.1229,2.1103,2.0958,2.0811,2.0677,2.0577,2.0525,2.0388,2.0354,2.0339,2.0304,2.027,2.015,2.001,1.994,1.994,1.9884,2.033,2.0956,2.1594,2.2239,2.2843,2.3331,2.3436,2.3392,2.3216,2.3216,2.329,2.3436,2.3334,2.3246,2.3216,2.3038,2.2844,2.2768,2.2601,2.2463,2.2324,2.2324,2.2278,2.2231,2.2278,2.2278,2.2184,2.2278,2.2278,2.2184,2.2184,2.2184,2.2184,2.2184,2.2184,2.2184,2.2184,2.2231,2.2324,2.2324,2.2324,0.0,0.0,0.0,1.223,1.1623,1.1005,0.0,0.0,0.0,0.9832,1.0515,1.1068,0.0,1.1733,1.2582,1.3099,1.3963,1.4793,1.544,1.6227,1.6995,1.7675,1.7751,1.8313,1.974,1.9887,2.0502,2.2016,2.2219,2.2621,2.3399,2.3622,2.3979,2.4563,2.4498,2.4371,2.4247,2.4019,2.3753,2.345,2.3206,2.2927,2.2632,2.2398,2.213,2.1794,2.1648,2.1433,2.1214,2.1103,2.0958,2.0828,2.1119,2.1039,2.0795,2.0761,2.0677,2.0592,2.0457,2.0354,2.0339,2.027,2.0235,2.0235,2.02,2.0115,1.996,1.9762,1.969,1.969,1.9603,2.002,2.0635,2.1277,2.1857,2.245,2.2937,2.3038,2.2994,2.2859,2.2709,2.2709,2.2979,2.2934,2.2859,2.2859,2.2709,2.2632,2.2555,2.2417,2.2324,2.2231,2.2184,2.2184,2.2184,2.2184,2.2184,2.2184,2.2184,2.2184,2.2184,2.2184,2.2184,2.2184,2.2184,2.2184,2.2184,2.2184,2.2184,2.2184,2.2184,2.2184,0.0,0.0,1.2038,1.1957,1.1339,1.074,1.074,0.0,0.9555,0.9536,0.0,1.0555,0.0,0.0,0.0,0.0,0.0,1.2651,1.2733,1.2845,1.4086,1.7238,1.7611,1.7727,1.7976,1.8011,1.8377,1.9292,1.9945,2.0638,2.1396,2.2712,2.3427,2.3377,2.395,2.4173,2.4056,2.3714,2.345,2.3223,2.2902,2.2642,2.2426,2.2044,2.1751,2.1524,2.1277,2.1087,2.0942,2.0679,2.0527,2.0478,2.0745,2.0728,2.0527,2.0475,2.0407,2.0339,2.0304,2.022,2.015,2.015,2.008,2.0005,1.9884,1.9797,1.969,1.9487,1.9347,1.9258,1.9213,1.9604,2.0244,2.0884,2.1524,2.2106,2.261,2.2754,2.2709,2.2646,2.2509,2.2495,2.2709,2.2678,2.2646,2.2646,2.2509,2.2417,2.2417,2.2324,2.2231,2.2184,2.2184,2.2184,2.2184,2.2184,2.2184,2.2184,2.2184,2.2184,2.2184,2.2184,2.2184,2.2184,2.2184,2.2184,2.2184,2.2184,2.2184,2.2184,2.2184,2.2184,0.0,1.416,1.3905,1.3832,1.2544,1.1266,1.1227,1.0279,0.951,0.9927,0.0,0.0,0.0,0.0,0.0,0.0,1.105,0.0,1.1939,1.205,1.2682,1.437,1.457,1.4794,1.5325,1.6686,1.7475,1.7335,1.8013,1.8957,2.017,2.0765,2.1668,2.2992,2.3179,2.3404,2.3714,2.3422,2.3157,2.2919,2.2571,2.2281,2.2044,2.1721,2.1417,2.115,2.0974,2.0794,2.0561,2.0426,2.0289,2.015,2.022,2.022,2.02,2.0181,2.0146,2.0146,2.0146,2.0025,1.9904,1.9869,1.9797,1.969,1.9596,1.9493,1.9384,1.9191,1.9116,1.915,1.9397,1.9918,2.0579,2.1197,2.183,2.2361,2.2483,2.254,2.2495,2.237,2.2324,2.2324,2.2402,2.2402,2.237,2.237,2.2324,2.2278,2.2278,2.2231,2.2184,2.2184,2.2184,2.2184,2.2184,2.2184,2.2184,2.2184,2.2184,2.2184,2.2184,2.2184,2.2184,2.2184,2.2184,2.2184,2.2184,2.2184,2.2184,2.2184,2.2184,2.2184,1.5148,1.5112,1.513,1.5057,1.3296,1.1576,1.1523,1.0486,0.9673,1.0215,1.0645,0.0,0.0,0.0,0.0,0.0,0.0,1.0392,0.0,1.1098,0.0,0.0,0.0,1.2572,1.321,1.4902,1.5819,1.5461,1.6116,1.7205,1.8748,1.9144,2.0285,2.2392,2.247,2.2769,2.3387,2.3133,2.2825,2.2517,2.2237,2.194,2.1631,2.1386,2.1135,2.0877,2.0712,2.0494,2.0235,2.0115,1.9975,1.9812,1.9617,1.9617,1.969,1.9797,1.9848,1.9863,1.9863,1.9741,1.9603,1.9581,1.9457,1.9384,1.9302,1.9213,1.9087,1.8941,1.8994,1.9198,1.9532,2.0258,2.0983,2.1424,2.2022,2.2463,2.237,2.237,2.2324,2.2231,2.2184,2.2184,2.2184,2.2184,2.2184,2.2184,2.2184,2.2184,2.2184,2.2184,2.2184,2.2184,2.2184,2.2184,2.2184,2.2184,2.2184,2.2184,2.2184,2.2184,2.2184,2.2184,2.2184,2.2184,2.2184,2.2184,2.2184,2.2184,2.2184,2.2184,2.2184,2.2184,1.4951,1.471,1.471,1.4641,1.2955,1.1309,1.1309,1.0664,1.0076,1.0093,1.1295,1.2094,0.0,0.0,0.0,0.0,0.0,0.0,0.0,0.0,0.0,0.0,0.0,0.0,0.0,1.2288,1.2687,1.343,1.4164,1.5252,1.6803,1.8299,1.9794,2.1305,2.1914,2.2503,2.3102,2.2868,2.2517,2.2124,2.1911,2.1648,2.1325,2.1039,2.0877,2.0794,2.0475,2.0235,2.008,1.9711,1.9457,1.9376,1.9064,1.8936,1.8974,1.9369,1.9472,1.9413,1.9413,1.931,1.9207,1.9124,1.9101,1.9101,1.9017,1.8927,1.8784,1.875,1.9033,1.9402,1.9431,2.033,2.1288,2.1316,2.178,2.2231,2.2231,2.2231,2.2231,2.2184,2.2184,2.2184,2.2184,2.2184,2.2184,2.2184,2.2184,2.2184,2.2184,2.2184,2.2184,2.2184,2.2184,2.2184,2.2184,2.2184,2.2184,2.2184,2.2184,2.2184,2.2184,2.2184,2.2184,2.2184,2.2184,2.2184,2.2184,2.2184,2.2184,2.2184,2.2184,2.2184,1.5923,1.5896,1.5818,1.5213,1.3765,1.2353,1.1864,1.1164,1.0767,1.1254,1.1769,1.2053,1.1786,0.0,0.0,0.0,0.0,0.0,0.0,0.0,0.0,0.0,0.0,0.0,0.0,1.1407,1.1966,1.17,1.2858,1.4041,1.508,1.652,1.8037,1.9593,2.0693,2.1557,2.2167,2.2384,2.2326,2.1969,2.1631,2.134,2.1039,2.086,2.0677,2.0475,2.0254,1.9995,1.9711,1.9508,1.9325,1.9176,1.8936,1.8784,1.8745,1.8959,1.9011,1.8988,1.8988,1.8974,1.8921,1.8898,1.8874,1.8827,1.8788,1.8711,1.8666,1.9049,1.9276,1.9572,2.0442,2.0992,2.1414,2.1823,2.203,2.2184,2.2184,2.2184,2.2184,2.2184,2.2184,2.2184,2.2184,2.2184,2.2184,2.2184,2.2184,2.2184,2.2184,2.2184,2.2184,2.2184,2.2184,2.2184,2.2184,2.2184,2.2184,2.2184,2.2184,2.2184,2.2184,2.2184,2.2184,2.2184,2.2184,2.2184,2.2184,2.2184,2.2184,2.2184,2.2184,2.2184,1.6324,1.6281,1.6171,1.5589,1.4153,1.2758,1.2284,1.163,1.1254,1.1744,1.2073,1.2254,1.2271,0.0,0.0,0.0,0.0,0.0,0.0,0.8811,0.0,0.0,0.0,0.0,0.0,1.0374,1.0937,1.072,1.161,1.2765,0.0,1.5297,1.6779,1.8605,1.9973,2.097,2.1547,2.199,2.2056,2.1721,2.1355,2.1007,2.0745,2.061,2.0407,2.0166,1.9975,1.9711,1.942,1.925,1.9078,1.8889,1.8683,1.8514,1.8422,1.8553,1.8592,1.8606,1.863,1.863,1.863,1.8683,1.8659,1.8634,1.8634,1.8556,1.8644,1.9221,1.9558,2.0007,2.1048,2.1471,2.1738,2.2086,2.2184,2.2184,2.2184,2.2184,2.2184,2.2184,2.2184,2.2184,2.2184,2.2184,2.2184,2.2184,2.2184,2.2184,2.2184,2.2184,2.2184,2.2184,2.2184,2.2184,2.2184,2.2184,2.2184,2.2184,2.2184,2.2184,2.2184,2.2184,2.2184,2.2184,2.2184,2.2184,2.2184,2.2184,2.2184,2.2184,2.2184,2.2184]},{"header":{"parameterUnit":"m.s-1","parameterCategory":1,"la1":30.6,"la2":29.2853,"lo1":-89.7004,"lo2":-87.6739,"dy":0.0162,"dx":0.0183,"nx":112,"ny":82,"refTime":"2024-10-09T12:00:00:Z","depth":0,"parameterNumber":3,"parameterNumberName":"V-component_of_WINDS"},"data":[0.0,0.0,0.0,0.0,0.0,0.0,0.0,0.0,0.0,0.0,0.0,0.0,0.0,0.0,0.0,0.0,0.0,0.0,0.0,0.0,0.0,0.0,0.0,0.0,0.0,0.0,0.0,0.0,0.0,0.0,0.0,0.0,0.0,0.0,0.0,0.0,0.0,0.0,0.0,0.0,0.0,0.0,0.0,0.0,0.0,0.0,0.0,0.0,0.0,0.0,0.0,0.0,0.0,0.0,0.0,0.0,0.0,0.0,0.0,0.0,0.0,0.0,0.0,0.0,0.0,0.0,0.0,0.0,0.0,0.0,0.0,0.0,0.0,0.0,0.0,0.0,0.0,0.0,0.0,0.0,0.0,0.0,0.0,0.0,0.0,0.0,0.0,0.0,0.0,0.0,-0.5358,-0.5874,-0.6293,-0.6413,-0.6098,-0.5209,-0.4502,-0.4086,0.0,0.0,0.0,0.0,0.0,0.0,0.0,0.0,0.0,0.0,0.0,0.0,0.0,0.0,0.0,0.0,0.0,0.0,0.0,0.0,0.0,0.0,0.0,0.0,0.0,0.0,0.0,0.0,0.0,0.0,0.0,0.0,0.0,0.0,0.0,0.0,0.0,0.0,0.0,0.0,0.0,0.0,0.0,0.0,0.0,0.0,0.0,0.0,0.0,0.0,0.0,0.0,0.0,0.0,0.0,0.0,0.0,0.0,0.0,0.0,0.0,0.0,0.0,0.0,0.0,0.0,0.0,0.0,0.0,0.0,0.0,0.0,0.0,0.0,0.0,0.0,0.0,0.0,0.0,0.0,0.0,0.0,0.0,0.0,0.0,0.0,0.0,0.0,0.0,0.0,0.0,0.0,0.0,0.0,0.0,0.0,0.0,0.0,0.0,0.0,0.0,0.0,0.0,0.0,-0.577,-0.642,-0.6394,-0.6237,-0.5944,-0.5121,-0.4391,-0.3876,0.0,0.0,0.0,0.0,0.0,0.0,0.0,0.0,0.0,0.0,0.0,0.0,0.0,0.0,0.0,0.0,0.0,0.0,0.0,0.0,0.0,0.0,0.0,0.0,0.0,0.0,0.0,0.0,0.0,0.0,0.0,0.0,0.0,0.0,0.0,0.0,0.0,0.0,0.0,0.0,0.0,0.0,0.0,0.0,0.0,0.0,0.0,0.0,0.0,0.0,0.0,0.0,0.0,0.0,0.0,0.0,0.0,0.0,0.0,0.0,0.0,0.0,0.0,0.0,0.0,0.0,0.0,0.0,0.0,0.0,0.0,0.0,0.0,0.0,0.0,0.0,0.0,0.0,0.0,0.0,0.0,0.0,0.0,0.0,0.0,0.0,0.0,0.0,0.0,0.0,0.0,0.0,0.0,0.0,0.0,0.0,0.0,0.0,0.0,0.0,0.0,0.0,0.0,-0.5078,-0.5543,-0.6219,-0.6114,-0.5936,-0.5665,-0.4924,-0.4243,-0.3613,-0.2704,0.0,0.0,0.0,0.0,0.0,0.0,0.0,0.0,0.0,0.0,0.0,0.0,0.0,0.0,0.0,0.0,0.0,0.0,0.0,0.0,0.0,0.0,0.0,0.0,0.0,0.0,0.0,0.0,0.0,0.0,0.0,0.0,0.0,0.0,0.0,0.0,0.0,0.0,0.0,0.0,0.0,0.0,0.0,0.0,0.0,0.0,0.0,0.0,0.0,0.0,0.0,0.0,0.0,0.0,0.0,0.0,0.0,0.0,0.0,0.0,0.0,0.0,0.0,0.0,0.0,0.0,0.0,0.0,0.0,0.0,0.0,0.0,0.0,0.0,0.0,0.0,0.0,0.0,0.0,0.0,0.0,0.0,0.0,0.0,0.0,0.0,0.0,0.0,0.0,0.0,0.0,0.0,0.0,0.0,0.0,0.0,0.0,0.0,0.0,0.0,0.0,0.0,-0.504,-0.5273,-0.5922,-0.5874,-0.5655,-0.539,-0.472,-0.4043,-0.3363,-0.2457,0.0,0.0,0.0,0.0,0.0,0.0,0.0,0.0,0.0,0.0,0.0,0.0,0.0,0.0,0.0,0.0,0.0,0.0,0.0,0.0,0.0,0.0,0.0,0.0,0.0,0.0,0.0,0.0,0.0,0.0,0.0,0.0,0.0,0.0,0.0,0.0,0.0,0.0,0.0,0.0,0.0,0.0,0.0,0.0,0.0,0.0,0.0,0.0,0.0,0.0,0.0,0.0,0.0,0.0,0.0,0.0,0.0,0.0,0.0,0.0,0.0,0.0,0.0,0.0,0.0,0.0,0.0,0.0,0.0,0.0,0.0,0.0,0.0,0.0,0.0,0.0,0.0,0.0,0.0,0.0,0.0,0.0,0.0,0.0,0.0,0.0,0.0,0.0,0.0,0.0,0.0,0.0,0.0,0.0,0.0,0.0,0.0,0.0,0.0,0.0,0.0,0.0,-0.5006,-0.5273,-0.5922,-0.5826,-0.5606,-0.534,-0.4575,-0.3842,-0.3163,-0.2245,0.0,0.0,0.0,0.0,0.0,0.0,0.0,0.0,0.0,0.0,0.0,0.0,0.0,0.0,0.0,0.0,0.0,0.0,0.0,0.0,0.0,0.0,0.0,0.0,0.0,0.0,0.0,0.0,0.0,0.0,0.0,0.0,0.0,0.0,0.0,0.0,0.0,0.0,0.0,0.0,0.0,0.0,0.0,0.0,0.0,0.0,0.0,0.0,0.0,0.0,0.0,0.0,0.0,0.0,0.0,0.0,0.0,0.0,0.0,0.0,0.0,0.0,0.0,0.0,0.0,0.0,0.0,0.0,0.0,0.0,0.0,0.0,0.0,0.0,0.0,0.0,0.0,0.0,0.0,0.0,0.0,0.0,0.0,0.0,0.0,0.0,0.0,0.0,0.0,0.0,0.0,0.0,0.0,0.0,0.0,0.0,0.0,0.0,0.0,0.0,0.0,0.0,-0.4755,-0.5001,-0.5614,-0.5536,-0.5316,-0.4998,-0.4369,-0.3646,-0.2887,0.0,0.0,0.0,0.0,0.0,0.0,0.0,0.0,0.0,0.0,0.0,0.0,0.0,0.0,0.0,0.0,0.0,0.0,0.0,0.0,0.0,0.0,0.0,0.0,0.0,0.0,0.0,0.0,0.0,0.0,0.0,0.0,0.0,0.0,0.0,0.0,0.0,0.0,0.0,0.0,0.0,0.0,0.0,0.0,0.0,0.0,0.0,0.0,0.0,0.0,0.0,0.0,0.0,0.0,0.0,0.0,0.0,0.0,0.0,0.0,0.0,0.0,0.0,0.0,0.0,0.0,0.0,0.0,0.0,0.0,0.0,0.0,0.0,0.0,0.0,0.0,0.0,0.0,0.0,0.0,0.0,0.0,0.0,0.0,0.0,0.0,0.0,0.0,0.0,0.0,0.0,0.0,0.0,0.0,0.0,0.0,0.0,0.0,0.0,0.0,0.0,0.0,-0.4412,-0.4501,-0.4726,-0.5297,-0.5271,-0.5055,-0.4736,-0.4118,-0.3426,-0.2727,0.0,0.0,0.0,0.0,0.0,0.0,0.0,0.0,0.0,0.0,0.0,0.0,0.0,0.0,0.0,0.0,0.0,0.0,0.0,0.0,0.0,0.0,0.0,0.0,0.0,0.0,0.0,0.0,0.0,0.0,0.0,0.0,0.0,0.0,0.0,0.0,0.0,0.0,0.0,0.0,0.0,0.0,0.0,0.0,0.0,0.0,0.0,0.0,0.0,0.0,0.0,0.0,0.0,0.0,0.0,0.0,0.0,0.0,0.0,0.0,0.0,0.0,0.0,0.0,0.0,0.0,0.0,0.0,0.0,0.0,0.0,0.0,0.0,0.0,0.0,0.0,0.0,0.0,0.0,0.0,0.0,0.0,0.0,0.0,0.0,0.0,0.0,0.0,0.0,0.0,0.0,0.0,0.0,0.0,0.0,0.0,0.0,0.0,0.0,0.0,0.0,0.0,-0.4173,-0.4283,-0.4499,-0.5035,-0.5049,-0.4858,-0.4526,-0.3812,-0.3163,0.0,0.0,0.0,0.0,0.0,0.0,0.0,0.0,0.0,0.0,0.0,0.0,0.0,0.0,0.0,0.0,0.0,0.0,0.0,0.0,0.0,0.0,0.0,0.0,0.0,0.0,0.0,0.0,0.0,0.0,0.0,0.0,0.0,0.0,0.0,0.0,0.0,0.0,0.0,0.0,0.0,0.0,0.0,0.0,0.0,0.0,0.0,0.0,0.0,0.0,0.0,0.0,0.0,0.0,0.0,0.0,0.0,0.0,0.0,0.0,0.0,0.0,0.0,0.0,0.0,0.0,0.0,0.0,0.0,0.0,0.0,0.0,0.0,0.0,0.0,0.0,0.0,0.0,0.0,0.0,0.0,0.0,0.0,0.0,0.0,0.0,0.0,0.0,0.0,0.0,0.0,0.0,0.0,0.0,0.0,0.0,0.0,0.0,0.0,0.0,0.0,0.0,0.0,-0.3736,-0.398,-0.4208,-0.4555,-0.4641,-0.4538,-0.4253,-0.3491,-0.2832,-0.2362,0.0,0.0,0.0,0.0,0.0,0.0,0.0,0.0,0.0,0.0,0.0,0.0,0.0,0.0,0.0,0.0,0.0,0.0,0.0,0.0,0.0,0.0,0.0,0.0,0.0,0.0,0.0,0.0,0.0,0.0,0.0,0.0,0.0,0.0,0.0,0.0,0.0,0.0,0.0,0.0,0.0,0.0,0.0,0.0,0.0,0.0,0.0,0.0,0.0,0.0,0.0,0.0,0.0,0.0,0.0,0.0,0.0,0.0,0.0,0.0,0.0,0.0,0.0,0.0,0.0,0.0,0.0,0.0,0.0,0.0,0.0,0.0,0.0,0.0,0.0,0.0,0.0,0.0,0.0,0.0,0.0,0.0,0.0,0.0,0.0,0.0,0.0,0.0,0.0,0.0,0.0,0.0,0.0,0.0,0.0,0.0,0.0,0.0,0.0,0.0,0.0,0.0,-0.3412,-0.37,-0.3959,-0.4223,-0.4351,-0.4274,-0.3966,-0.3257,-0.2637,-0.2197,0.0,0.0,0.0,0.0,0.0,0.0,0.0,0.0,0.0,0.0,0.0,0.0,0.0,0.0,0.0,0.0,0.0,0.0,0.0,0.0,0.0,0.0,0.0,0.0,0.0,0.0,0.0,0.0,0.0,0.0,0.0,0.0,0.0,0.0,0.0,0.0,0.0,0.0,0.0,0.0,0.0,0.0,0.0,0.0,0.0,0.0,0.0,0.0,0.0,0.0,0.0,0.0,0.0,0.0,0.0,0.0,0.0,0.0,0.0,0.0,0.0,0.0,0.0,0.0,0.0,0.0,0.0,0.0,0.0,0.0,0.0,0.0,0.0,0.0,0.0,0.0,0.0,0.0,0.0,0.0,0.0,0.0,0.0,0.0,0.0,0.0,0.0,0.0,0.0,0.0,0.0,0.0,0.0,0.0,0.0,0.0,0.0,0.0,0.0,0.0,0.0,0.0,-0.3199,-0.3526,-0.3744,-0.397,-0.4144,-0.4086,-0.37,-0.3048,-0.25,-0.2093,0.0,0.0,0.0,0.0,0.0,0.0,0.0,0.0,0.0,0.0,0.0,0.0,0.0,0.0,0.0,0.0,0.0,0.0,0.0,0.0,0.0,0.0,0.0,0.0,0.0,0.0,0.0,0.0,0.0,0.0,0.0,0.0,0.0,0.0,0.0,0.0,0.0,0.0,0.0,0.0,0.0,0.0,0.0,0.0,0.0,0.0,0.0,0.0,0.0,0.0,0.0,0.0,0.0,0.0,0.0,0.0,0.0,0.0,0.0,0.0,-0.8381,-0.7963,0.0,0.0,0.0,0.0,0.0,0.0,0.0,0.0,0.0,0.0,0.0,0.0,0.0,0.0,0.0,0.0,0.0,0.0,0.0,0.0,0.0,0.0,0.0,0.0,0.0,0.0,0.0,0.0,0.0,0.0,0.0,0.0,0.0,0.0,0.0,0.0,0.0,0.0,0.0,0.0,-0.307,-0.3371,-0.3612,-0.3812,-0.392,-0.3821,-0.3425,-0.2812,-0.228,-0.1811,-0.1226,0.0,0.0,0.0,0.0,0.0,0.0,0.0,0.0,0.0,0.0,0.0,0.0,0.0,0.0,0.0,0.0,0.0,0.0,0.0,0.0,0.0,0.0,0.0,0.0,0.0,0.0,0.0,0.0,0.0,0.0,0.0,0.0,0.0,0.0,0.0,0.0,0.0,0.0,0.0,0.0,0.0,0.0,0.0,0.0,0.0,0.0,0.0,0.0,0.0,0.0,0.0,0.0,0.0,0.0,0.0,0.0,0.0,0.0,0.0,-1.041,-0.9311,0.0,0.0,0.0,0.0,0.0,0.0,0.0,0.0,0.0,0.0,0.0,0.0,0.0,0.0,0.0,0.0,0.0,0.0,0.0,0.0,0.0,0.0,0.0,0.0,0.0,0.0,0.0,0.0,0.0,0.0,0.0,0.0,0.0,0.0,0.0,0.0,0.0,0.0,0.0,0.0,-0.3101,-0.3467,-0.3706,-0.3793,-0.3794,-0.3663,-0.3298,-0.2706,-0.2157,-0.173,-0.1218,0.0,0.0,0.0,0.0,0.0,0.0,0.0,0.0,0.0,0.0,0.0,0.0,0.0,0.0,0.0,0.0,0.0,0.0,0.0,0.0,0.0,0.0,0.0,0.0,0.0,0.0,0.0,0.0,0.0,0.0,0.0,0.0,0.0,0.0,0.0,0.0,0.0,0.0,0.0,0.0,0.0,0.0,0.0,0.0,0.0,0.0,0.0,0.0,0.0,0.0,0.0,0.0,0.0,-1.3968,-1.446,-1.5448,-1.5551,-1.5534,-1.5221,-1.287,-1.1242,-1.0241,-1.0039,0.0,0.0,0.0,0.0,0.0,0.0,0.0,0.0,0.0,0.0,0.0,0.0,0.0,0.0,0.0,0.0,0.0,0.0,0.0,0.0,0.0,0.0,-0.5739,-0.6245,-0.6172,-0.5739,-0.4716,0.0,0.0,0.0,0.0,0.0,0.0,0.0,0.0,0.0,0.0,0.0,-0.3275,-0.365,-0.3884,-0.3831,-0.3756,-0.3541,-0.3175,-0.2627,-0.2127,-0.1736,-0.1278,-0.0917,0.0,0.0,0.0,0.0,0.0,0.0,0.0,0.0,0.0,0.0,0.0,0.0,0.0,0.0,0.0,0.0,0.0,0.0,0.0,0.0,0.0,0.0,0.0,0.0,0.0,0.0,0.0,0.0,0.0,0.0,0.0,0.0,-0.9236,-1.0702,0.0,0.0,0.0,0.0,0.0,0.0,0.0,0.0,0.0,0.0,0.0,0.0,0.0,-1.3372,-1.3937,-1.4466,-1.5093,-1.586,-1.5735,-1.5743,-1.5926,-1.6338,-1.6486,-1.6408,-1.6346,0.0,-1.3177,-1.254,0.0,0.0,0.0,0.0,0.0,0.0,0.0,0.0,0.0,0.0,0.0,0.0,0.0,0.0,0.0,0.0,0.0,0.0,0.0,0.0,0.0,0.0,-0.6881,-0.696,-0.6952,-0.682,-0.6512,-0.5445,-0.4499,-0.4198,-0.356,-0.3003,0.0,0.0,0.0,0.0,0.0,0.0,-0.3661,-0.3767,-0.3852,-0.396,-0.3816,-0.3504,-0.297,-0.2533,-0.2136,-0.173,-0.1317,-0.1012,-0.0858,-0.062,0.0,0.0,0.0,0.0,0.0,0.0,0.0,0.0,0.0,0.0,0.0,0.0,0.0,0.0,0.0,0.0,0.0,0.0,0.0,0.0,0.0,0.0,0.0,0.0,0.0,0.0,0.0,0.0,0.0,-0.8809,-1.0135,-1.1244,-1.107,-1.0867,0.0,0.0,0.0,0.0,0.0,0.0,0.0,0.0,0.0,-1.4206,-1.5168,-1.5951,-1.6479,-1.6628,-1.7176,-1.8125,-1.802,-1.8161,-1.8547,-1.8729,-1.877,-1.8606,-1.8774,-1.797,-1.6451,-1.5034,-1.397,-1.3183,0.0,0.0,0.0,0.0,-1.1701,-1.1817,-1.1494,-1.1211,-1.0866,-1.0212,0.0,0.0,0.0,0.0,0.0,0.0,0.0,-0.7119,-0.7678,-0.8014,-0.8254,-0.846,-0.8324,-0.8061,-0.785,-0.6929,-0.5868,-0.4922,-0.4276,-0.3749,-0.3361,-0.318,0.0,0.0,0.0,-0.361,-0.3876,-0.4047,-0.4135,-0.4172,-0.3863,-0.3471,-0.3035,-0.2579,-0.2128,-0.1723,-0.138,-0.112,-0.0965,-0.0701,-0.0487,0.0,0.0,0.0,0.0,0.0,0.0,0.0,0.0,0.0,0.0,0.0,0.0,0.0,0.0,0.0,0.0,0.0,0.0,0.0,0.0,0.0,0.0,0.0,0.0,0.0,0.0,0.0,0.0,-1.0581,-1.1531,-1.2354,-1.2455,-1.2424,0.0,0.0,0.0,0.0,0.0,0.0,-1.5104,-1.5937,-1.655,-1.6986,-1.7623,-1.8251,-1.8784,-1.8593,-1.9052,-2.0146,-2.0036,-2.0273,-2.0745,-2.0712,-2.0597,-2.0413,-2.0292,-1.9775,-1.8955,-1.7223,-1.6004,-1.5226,-1.4975,-1.4795,-1.466,-1.4313,-1.4083,-1.3855,-1.3551,-1.3204,-1.2743,-1.1984,-1.1347,-1.0701,-0.9426,0.0,0.0,0.0,0.0,-0.8362,-0.8922,-0.917,-0.9326,-0.9549,-0.9313,-0.8988,-0.8803,-0.8162,-0.7161,-0.5737,-0.5055,-0.4523,-0.3887,-0.3677,0.0,-0.3667,-0.3842,-0.4009,-0.411,-0.4308,-0.4382,-0.4312,-0.3973,-0.3586,-0.3175,-0.2706,-0.2266,-0.1798,-0.1481,-0.1229,-0.1095,-0.0851,-0.064,-0.0419,0.0,0.0,0.0,0.0,0.0,0.0,0.0,0.0,0.0,0.0,0.0,0.0,0.0,0.0,0.0,0.0,0.0,0.0,0.0,0.0,0.0,0.0,0.0,0.0,0.0,0.0,0.0,0.0,0.0,-1.4902,-1.5003,0.0,0.0,0.0,0.0,-1.557,-1.6329,-1.7067,-1.777,-1.8584,-1.8967,-1.8856,-1.9495,-2.0135,-2.0666,-2.0532,-2.0842,-2.1598,-2.1444,-2.143,-2.1462,-2.134,-2.1135,-2.0942,-2.0697,-2.0398,-2.0032,-1.8862,-1.7832,-1.6905,-1.6203,-1.6064,-1.6186,-1.5483,-1.5389,-1.5507,-1.5119,-1.4764,-1.4377,-1.3828,-1.2844,-1.1683,-1.0777,-1.0156,0.0,0.0,-0.9891,-0.9752,-1.0036,-0.993,-0.9727,-0.9614,-0.949,-0.9374,-0.9298,-0.8791,-0.7989,-0.6673,-0.5847,-0.5187,-0.464,0.0,-0.417,-0.417,-0.4187,-0.425,-0.4439,-0.4479,-0.4452,-0.4312,-0.4277,-0.3975,-0.3253,-0.3009,-0.2609,-0.2011,-0.154,-0.1307,-0.1292,-0.1163,-0.0894,-0.0505,-0.0419,0.0,0.0,0.0,0.0,0.0,0.0,0.0,0.0,0.0,0.0,0.0,0.0,0.0,0.0,0.0,0.0,0.0,0.0,0.0,0.0,0.0,0.0,0.0,0.0,0.0,0.0,0.0,0.0,-1.6657,-1.687,0.0,-1.7434,-1.7435,-1.7665,-1.8248,-1.858,-1.9028,-1.9703,-2.0489,-2.0906,-2.0794,-2.1412,-2.1797,-2.1973,-2.1775,-2.177,-2.1969,-2.1895,-2.1836,-2.1764,-2.1721,-2.157,-2.1371,-2.1182,-2.0958,-2.0599,-2.018,-1.9459,-1.8605,-1.8243,-1.8086,-1.8016,-1.7641,-1.7398,-1.7231,-1.6824,-1.641,-1.591,-1.4838,-1.3719,-1.2677,-1.2137,-1.1552,-1.1049,-1.0817,-1.0794,-1.0757,-1.0667,-1.0702,-1.0727,-1.0589,-1.0197,-0.9835,-0.9747,-0.9245,-0.8565,-0.7788,-0.6766,-0.5807,-0.5317,-0.5057,-0.4894,-0.4894,-0.4935,-0.5004,-0.5062,-0.5074,-0.5038,-0.4955,-0.4708,-0.432,-0.3695,-0.3241,-0.273,-0.2161,-0.1682,-0.1403,-0.1307,-0.1101,-0.0889,-0.0703,-0.0504,-0.0182,0.0,0.0,0.0,0.0,0.0,0.0,0.0,0.0,0.0,0.0,0.0,0.0,0.0,0.0,0.0,0.0,0.0,0.0,0.0,0.0,0.0,0.0,0.0,0.0,0.0,-1.5196,-1.6458,-1.8372,-1.8857,-1.9183,-1.9632,-1.9648,-1.9874,-2.0533,-2.0545,-2.0855,-2.1534,-2.2084,-2.2341,-2.2258,-2.2641,-2.2799,-2.2747,-2.2581,-2.2456,-2.2364,-2.2364,-2.2309,-2.2215,-2.2158,-2.2015,-2.1781,-2.1631,-2.1401,-2.1135,-2.099,-2.0545,-1.9929,-1.9654,-1.9339,-1.9093,-1.8903,-1.862,-1.8282,-1.7679,-1.724,-1.6727,-1.5618,-1.4662,-1.3916,-1.3455,-1.2887,-1.2308,-1.1856,-1.1696,-1.1595,-1.1345,-1.1286,-1.1276,-1.1175,-1.0781,-1.0352,-1.0269,-0.9738,-0.9211,-0.8681,-0.7599,-0.6596,-0.603,-0.5719,-0.5515,-0.5427,-0.5452,-0.5458,-0.5458,-0.5421,-0.5383,-0.5303,-0.5034,-0.4582,-0.4004,-0.3436,-0.2878,-0.2293,-0.177,-0.1449,-0.1313,-0.1071,-0.0926,-0.0811,-0.0451,-0.0048,0.037,0.0,0.0,0.0,0.0,0.0,0.0,0.0,0.0,0.0,0.0,0.0,0.0,0.0,0.0,0.0,0.0,0.0,0.0,0.0,0.0,0.0,0.0,0.0,-1.5546,-1.7559,-1.9362,-2.0174,-2.0987,-2.1438,-2.1474,-2.1359,-2.1583,-2.2289,-2.2299,-2.2549,-2.3277,-2.3313,-2.3289,-2.3217,-2.3144,-2.3077,-2.302,-2.2944,-2.2919,-2.2919,-2.2919,-2.2893,-2.2816,-2.2659,-2.248,-2.2192,-2.2027,-2.1797,-2.1589,-2.1341,-2.1087,-2.0861,-2.0254,-1.9741,-1.9302,-1.9176,-1.8927,-1.8581,-1.7814,-1.724,-1.6791,-1.6219,-1.5712,-1.522,-1.4754,-1.415,-1.3563,-1.3112,-1.2696,-1.2274,-1.2126,-1.1728,-1.1326,-1.1318,-1.1124,-1.0871,-1.0777,-1.035,-0.9856,-0.9308,-0.8421,-0.751,-0.6778,-0.6375,-0.6028,-0.5687,-0.5639,0.0,-0.5639,-0.552,-0.5407,-0.5326,-0.519,-0.4828,-0.4073,-0.3659,-0.3128,-0.2444,-0.1836,-0.1449,-0.1313,-0.1176,-0.1012,-0.0799,-0.0272,0.022,0.0681,0.0,0.0,0.0,0.0,0.0,0.0,0.0,0.0,0.0,0.0,0.0,0.0,0.0,0.0,0.0,0.0,0.0,0.0,0.0,0.0,0.0,-1.7653,-1.8449,-1.8179,-1.9226,-2.0517,-2.186,-2.2205,-2.2569,-2.3148,-2.3182,-2.3252,-2.343,-2.3401,-2.3444,-2.3638,-2.3611,-2.3589,-2.3567,-2.3499,-2.3453,-2.3448,-2.336,-2.3289,-2.3193,-2.3193,-2.3102,-2.2927,-2.2919,-2.2773,-2.2561,-2.2453,-2.2243,-2.194,-2.1781,-2.1509,-2.1151,-2.0512,-2.01,-1.9854,-1.9617,-1.9161,-1.8567,-1.8135,-1.7611,-1.7031,-1.6522,-1.612,-1.5724,-1.5153,-1.4651,-1.4197,-1.361,-1.3122,-1.2735,-1.2323,-1.2076,-1.1828,-1.1628,-1.1377,-1.1175,-1.1124,-1.0746,-1.0277,-0.9862,-0.9168,-0.8351,-0.7404,-0.7144,-0.6978,-0.6769,-0.6599,-0.6428,-0.6329,-0.6127,-0.589,-0.5677,-0.5487,-0.5159,-0.4637,-0.3962,-0.3291,-0.2724,-0.1978,-0.1479,-0.1313,-0.1131,-0.0921,-0.0719,-0.0306,0.0108,0.0,0.0,0.0,0.0,0.0,0.0,0.0,0.0,0.0,0.0,0.0,0.0,0.0,0.0,0.0,0.0,0.0,0.0,0.0,0.0,0.0,0.0,-1.9732,-2.0826,-2.0982,-2.1285,-2.1953,-2.3177,-2.3342,-2.3506,-2.402,-2.4037,-2.4037,-2.4057,-2.3994,-2.3912,-2.3891,-2.3786,-2.3743,-2.3743,-2.3696,-2.3652,-2.3652,-2.3589,-2.3544,-2.3476,-2.3476,-2.3407,-2.3241,-2.3217,-2.3095,-2.2902,-2.2816,-2.2615,-2.2337,-2.2153,-2.1895,-2.1554,0.0,0.0,0.0,0.0,-1.942,-1.886,-1.8489,-1.8002,-1.7434,-1.6934,-1.6522,-1.612,-1.5534,-1.5108,-1.4708,-1.4186,-1.3658,-1.317,-1.2793,-1.2412,-1.2126,-1.1927,-1.1628,-1.1377,-1.1318,-1.1023,-1.0616,-1.0154,-0.9738,0.0,-0.8267,-0.7736,-0.7385,-0.72,-0.7072,-0.688,-0.6623,-0.6437,-0.6171,-0.5841,-0.5583,-0.528,-0.4927,-0.4105,0.0,0.0,0.0,-0.151,-0.1212,-0.101,0.0,0.0,0.0,0.0,0.0,0.0,0.0,0.0,0.0921,0.0995,0.0,0.0,0.0,0.0,0.0,0.0,0.0,0.0,0.0,0.0,0.0,0.0,0.0,0.0,0.0,0.0,-2.1587,-2.2822,-2.3549,-2.3396,-2.3472,-2.4155,-2.4228,-2.4247,-2.4303,-2.4284,-2.4266,-2.4321,-2.4209,-2.4113,-2.4036,-2.3912,0.0,0.0,0.0,-2.3721,-2.3721,-2.3721,-2.3721,-2.37,-2.37,-2.3696,-2.3607,-2.3562,-2.3407,-2.3241,-2.3119,-2.2944,-2.2738,-2.2483,-2.2248,-2.2039,-2.1306,-2.0828,-2.0478,-2.005,-1.9696,-1.9362,-1.886,0.0,0.0,-1.7434,-1.6947,-1.6466,-1.6008,-1.5534,-1.5108,-1.4754,-1.4186,-1.361,-1.3314,-1.2793,-1.2323,-1.2175,-1.1828,-1.1528,-1.1368,-1.1226,-1.0964,-1.0403,-1.0154,-0.9844,-0.9166,-0.8263,-0.7534,-0.734,-0.7267,-0.7062,-0.673,-0.6516,-0.6214,-0.5853,-0.5512,0.0,-0.5009,-0.4243,-0.3575,-0.3183,-0.2259,-0.1516,-0.11,-0.0905,-0.0771,-0.07,-0.0449,-0.022,0.0063,0.018,0.0451,0.0793,0.1006,0.1034,0.0,0.0,0.0,0.0,0.0,0.0,0.0,0.0,0.0,0.0,0.0,0.0,0.0,0.0,0.0,-2.2848,-2.3353,-2.3796,-2.4534,-2.4577,-2.4485,-2.4372,-2.4355,-2.4391,-2.4461,-2.4497,-2.453,-2.453,-2.4411,-2.4303,-2.4247,-2.4095,-2.4014,-2.3955,-2.3894,-2.3834,-2.3774,-2.3774,-2.3789,-2.3783,-2.3783,0.0,-2.3678,-2.3656,-2.3611,-2.3517,-2.3448,-2.3289,-2.3095,-2.2876,-2.2473,-2.1953,-2.1524,-2.1119,-2.0811,-2.0478,-2.0085,-1.966,-1.9244,-1.8808,-1.8305,-1.7787,-1.7352,-1.6934,-1.6355,-1.5964,0.0,-1.5153,-1.4651,-1.4093,-1.3515,-1.3035,-1.2618,-1.2323,-1.2026,-1.1778,-1.1669,-1.1418,-1.1175,-1.082,-1.0462,-1.0043,-0.9569,-0.8899,-0.8313,-0.8059,-0.7611,-0.7253,-0.7112,-0.6605,-0.6151,-0.5925,-0.5528,-0.5198,-0.5029,-0.4499,-0.3996,-0.3541,-0.2419,-0.1585,-0.1134,-0.0919,-0.0757,-0.0691,-0.0612,-0.0424,-0.0212,-0.0073,0.0037,0.0188,0.0819,0.1101,0.0,0.0,0.0,0.0,0.0,0.0,0.0,0.0,0.0,0.0,0.0,-1.9679,-2.0118,0.0,-2.2977,-2.382,-2.4263,-2.4636,-2.5,-2.4993,-2.487,-2.4626,-2.4594,-2.461,-2.4645,-2.4679,-2.4695,-2.4695,-2.4615,-2.4513,-2.4461,-2.4321,-2.421,-2.4153,-2.4056,-2.3937,-2.3837,-2.3816,-2.3813,-2.381,-2.381,-2.3789,-2.375,-2.375,-2.3725,-2.3696,-2.3674,-2.3562,-2.3378,-2.3052,-2.2651,-2.2215,-2.1899,-2.1509,-2.1071,-2.0811,-2.0395,-1.9929,-1.95,-1.9087,-1.8644,-1.8161,-1.7828,-1.7503,-1.6921,-1.6539,-1.6139,-1.568,-1.5142,-1.4605,-1.4035,-1.3515,-1.2997,-1.2627,-1.2224,-1.1927,-1.1728,-1.1528,-1.1326,-1.1074,-1.0769,-1.0403,-0.9984,-0.9465,-0.8942,-0.8374,-0.7887,-0.75,-0.7223,-0.6784,-0.6299,-0.5923,-0.5611,-0.5321,-0.512,-0.453,-0.3923,-0.3272,-0.2515,-0.1882,-0.1368,-0.115,-0.0973,-0.0806,-0.0739,-0.0644,-0.0492,-0.0427,-0.0398,-0.0325,0.0039,0.0341,0.0,0.0,0.0,0.0,0.0,0.0,0.0,0.0,-1.9774,-2.063,-2.1459,-2.2015,-2.2022,-2.3298,-2.4321,-2.4283,-2.4812,-2.522,-2.5225,-2.5125,-2.4993,-2.4875,-2.4846,-2.485,-2.485,-2.485,-2.485,-2.485,-2.4787,-2.4704,-2.4639,-2.4508,-2.4408,-2.4339,-2.4228,-2.4075,-2.3937,-2.3858,-2.3837,-2.3816,-2.3816,-2.3795,-2.3795,-2.3795,-2.3792,-2.3807,-2.3804,-2.3718,-2.3562,-2.3193,-2.2842,-2.2515,-2.2321,-2.1886,-2.1371,-2.1071,-2.0697,-2.0243,-1.9732,-1.9362,-1.9017,-1.8553,-1.8226,-1.7948,-1.7475,-1.706,-1.6667,-1.6207,-1.5635,-1.5062,-1.4558,-1.3988,-1.3372,-1.2861,-1.2421,-1.2076,-1.1778,-1.1628,-1.1477,-1.1167,-1.1023,-1.082,-1.036,-0.9984,-0.9458,-0.8633,-0.8215,-0.7823,-0.7413,-0.7024,-0.664,-0.6123,-0.581,-0.5485,-0.5213,-0.4562,-0.3853,-0.3129,-0.2691,-0.2211,-0.1685,-0.1413,-0.118,-0.0904,-0.0833,-0.0797,-0.0717,-0.0684,-0.07,-0.0683,-0.0732,-0.0507,-1.7434,-1.7421,-1.7616,-1.842,-1.8754,-1.9315,0.0,0.0,-2.1653,-2.2519,-2.3347,-2.3895,-2.3896,-2.4636,-2.5244,-2.5244,-2.5318,-2.5351,-2.5303,-2.5222,-2.5168,-2.5156,-2.5051,-2.4985,-2.4985,-2.5031,-2.5044,-2.4966,-2.4912,-2.4856,-2.4779,-2.4654,-2.4543,-2.4478,-2.4411,-2.4266,-2.4078,-2.4018,-2.3955,-2.3896,-2.3816,-2.3795,-2.3795,-2.3795,-2.3795,-2.3813,-2.3807,-2.3718,-2.3585,-2.3289,-2.2995,-2.2659,-2.246,-2.2106,-2.1708,-2.1325,-2.099,-2.0646,-2.0,-1.9603,-1.9302,-1.8874,-1.8539,-1.8187,-1.7828,-1.738,-1.6866,-1.6398,-1.5932,-1.5367,-1.4686,-1.4212,-1.3742,-1.2949,-1.2618,-1.2323,-1.1828,-1.1678,-1.1628,-1.1326,-1.1175,-1.0972,-1.0667,-1.0352,-0.9836,-0.9061,-0.8586,-0.8203,-0.7859,-0.7546,-0.7177,-0.6721,-0.6283,-0.5797,-0.5256,-0.4739,-0.4256,-0.3742,-0.3118,-0.2496,-0.1884,-0.1493,-0.118,-0.0904,-0.0901,-0.0836,-0.0711,-0.0696,-0.0711,-0.0715,-0.0742,-0.0738,-1.8082,-1.8672,-1.9546,-1.9873,-2.071,-2.1798,-2.3007,-2.3244,-2.3458,-2.4321,-2.4768,-2.501,-2.501,-2.529,-2.5505,0.0,-2.5452,-2.5426,-2.5367,-2.5303,-2.5233,-2.5209,-2.5153,-2.5113,-2.507,-2.507,-2.5089,-2.5057,-2.5031,-2.4999,-2.4972,-2.4865,-2.502,-2.5421,-2.534,-2.5426,-2.5727,-2.515,-2.4832,-2.4772,-2.4176,-2.3896,-2.3876,-2.3816,-2.3795,-2.3795,-2.3792,-2.3747,-2.3634,-2.3453,-2.3168,-2.2868,-2.2605,-2.2287,-2.194,-2.1573,-2.1167,-2.0728,-2.0208,-1.9818,-1.9465,-1.9101,-1.8836,-1.862,-1.8175,-1.776,-1.7338,-1.671,-1.625,-1.578,-1.5051,-1.4605,-1.414,-1.3324,-1.2987,-1.2647,-1.2175,-1.1977,-1.1877,-1.1578,-1.1427,-1.1226,-1.0871,-1.0616,-1.0308,-0.9688,-0.9113,-0.8639,-0.8215,-0.7893,-0.7454,-0.6746,-0.6122,-0.558,-0.5169,-0.4781,-0.4374,-0.387,-0.3351,-0.2764,-0.2164,-0.1784,-0.1402,-0.1019,-0.0995,-0.0918,-0.0701,-0.0731,-0.0746,-0.0746,-0.0776,-0.0783,-1.9049,-1.9885,-2.0967,-2.1459,-2.2518,-2.3691,-2.4567,-2.4711,-2.4874,-2.5509,-2.5632,-2.564,-2.5632,-2.5628,-2.5604,-2.5566,-2.5535,-2.5512,-2.5456,-2.5376,-2.5303,-2.5243,-2.522,-2.5184,-2.5139,-2.5126,-2.5126,-2.5126,-2.5095,-2.5209,-2.5438,-2.5393,-2.5706,-2.6454,-2.6378,-2.6564,-2.7008,-2.6265,-2.5875,-2.5777,-2.5049,-2.4563,-2.4265,-2.3946,-2.3795,-2.3795,-2.3795,-2.3771,-2.3721,-2.3589,-2.336,-2.307,-2.2816,-2.249,-2.2141,-2.1797,-2.134,-2.0827,-2.0361,-1.9995,-1.9647,-1.9302,-1.9078,-1.8941,-1.8439,-1.8055,-1.7625,-1.6934,-1.6491,-1.6013,-1.5345,-1.4891,-1.443,-1.3742,-1.3314,-1.2977,-1.2559,-1.2323,-1.2126,-1.1819,-1.1628,-1.1368,-1.0972,-1.0769,-1.0565,-1.0154,-0.9688,-0.9166,-0.8685,-0.8256,-0.767,-0.6854,-0.6134,-0.5586,-0.5245,-0.4914,-0.4509,-0.4058,-0.3562,-0.3016,-0.2403,-0.197,-0.1559,-0.1158,-0.1112,-0.0974,-0.0744,-0.0765,-0.0776,-0.0777,-0.0806,-0.0819,-2.136,-2.1664,-2.2177,-2.386,-2.4323,-2.4592,-2.5451,-2.5659,-2.5664,-2.5698,-2.5691,-2.5703,-2.569,-2.569,-2.5693,-2.5693,-2.5648,-2.561,-2.5582,-2.5483,-2.5367,-2.5293,-2.5241,-2.5195,0.0,-2.521,-2.521,-2.521,-2.5144,-2.5475,-2.6327,-2.6294,-2.6629,-2.7419,-2.7452,-2.7396,-2.7285,-2.7076,-2.6879,-2.6765,-2.6606,-2.6038,-2.5129,-2.4221,-2.3795,-2.3795,-2.3795,-2.3792,-2.3804,-2.3721,-2.3544,-2.3265,-2.307,-2.2747,-2.2343,-2.2015,-2.1587,-2.1103,-2.0429,-2.01,-1.9919,-1.945,-1.9176,-1.9026,-1.862,-1.8175,-1.7679,-1.7073,-1.6577,-1.6069,-1.5447,-1.4983,-1.4558,-1.4118,-1.3695,-1.3266,-1.2871,-1.2647,-1.2372,-1.1977,-1.1678,-1.1368,-1.0972,-1.0769,-1.0624,-1.0316,-1.0265,-0.9999,-0.9263,-0.8586,-0.7951,-0.7257,-0.6611,-0.6066,-0.5613,-0.5198,-0.4796,-0.4398,-0.3822,-0.3234,-0.2607,-0.2037,-0.1549,-0.1205,-0.1056,-0.0955,-0.0804,-0.0805,-0.0805,-0.0806,-0.0889,-0.0851,-2.1543,-2.2541,-2.3592,-2.4185,-2.4767,-2.5266,-2.5566,-2.5623,-2.5659,-2.5694,-2.5699,-2.5703,-2.5701,-2.5698,-2.5694,-2.5705,-2.5676,-2.5658,-2.5615,-2.5511,-2.543,-2.5378,-2.5312,0.0,0.0,0.0,0.0,-2.5191,-2.5664,-2.6084,-2.6371,-2.6931,-2.7592,-2.8403,-2.8427,-2.865,-2.909,-2.8407,-2.8024,-2.7921,-2.7063,-2.6434,-2.5987,-2.5081,-2.4653,-2.4574,-2.4031,-2.3792,-2.3804,-2.3783,-2.3634,-2.3407,-2.3168,-2.285,-2.249,-2.2113,-2.1705,-2.1277,-2.0728,-2.0323,-2.001,-1.9632,-1.9376,-1.9153,-1.8736,-1.8361,-1.7935,-1.7282,-1.6778,-1.6262,-1.5703,-1.5357,-1.4983,-1.4523,-1.4186,-1.3836,-1.3515,-1.3122,-1.2745,-1.2412,-1.1968,-1.1528,-1.1124,-1.0871,-1.0624,-1.0316,-1.0051,-0.9725,-0.9361,-0.8692,-0.7972,-0.7453,-0.6665,-0.5981,-0.5562,-0.5127,-0.4709,-0.4271,-0.3729,-0.318,-0.262,-0.2043,-0.1594,-0.121,-0.1059,-0.0958,-0.0806,-0.0775,-0.0784,-0.0785,-0.0868,-0.0882,-2.233,-2.3353,-2.4348,-2.4649,-2.5152,-2.5551,-2.5551,-2.5586,-2.5609,-2.5668,-2.5665,-2.5661,-2.5699,-2.5702,-2.5703,-2.5696,-2.5691,-2.5679,-2.564,-2.5818,-2.5829,-2.544,-2.5621,-2.574,0.0,0.0,0.0,-2.5631,-2.6097,-2.6651,-2.7262,-2.7816,-2.851,-2.9336,-2.9374,-2.958,-3.0034,-2.944,-2.9061,-2.8926,-2.7793,-2.7128,-2.6896,-2.5983,-2.5368,-2.4972,-2.4447,-2.4064,-2.3789,-2.3786,-2.3696,-2.3517,-2.3217,-2.2902,-2.2544,-2.2141,-2.1764,-2.1402,-2.0909,-2.0494,-2.0135,-1.972,-1.9501,-1.9265,-1.8827,-1.8464,-1.8095,-1.7406,-1.6863,-1.6392,-1.5848,-1.5492,-1.5119,-1.48,-1.4466,-1.4233,-1.3999,-1.3505,-1.3025,-1.2657,-1.2126,-1.1578,-1.1124,-1.0769,-1.0522,-1.0324,-0.9888,-0.9562,-0.9413,-0.8791,-0.8109,-0.7574,-0.6733,-0.6015,-0.5597,-0.5168,-0.4742,-0.4337,-0.3872,-0.3303,-0.2722,-0.2122,-0.1657,-0.1312,-0.1102,-0.0944,-0.0839,-0.0859,-0.0759,-0.0651,-0.0722,-0.0785,-2.3645,-2.4184,-2.4474,-2.535,-2.5531,-2.5518,-2.5551,-2.5576,-2.5579,-2.5551,-2.5537,-2.5531,-2.5564,-2.5607,-2.5637,-2.5624,-2.5676,-2.572,-2.5756,-2.6364,-2.6482,0.0,0.0,0.0,0.0,0.0,0.0,-2.6517,-2.6536,-2.7224,-2.8815,-2.893,-2.9363,-3.0166,-3.0204,-3.0171,-3.0109,-3.0098,-2.9975,-2.9681,-2.8746,-2.816,-2.7932,-2.6933,-2.5958,-2.5063,-2.5027,-2.4538,-2.3795,-2.3807,-2.3718,-2.3562,-2.3241,-2.2893,-2.2552,-2.2158,-2.184,-2.1511,-2.099,-2.0646,-2.0308,-1.9777,-1.9501,-1.9302,-1.8865,-1.8528,-1.8161,-1.7434,-1.6892,-1.6392,-1.5836,-1.5435,-1.5108,-1.4949,-1.464,-1.4373,-1.4222,-1.3789,-1.3228,-1.2618,-1.2076,-1.1528,-1.0972,-1.0565,-1.0265,-1.0265,-0.9888,-0.9562,-0.9413,-0.8942,-0.8309,-0.7568,-0.6815,-0.6164,-0.5622,-0.5289,-0.4904,-0.4519,-0.4117,-0.3616,-0.2956,-0.2277,-0.1788,-0.1514,-0.1122,-0.0898,-0.0842,-0.0842,-0.0673,-0.0393,-0.0393,-0.0505,-2.3947,-2.4587,-2.5324,-2.6238,-2.5975,-2.5665,-2.6326,-2.5971,-2.5363,-2.4766,-2.4632,-2.4442,-2.3879,-2.4283,-2.4738,-2.4726,-2.5287,0.0,-2.6585,-2.6782,0.0,-2.7303,0.0,-2.7514,-2.74,-2.7383,0.0,0.0,-2.8261,-2.8452,-2.8872,-2.9516,-2.9975,-3.0185,-3.0204,-3.0185,-3.0171,-3.0113,-2.9975,-2.9699,-2.9383,-2.9074,-2.8758,-2.7798,-2.684,-2.586,-2.5262,-2.4538,-2.3795,-2.3807,-2.3718,-2.3562,-2.3241,-2.2893,-2.2552,-2.226,-2.1945,-2.1603,-2.123,-2.0827,-2.0376,-1.9925,-1.9581,-1.9339,-1.8912,-1.8606,-1.8347,-1.772,-1.7214,-1.6752,-1.6231,-1.5792,-1.548,-1.5255,-1.4949,-1.4627,-1.4373,-1.3847,-1.3228,-1.2657,-1.1868,-1.1074,-1.0573,-1.0368,-1.0154,-0.9829,-0.9666,-0.9562,-0.9413,-0.8738,-0.8109,-0.7574,-0.6652,-0.5946,-0.5622,-0.5128,-0.4743,-0.4519,-0.4094,-0.3597,-0.3074,-0.233,-0.1887,-0.174,-0.1178,-0.0673,-0.0224,-0.0224,-0.0168,-0.0112,0.0112,0.0168,-2.4485,-2.5293,-2.6002,-2.6141,-2.6118,-2.5952,-2.5716,-2.5284,-2.4704,-2.3908,-2.3445,-2.3179,-2.3108,-2.3186,-2.351,0.0,0.0,0.0,-2.6822,-2.7277,-2.7593,0.0,-2.8289,0.0,-2.833,-2.8288,-2.8593,-2.9415,-2.9115,-2.9063,-2.9459,-2.9937,-3.0204,-3.0204,-3.0204,-3.0204,-3.0157,-3.0083,-2.9975,-2.9789,-2.9664,-2.9412,-2.9079,-2.848,-2.7679,-2.6693,-2.5878,-2.5081,-2.4317,-2.3909,-2.3634,-2.3448,-2.3144,-2.2816,-2.2487,-2.2203,-2.1945,-2.1664,-2.1371,-2.099,-2.0545,-1.9965,-1.9675,-1.9413,-1.8936,-1.8644,-1.84,-1.7841,-1.7338,-1.685,-1.6262,-1.5881,-1.5525,-1.5198,-1.4891,-1.4627,-1.4244,-1.3658,-1.2977,-1.2206,-1.1368,-1.0718,-1.0368,-1.0102,-0.9888,-0.9569,-0.9302,-0.9093,-0.8995,-0.8533,-0.7949,-0.7413,-0.6544,-0.5837,-0.5403,-0.4904,-0.4522,-0.4356,-0.4021,-0.3574,-0.313,-0.2517,-0.2017,-0.1572,-0.0954,-0.0393,0.0168,0.0336,0.0393,0.0393,0.0561,0.0617,-2.5079,-2.589,-2.6379,-2.5721,-2.6056,-2.6169,-2.4699,-2.4205,-2.3786,-2.2842,-2.2017,-2.1643,-2.2302,-2.1994,-2.2153,-2.3788,0.0,-2.5017,-2.6744,-2.7686,-2.8182,-2.8163,-2.8887,-2.9329,-2.9279,-2.9206,-2.9455,-3.015,-2.9492,-2.9402,-3.0166,-3.0204,-3.0204,-3.0204,-3.0185,-3.0157,-3.0094,-3.0003,-2.9943,-2.9861,-2.9645,-2.9392,-2.9082,-2.8938,-2.833,-2.7363,-2.6566,-2.5746,-2.4942,-2.4064,-2.3522,-2.3265,-2.2995,-2.2659,-2.2332,-2.2101,-2.1869,-2.1678,-2.1479,-2.1135,-2.0712,-2.007,-1.9762,-1.9501,-1.8988,-1.8697,-1.84,-1.7841,-1.7323,-1.6791,-1.6175,-1.578,-1.5424,-1.4994,-1.4743,-1.443,-1.3858,-1.3218,-1.2482,-1.1418,-1.082,-1.0419,-1.0265,-0.9836,-0.9517,-0.9309,-0.8837,-0.8474,-0.8262,-0.8109,-0.7788,-0.7079,-0.6327,-0.5673,-0.5069,-0.4684,-0.4353,-0.4193,-0.391,-0.3574,-0.3132,-0.2687,-0.213,-0.1347,-0.0729,-0.0112,0.0393,0.0729,0.0898,0.0898,0.0898,0.0898,-2.5233,-2.5467,-2.5762,-2.632,-2.6083,-2.5631,-2.534,-2.4199,0.0,0.0,-2.0206,-1.9492,-1.8971,-1.989,-2.106,-2.2089,-2.3451,-2.5017,-2.6744,-2.7686,-2.8415,0.0,-2.9786,-3.0235,-3.0105,-3.0075,0.0,0.0,-3.0054,-3.0041,-3.0185,-3.0204,-3.0204,-3.0204,-3.0157,-3.0079,-3.0022,-2.991,-2.9773,-2.9645,-2.9394,-2.9185,-2.9007,-2.8881,-2.83,-2.7363,-2.6566,-2.5746,-2.4919,-2.3997,-2.3453,-2.3193,-2.2868,-2.2579,-2.2287,-2.2015,-2.1869,-2.1768,-2.1479,-2.1214,-2.0878,-2.0296,-1.9889,-1.9501,-1.9093,-1.8827,-1.8517,-1.7882,-1.7434,-1.6989,-1.6318,-1.5937,-1.5525,-1.4994,-1.464,-1.4233,-1.3457,-1.2491,-1.156,-1.0922,-1.0624,-1.0308,-0.9829,-0.9569,-0.9256,-0.8685,-0.8374,-0.8055,-0.7408,-0.73,-0.7133,-0.675,-0.5832,-0.5128,-0.4798,-0.4353,-0.4079,-0.4024,-0.3802,-0.3527,-0.3357,-0.2631,-0.2186,-0.2023,-0.0898,-0.0056,0.0393,0.0729,0.0898,0.0898,0.0898,0.0898,-2.5273,-2.5678,-2.6088,-2.6086,-2.6134,-2.5841,-2.4503,0.0,0.0,0.0,-1.8776,-1.7926,-1.7997,-1.8668,0.0,-2.0957,-2.2608,-2.4325,-2.6071,-2.7015,-2.7976,-2.9159,-2.9612,-2.9967,-3.0321,-3.0323,-3.0299,-3.0254,-3.0215,-3.0194,-3.0204,-3.0204,-3.0204,-3.0204,-3.0128,-3.0053,-2.9956,-2.977,-2.9645,-2.9491,-2.9267,-2.9071,-2.8934,-2.881,-2.8469,-2.7911,-2.6682,-2.5888,-2.5374,-2.4039,-2.3289,-2.297,-2.2738,-2.2453,-2.213,-2.1928,-2.1827,-2.1708,-2.1433,-2.115,-2.0878,-2.0379,-1.996,-1.956,-1.9145,-1.8803,-1.8478,-1.7882,-1.7338,-1.6808,-1.6163,-1.5691,-1.5244,-1.4686,-1.3931,-1.317,-1.254,-1.171,-1.0972,-1.0514,-1.0198,-0.988,-0.9361,-0.9047,-0.8679,-0.8037,-0.761,-0.7187,-0.6593,-0.6268,-0.605,-0.605,-0.5449,-0.4849,-0.4467,-0.4024,-0.3802,-0.3802,-0.3524,-0.3246,-0.3023,-0.2689,-0.2186,-0.1629,-0.0785,-0.0112,0.0393,0.0729,0.0954,0.101,0.101,0.1066,-2.5303,-2.5869,-2.6296,-2.5654,-2.6035,-2.5919,-2.3545,-2.2231,0.0,-1.9301,-1.7596,-1.6627,-1.7311,-1.7593,-1.8291,0.0,-2.1567,-2.3221,-2.5145,-2.6106,-2.7219,0.0,-2.9129,0.0,-3.0314,-3.0336,0.0,-3.0279,-3.0221,-3.0166,-3.0171,-3.0171,-3.0171,-3.019,-3.0083,-3.0007,-2.9891,-2.9662,-2.9493,-2.939,-2.9156,-2.8998,-2.8881,-2.8743,-2.8504,-2.8124,-2.67,-2.5877,-2.549,-2.3969,-2.3119,-2.2738,-2.2561,-2.2271,-2.194,-2.1781,-2.1678,-2.1603,-2.1309,-2.1039,-2.073,-2.0277,-1.9909,-1.9581,-1.9078,-1.8711,-1.8268,-1.776,-1.7089,-1.6466,-1.5888,-1.5367,-1.4834,-1.4165,-1.3122,-1.2166,-1.1678,-1.1074,-1.0462,-1.0095,-0.9725,-0.9309,-0.8844,-0.8421,-0.7931,-0.7278,-0.6745,-0.6213,-0.5782,-0.5234,-0.4959,-0.5179,-0.4901,-0.4515,-0.4082,-0.3694,-0.3471,-0.3471,-0.3132,-0.2912,-0.2691,-0.2465,-0.1906,-0.0954,-0.0449,0.0056,0.0617,0.0898,0.1066,0.1122,0.1122,0.1234,-2.5393,-2.5499,-2.5582,-2.5531,-2.5621,-2.5226,-2.3406,0.0,-2.014,-1.8451,-1.6729,-1.5544,-1.5624,-1.6289,-1.7382,-1.9134,-2.017,-2.1611,-2.416,-2.5211,-2.6321,-2.7934,0.0,0.0,-3.0314,-3.0336,-3.0279,-3.0202,-3.0157,-3.0098,-3.0109,-3.0109,-3.0113,-3.0102,-2.9991,-2.9891,-2.9825,-2.9551,-2.9372,-2.9323,-2.9044,-2.8881,-2.881,-2.8662,-2.8139,-2.7281,-2.6343,-2.5433,-2.4548,-2.3527,-2.2944,-2.2579,-2.2281,-2.2027,-2.1781,-2.154,-2.1448,-2.1386,-2.1055,-2.0747,-2.0481,-2.0,-1.9696,-1.9406,-1.8974,-1.8475,-1.7908,-1.7393,-1.6778,-1.6144,-1.5647,-1.5153,-1.4512,-1.3505,-1.2598,-1.1778,-1.1267,-1.0667,-1.0095,-0.9569,-0.9263,-0.8844,-0.8143,-0.7658,-0.7122,-0.6249,-0.5882,-0.5454,-0.4908,-0.4515,-0.4181,-0.3962,-0.3907,-0.3855,-0.3694,-0.3357,-0.3074,-0.2961,-0.2687,-0.2577,-0.2691,-0.1738,-0.1009,-0.0449,0.0056,0.0673,0.1403,0.1291,0.129,0.129,0.129,0.1403,-2.5316,-2.5506,-2.5556,-2.5564,-2.5215,-2.4568,-2.3348,-2.1357,-1.9436,-1.8253,-1.6601,-1.5408,-1.5405,-1.6102,-1.7088,-1.8264,-1.9607,-2.1029,-2.2566,-2.3919,-2.5168,-2.6296,-2.7576,0.0,0.0,0.0,-3.0188,-3.0094,-3.0019,-2.994,-2.9853,-2.9969,-3.0019,-2.9972,-2.9891,-2.979,-2.9664,-2.9454,-2.9289,-2.9175,-2.8952,-2.881,-2.8737,-2.8562,-2.7949,-2.6968,-2.6063,-2.5128,-2.4164,-2.3206,-2.2659,-2.2371,-2.2084,-2.1869,-2.1664,-2.1388,-2.1214,-2.1055,-2.0697,-2.0462,-2.0189,-1.9711,-1.9347,-1.8997,-1.8693,-1.8226,-1.7707,-1.7131,-1.6466,-1.5812,-1.5266,-1.4387,-1.3494,-1.2686,-1.1959,-1.1267,-1.082,-1.0249,-0.9725,-0.9263,-0.8784,-0.819,-0.7444,-0.6848,-0.6253,-0.5555,-0.5175,-0.4736,-0.4242,-0.391,-0.3577,-0.3188,-0.3411,-0.3466,-0.3188,-0.291,-0.2742,-0.2798,-0.2127,-0.168,-0.1457,-0.0784,-0.0168,0.0393,0.1064,0.1457,0.1572,0.1569,0.1625,0.1628,0.1794,0.2018,-2.4547,-2.4816,-2.4865,-2.486,-2.4436,-2.3728,-2.2611,-2.0765,-1.8983,-1.7851,-1.6423,-1.5395,-1.5407,-1.5882,-1.6648,-1.7718,-1.89,-2.0167,-2.1507,-2.2921,-2.4215,-2.5269,0.0,-2.7827,-2.8943,-2.9664,-3.003,-2.9888,-2.9841,-2.9753,-2.9626,-2.9735,-2.9823,-2.9823,-2.9736,-2.9664,-2.9511,-2.9332,-2.9225,-2.9108,-2.8905,-2.8785,-2.8644,-2.8458,-2.7674,-2.6419,-2.572,-2.4716,-2.3578,-2.2811,-2.2371,-2.213,-2.1853,-2.1631,-2.1371,-2.1103,-2.086,-2.0663,-2.0292,-2.0065,-1.9833,-1.9362,-1.8898,-1.85,-1.8226,-1.7787,-1.7297,-1.671,-1.5964,-1.5152,-1.4514,-1.3532,-1.2628,-1.2008,-1.1418,-1.0871,-1.0403,-0.9829,-0.9309,-0.885,-0.8196,-0.7492,-0.6691,-0.6091,-0.5441,-0.4791,-0.4463,-0.4076,-0.3572,-0.3413,-0.3137,-0.2747,-0.2687,-0.2683,-0.274,-0.2406,-0.2128,-0.2074,-0.1342,-0.0671,-0.0168,0.0224,0.0838,0.1568,0.2069,0.2183,0.1962,0.2127,0.2183,0.213,0.2408,0.2742,-2.2881,-2.3125,-2.3125,-2.3128,-2.3118,-2.2671,-2.1007,-1.994,-1.8807,-1.7079,-1.6009,-1.539,-1.539,-1.5354,-1.5877,-1.7618,-1.7854,-1.872,-2.1326,-2.2397,-2.3531,0.0,0.0,-2.714,-2.8746,-2.9456,-2.975,-2.9626,-2.9589,-2.9531,-2.9412,-2.9412,-2.9471,-2.9607,-2.955,-2.9434,-2.9293,-2.9225,-2.9156,-2.9089,-2.8975,-2.8791,-2.8587,-2.8406,-2.7264,-2.5411,-2.5247,-2.4192,-2.2487,-2.2281,-2.2096,-2.1869,-2.154,-2.1245,-2.0975,-2.0646,-2.0376,-2.0139,-1.9818,-1.9596,-1.9339,-1.8936,-1.8422,-1.7908,-1.7393,-1.7018,-1.671,-1.6163,-1.513,-1.4025,-1.3208,-1.2638,-1.2107,-1.1619,-1.1074,-1.0557,-0.9917,-0.9361,-0.885,-0.8328,-0.7509,-0.6691,-0.5937,-0.5336,-0.4677,-0.3907,-0.3691,-0.3413,-0.2961,-0.2968,-0.2916,-0.2747,-0.1621,-0.1341,-0.2296,-0.1734,-0.1119,-0.0673,-0.0224,0.0279,0.0838,0.1341,0.2125,0.3244,0.2905,0.2736,0.2905,0.3019,0.3019,0.2905,0.3244,0.3688,-2.1837,-2.2218,-2.2342,-2.2951,-2.224,-2.125,-2.072,-1.8996,-1.7368,-1.6804,-1.6011,-1.5396,-1.5345,-1.5306,-1.5866,-1.7554,-1.7819,-1.8679,-2.1201,0.0,0.0,-2.4312,-2.6051,-2.7561,0.0,0.0,-2.9589,-2.9415,-2.9392,-2.9368,-2.9265,-2.9265,-2.931,-2.9394,-2.937,-2.9307,-2.9225,-2.9156,-2.9067,-2.8952,-2.8785,-2.8587,-2.838,-2.8045,-2.6915,-2.5164,-2.4925,-2.3818,-2.2215,-2.1957,-2.1751,-2.1524,-2.1182,-2.0926,-2.0697,-2.0342,-2.0085,-1.9859,-1.953,-1.9302,-1.9055,-1.8542,-1.8002,-1.7394,-1.6685,-1.6411,-1.6163,-1.5085,-1.4154,-1.3362,-1.2638,-1.2107,-1.1569,-1.0913,-1.0241,-0.9725,-0.9316,-0.8679,-0.799,-0.7515,-0.675,-0.5932,-0.5167,-0.4567,-0.3962,-0.3408,-0.3135,-0.2914,-0.28,-0.2127,-0.151,-0.0894,-0.0336,-0.0336,-0.1121,-0.0727,-0.0168,0.0391,0.095,0.162,0.2514,0.2736,0.3067,0.3516,0.3574,0.3574,0.3516,0.3738,0.3956,0.4119,0.4346,0.4622,0.0,-2.0114,-2.0508,-2.1035,-2.039,-1.9526,-1.9195,-1.7857,-1.6578,-1.623,-1.5751,-1.5345,-1.5311,-1.5287,-1.5821,-1.752,-1.7786,-1.8621,0.0,0.0,0.0,-2.4221,0.0,0.0,0.0,-2.8596,-2.9096,-2.9209,-2.9222,-2.9197,-2.913,-2.9112,-2.9156,-2.9203,-2.92,-2.9175,-2.9089,-2.9021,-2.8929,-2.8785,-2.8587,-2.8335,-2.8073,-2.7443,-2.633,-2.4878,-2.4322,-2.324,0.0,-2.1601,-2.1402,-2.1135,-2.0795,-2.053,-2.0342,-1.9975,-1.9711,-1.9479,-1.9176,-1.8903,-1.8595,-1.8109,-1.7229,-1.6293,-1.5531,-1.5287,-1.5073,-1.3967,-1.3208,-1.2589,-1.1959,-1.141,-1.0846,-1.0131,-0.9451,-0.8876,-0.8468,-0.7771,-0.7128,-0.6701,-0.5937,-0.5167,-0.4567,-0.3959,-0.3408,-0.2965,-0.2575,-0.224,-0.1959,-0.1118,-0.0335,0.0391,0.1008,0.1288,0.1007,0.0783,0.1061,0.1843,0.2235,0.2792,0.363,0.3738,0.3901,0.4181,0.4349,0.4405,0.4346,0.4622,0.4897,0.5167,0.5336,0.5555,0.0,-1.7068,-1.7822,-1.7889,-1.7901,-1.7696,-1.6884,-1.66,0.0,-1.5462,-1.5299,-1.5293,-1.5279,-1.5236,-1.5769,-1.7504,-1.774,-1.8586,0.0,-2.2218,0.0,0.0,-2.5548,0.0,-2.6749,-2.7604,-2.8339,-2.896,-2.9071,-2.9085,-2.9017,-2.8938,-2.8938,-2.8975,-2.8966,-2.8943,-2.8905,-2.8779,-2.8621,-2.8496,-2.8236,-2.7913,-2.7566,-2.6551,-2.5498,-2.4448,-2.3543,-2.2521,-2.1462,-2.1245,-2.1007,-2.0728,-2.0311,-2.0065,-1.9899,-1.9538,-1.9228,-1.9026,-1.875,-1.84,-1.8016,-1.7503,-1.6219,-1.4755,-1.4097,-1.3826,-1.3579,-1.2909,-1.2335,-1.1751,-1.1167,-1.0541,-0.9902,-0.9228,-0.8593,-0.796,-0.7337,-0.6799,-0.6317,-0.5773,-0.5058,-0.4453,-0.4021,-0.3411,-0.2852,-0.2465,-0.1959,-0.1398,-0.067,0.0056,0.0726,0.1341,0.2406,0.3251,0.3638,0.2573,0.2406,0.3583,0.3572,0.3732,0.4233,0.4515,0.4794,0.5179,0.5179,0.523,0.5391,0.5563,0.5837,0.6109,0.6213,0.648,-1.2556,0.0,-1.6165,-1.6836,-1.7007,-1.694,0.0,-1.6099,-1.5532,-1.5279,0.0,-1.5215,-1.5157,-1.517,-1.5735,-1.737,-1.7627,-1.8694,-2.1809,-2.343,0.0,-2.4704,-2.541,-2.5851,-2.5894,-2.7189,-2.8049,-2.8107,-2.8691,-2.9017,-2.8994,-2.8366,-2.8265,-2.8815,-2.816,-2.8142,-2.881,-2.8118,-2.7646,-2.7453,-2.6587,-2.602,-2.5714,-2.5146,-2.4337,-2.3338,-2.2876,-2.2084,-2.1103,-2.0861,-2.0563,-2.0239,-1.998,-1.9747,-1.9487,-1.9205,-1.8927,-1.8669,-1.8201,-1.7733,-1.7162,-1.5903,-1.479,-1.3794,-1.2986,-1.2851,-1.2754,-1.2187,-1.1484,-1.0821,-1.0226,-0.954,-0.8803,-0.8224,-0.7427,-0.6735,-0.6258,-0.5601,-0.4999,-0.4501,-0.3901,-0.3408,-0.3249,-0.2519,-0.179,-0.1345,-0.0727,-0.0,0.067,0.1452,0.2343,0.3408,0.3683,0.3904,0.4242,0.3627,0.3403,0.4015,0.445,0.4776,0.5058,0.5449,0.5673,0.5782,0.5887,0.61,0.6372,0.6431,0.6647,0.702,0.7133,0.7348,-1.1344,-1.3101,-1.491,-1.5342,-1.576,-1.6041,-1.5969,0.0,0.0,0.0,0.0,-1.5229,-1.5577,-1.5673,-1.622,-1.7848,-1.8384,-1.9604,0.0,0.0,-2.4647,-2.4617,-2.4974,-2.5297,-2.5542,-2.6334,-2.6956,-2.7218,-2.7618,-2.783,-2.7807,-2.7283,-2.7359,-2.8106,-2.7536,-2.7673,-2.8612,-2.763,-2.7012,-2.6801,-2.5697,-2.5005,-2.4697,-2.4012,-2.3333,-2.2699,-2.2021,-2.1375,-2.0763,-2.0444,-2.017,-1.9889,-1.9588,-1.9347,-1.9168,-1.8788,-1.845,-1.8147,-1.7558,-1.6773,-1.5792,-1.4607,-1.3548,-1.2638,-1.1904,-1.1408,-1.1099,-1.0973,-1.0466,-0.9799,-0.9176,-0.8488,-0.7747,-0.7106,-0.6303,-0.5546,-0.5003,-0.445,-0.4009,-0.3735,-0.3016,-0.2404,-0.2071,-0.1398,-0.0727,-0.0224,0.0503,0.1282,0.2007,0.273,0.3511,0.4349,0.4457,0.4622,0.4959,0.4842,0.4728,0.4842,0.5281,0.5609,0.5773,0.605,0.6273,0.6386,0.6647,0.6864,0.7085,0.73,0.7509,0.783,0.799,0.8196,-1.1145,-1.2579,-1.3861,-1.3942,-1.4617,-1.5231,-1.5188,0.0,0.0,0.0,0.0,0.0,0.0,-1.6439,0.0,0.0,0.0,0.0,-2.2967,-2.394,-2.4445,-2.4447,-2.4445,-2.467,-2.5244,-2.5391,-2.572,-2.6313,-2.6435,-2.6447,-2.6362,-2.6123,-2.632,-2.7036,-2.6826,-2.7068,-2.787,-2.7005,-2.6451,-2.6196,-2.4964,-2.4198,-2.3857,-2.2895,-2.2329,-2.2085,-2.1098,-2.0579,-2.0392,-2.0025,-1.9762,-1.9545,-1.9161,-1.8912,-1.8711,-1.8189,-1.7801,-1.7449,-1.6646,-1.554,-1.4286,-1.3406,-1.2395,-1.1408,-1.0712,-0.9887,-0.9221,-0.9436,-0.9228,-0.8758,-0.8019,-0.7326,-0.6622,-0.5869,-0.5167,-0.4457,-0.3796,-0.3347,-0.3012,-0.285,-0.2124,-0.1285,-0.067,-0.0056,0.0558,0.1116,0.184,0.2563,0.3229,0.3895,0.4395,0.4838,0.5171,0.5454,0.5673,0.6005,0.6109,0.5841,0.6005,0.6277,0.6544,0.6598,0.6761,0.7036,0.7413,0.7676,0.7676,0.8109,0.8421,0.858,0.883,0.8981,-1.1016,-1.1925,-1.2858,-1.3633,-1.4444,-1.5037,-1.5038,0.0,0.0,0.0,0.0,0.0,0.0,-1.7064,-1.8292,0.0,0.0,-2.2552,0.0,0.0,-2.4171,-2.4152,-2.4209,-2.4265,-2.4298,-2.4921,-2.5319,-2.5321,-2.5958,-2.6295,-2.6222,-2.5451,-2.5273,-2.5831,-2.5569,-2.5418,-2.5438,-2.5429,-2.5292,-2.494,-2.3253,-2.2245,-2.1897,-2.1471,-2.1134,-2.0838,-2.0407,-2.0085,-1.9909,-1.9617,-1.9288,-1.8936,-1.8693,-1.824,-1.7679,-1.7338,-1.6811,-1.6188,-1.4959,-1.3867,-1.2938,-1.2003,-1.1107,-1.0312,-0.9488,-0.8751,-0.8006,-0.7326,-0.7337,-0.7444,-0.6843,-0.6027,-0.5269,-0.4615,-0.3901,-0.3355,-0.3137,-0.235,-0.1452,-0.0893,-0.0335,0.0223,0.0782,0.1451,0.2287,0.3463,0.368,0.3895,0.4395,0.5007,0.5449,0.5609,0.61,0.6431,0.6273,0.6766,0.7036,0.6869,0.682,0.6879,0.7149,0.7354,0.7563,0.7771,0.8103,0.8362,0.862,0.8771,0.8988,0.9256,0.9406,0.9569,-1.1399,-1.2008,-1.2601,-1.3858,-1.4511,-1.4931,-1.5339,0.0,0.0,0.0,0.0,0.0,0.0,0.0,-1.9313,-2.0908,0.0,-2.2824,-2.3222,-2.3601,-2.3837,-2.3876,-2.3937,-2.3976,-2.3896,-2.4224,-2.4381,-2.4295,-2.4595,-2.4721,-2.4646,-2.4093,-2.4056,-2.462,-2.4326,-2.4303,-2.4564,-2.4096,-2.3802,-2.3725,-2.2261,-2.1401,-2.1119,-2.0828,-2.053,-2.0254,-1.9925,-1.966,-1.9464,-1.9124,-1.8784,-1.85,-1.8108,-1.7612,-1.7021,-1.6188,-1.533,-1.4505,-1.3585,-1.2589,-1.1616,-1.0797,-0.9879,-0.896,-0.829,-0.7534,-0.6725,-0.5977,-0.6032,-0.6195,-0.5651,-0.4886,-0.4233,-0.3962,-0.3128,-0.2237,-0.1677,-0.1006,-0.0279,0.0503,0.106,0.1673,0.2681,0.3012,0.3508,0.446,0.4732,0.5003,0.5441,0.5937,0.6273,0.6381,0.6756,0.7025,0.6977,0.73,0.7515,0.7402,0.7354,0.7467,0.7794,0.8049,0.8249,0.8402,0.8732,0.8995,0.9145,0.9309,0.9524,0.9732,0.9888,1.0051,-1.1492,-1.2003,-1.2455,-1.3812,0.0,-1.5035,-1.5581,0.0,0.0,0.0,0.0,0.0,0.0,-1.968,0.0,-2.2504,-2.2746,-2.2898,-2.3446,-2.3495,-2.3495,-2.354,-2.3584,-2.3624,-2.3562,-2.3562,-2.354,-2.3473,-2.3399,-2.3301,-2.314,-2.291,-2.2936,-2.335,-2.327,-2.3365,-2.3564,-2.2882,-2.2589,-2.2716,-2.1585,-2.0909,-2.0628,-2.0342,-2.0065,-1.9797,-1.9406,-1.9132,-1.8893,-1.8433,-1.808,-1.7801,-1.7271,-1.6617,-1.5835,-1.4687,-1.3679,-1.2783,-1.2199,-1.1249,-1.0238,-0.9518,-0.8534,-0.7593,-0.6956,-0.6195,-0.5433,-0.4948,-0.4721,-0.4608,-0.4508,-0.3846,-0.3183,-0.3077,-0.2179,-0.1062,-0.0168,0.0391,0.1004,0.2012,0.2512,0.3123,0.4239,0.4398,0.4615,0.5117,0.5563,0.5891,0.6263,0.6593,0.6869,0.6982,0.7295,0.7616,0.7836,0.7937,0.7984,0.8143,0.8037,0.8096,0.8321,0.8626,0.883,0.8988,0.9361,0.9621,0.9681,0.9947,1.0102,1.0205,1.036,1.0522,-1.0676,-1.1404,-1.2107,-1.292,0.0,0.0,-1.5424,-1.6529,0.0,-1.7637,0.0,0.0,0.0,-2.111,-2.2396,-2.3289,-2.3318,-2.3265,-2.3319,-2.3199,-2.3126,-2.3151,-2.3157,-2.314,-2.314,-2.314,-2.3133,-2.3052,-2.2985,-2.2859,-2.2677,-2.2456,-2.2254,-2.2053,-2.2557,-2.2391,-2.1423,-2.1789,-2.2027,-2.2163,-2.1128,-2.0462,-2.0135,-1.9854,-1.9566,-1.9244,-1.8769,-1.8408,-1.8145,-1.7477,-1.6928,-1.6464,-1.5928,-1.4892,-1.3548,-1.2686,-1.1953,-1.1258,-1.0442,-0.9666,-0.8881,-0.796,-0.7165,-0.6357,-0.5542,-0.4721,-0.4119,-0.4027,-0.3074,-0.2347,-0.3638,-0.3021,-0.2014,-0.1509,-0.0614,0.0223,0.095,0.173,0.2736,0.4027,0.4301,0.4457,0.4944,0.5386,0.5773,0.6046,0.6213,0.6436,0.6647,0.6923,0.7133,0.7235,0.7783,0.8321,0.885,0.8784,0.8935,0.9458,0.8988,0.8725,0.8778,0.9145,0.9413,0.9562,0.9932,1.0249,1.0419,1.0667,1.082,1.082,1.0871,1.0922,-1.0318,-1.109,-1.1819,-1.2578,0.0,0.0,0.0,0.0,0.0,0.0,-1.9772,0.0,0.0,0.0,-2.2888,-2.3188,-2.3168,-2.3077,-2.2995,-2.2919,-2.2842,-2.279,-2.2747,-2.2721,-2.2721,-2.2721,-2.2677,-2.2563,-2.2493,-2.2375,-2.2169,-2.1998,-2.1794,-2.1556,-2.1583,-2.1327,-2.0778,-2.0708,-2.0624,-2.0436,-2.0212,-1.9965,-1.9696,-1.9354,-1.8983,-1.8602,-1.808,-1.7612,-1.7136,-1.6481,-1.5935,-1.5419,-1.4413,-1.3233,-1.2101,-1.1458,-1.0602,-0.974,-0.9155,-0.8252,-0.7239,-0.6666,-0.5751,-0.4772,-0.4055,-0.3337,-0.2674,-0.2178,-0.1397,-0.0894,-0.1956,-0.1564,-0.0726,-0.0056,0.067,0.1562,0.2959,0.3347,0.3729,0.4677,0.5066,0.5285,0.5714,0.5991,0.6322,0.6701,0.6815,0.6977,0.7295,0.7461,0.7676,0.7937,0.8573,0.9099,0.9458,0.9621,0.9777,0.9932,0.9562,0.9406,0.9673,0.994,1.0146,1.03,1.0506,1.0718,1.0871,1.1074,1.1167,1.1276,1.1377,1.1427,-0.9754,-1.0627,-1.1582,0.0,0.0,0.0,0.0,0.0,0.0,0.0,-2.0882,0.0,0.0,0.0,0.0,0.0,-2.2902,-2.2842,-2.2712,-2.2588,-2.248,-2.2398,-2.2287,-2.2248,-2.2203,-2.2175,-2.2158,-2.2051,-2.1994,-2.1866,-2.1675,-2.154,-2.1293,-2.1007,-2.0795,-2.0514,-2.0174,-1.9889,-1.953,-1.908,-1.914,-1.914,-1.9109,-1.8703,-1.8263,-1.7854,-1.7216,-1.6646,-1.6065,-1.5306,-1.4574,-1.3742,-1.2561,-1.149,-1.0535,-0.9982,-0.911,-0.8119,-0.7522,-0.6656,-0.5684,-0.5374,-0.4443,-0.3226,-0.2504,-0.1781,-0.1002,-0.0167,0.0446,0.0892,0.0724,0.0557,0.0725,0.173,0.223,0.2952,0.4301,0.457,0.4721,0.5328,0.5719,0.6055,0.6431,0.6647,0.6869,0.7295,0.7408,0.7568,0.7937,0.8103,0.8368,0.8784,0.9309,0.9777,1.0079,1.0241,1.0403,1.0454,1.0293,1.0241,1.0403,1.0616,1.0769,1.0972,1.1074,1.1226,1.1427,1.1569,1.1719,1.1828,1.1959,1.2058,-0.8795,-0.9971,-1.1363,0.0,0.0,0.0,0.0,0.0,0.0,-2.1534,0.0,-2.2596,-2.2515,-2.2569,0.0,-2.2596,-2.2596,-2.2579,-2.2515,-2.2271,-2.2039,-2.1911,-2.1797,-2.1648,-2.1524,-2.1493,-2.1493,-2.1493,-2.1448,-2.1355,-2.1198,-2.0991,-2.073,-2.041,-2.0258,-1.9965,-1.9479,-1.9281,-1.893,-1.838,-1.7987,-1.7961,-1.8266,-1.7801,-1.7394,-1.6951,-1.6126,-1.5499,-1.4892,-1.3982,-1.2686,-1.1316,-1.0517,-0.9629,-0.8776,-0.8106,-0.7261,-0.6303,-0.5534,-0.482,-0.4165,-0.4187,-0.3181,-0.1783,-0.0835,0.0056,0.089,0.1839,0.2506,0.3174,0.4405,0.34,0.2397,0.3855,0.4187,0.4343,0.4787,0.5391,0.5882,0.6154,0.6485,0.6815,0.7085,0.7359,0.7628,0.7883,0.8109,0.8328,0.858,0.8732,0.9093,0.9718,1.0043,1.0368,1.0683,1.0726,1.0828,1.1082,1.1226,1.1175,1.0922,1.1023,1.1226,1.1528,1.1628,1.1828,1.2126,1.2314,1.2461,1.2529,1.2735,1.2812,-0.9212,-1.0114,0.0,-1.2422,0.0,0.0,0.0,0.0,0.0,0.0,-2.2218,-2.2254,-2.2281,-2.2226,0.0,-2.2292,-2.2226,-2.2186,-2.2158,-2.1957,-2.1797,-2.1694,-2.1542,-2.1402,-2.1371,-2.1371,-2.134,-2.1277,-2.1214,-2.1087,-2.0876,-2.0646,-2.0361,-1.998,-1.9752,-1.9427,-1.9011,-1.8563,-1.812,-1.7626,-1.705,-1.705,-1.7558,-1.698,-1.6416,-1.5828,-1.4869,-1.4032,-1.3233,-1.1886,-1.0738,-0.9761,-0.9103,-0.8212,-0.7197,-0.6607,-0.6027,-0.5449,-0.4165,-0.3111,-0.2225,-0.1836,-0.0947,0.0167,0.1001,0.1778,0.2559,0.3335,0.3941,0.444,0.5109,0.5101,0.4937,0.4732,0.4948,0.5273,0.5714,0.6154,0.6539,0.6912,0.7324,0.7728,0.811,0.844,0.8789,0.9173,0.9342,0.968,1.0239,1.0253,1.0417,1.0997,1.1177,1.1447,1.1876,1.1921,1.2016,1.2077,1.1971,1.1728,1.1469,1.1678,1.1877,1.2076,1.2246,1.2433,1.2579,1.2929,1.318,1.3286,1.3552,1.36,-0.9221,-1.0075,0.0,-1.2827,-1.4402,-1.6167,-1.8661,0.0,0.0,0.0,-2.2003,-2.1882,-2.1836,-2.1807,0.0,-2.1866,-2.1836,-2.1777,-2.1764,-2.1631,-2.1511,-2.134,-2.1183,-2.1055,-2.099,-2.0958,-2.0941,-2.0892,-2.0761,-2.0595,-2.0357,-2.0135,-1.9788,-1.9354,-1.9095,-1.8717,-1.8212,-1.776,-1.7271,-1.6714,-1.5983,-1.5752,-1.5879,-1.5608,-1.5163,-1.4505,-1.3155,-1.2094,-1.1156,-0.9857,-0.8829,-0.8029,-0.7351,-0.6617,-0.5873,-0.4922,-0.4213,-0.3503,-0.2279,-0.1224,-0.0278,0.0333,0.1112,0.206,0.3113,0.3721,0.422,0.4875,0.5425,0.5869,0.6249,0.6681,0.674,0.5878,0.6041,0.6421,0.675,0.7079,0.7354,0.7616,0.8105,0.8509,0.8843,0.9302,0.9782,1.0186,1.058,1.0914,1.1374,1.147,1.1705,1.2103,1.2192,1.242,1.2868,1.2887,1.2954,1.2998,1.2772,1.2673,1.2791,1.2491,1.2537,1.3046,1.3017,1.3192,1.3616,1.3741,1.3847,1.3905,1.4186,1.4233,-0.9034,0.0,0.0,-1.3299,-1.5027,0.0,-1.9556,-2.1009,-2.1781,-2.1678,0.0,-2.1528,-2.1309,-2.134,-2.1355,-2.1386,-2.1401,-2.1432,-2.1355,-2.1277,-2.1151,-2.0861,-2.0778,-2.0662,-2.0494,-2.0407,-2.0354,-2.0354,-2.015,-1.996,-1.9752,-1.9479,-1.9072,-1.8539,-1.8305,-1.7854,-1.7188,-1.6828,-1.6318,-1.5644,-1.4869,-1.4168,-1.349,-1.3924,-1.3726,-1.2966,-1.1115,-0.9805,-0.8881,-0.787,-0.6913,-0.6058,-0.5362,-0.4889,-0.4463,-0.3109,-0.1887,-0.0835,-0.0,0.089,0.1781,0.2445,0.3053,0.3776,0.5238,0.5673,0.5814,0.6411,0.6907,0.7348,0.7723,0.8031,0.8019,0.7331,0.7402,0.7622,0.7777,0.8049,0.8281,0.8359,0.8854,0.9272,0.9514,1.0165,1.0783,1.1085,1.1704,1.222,1.2212,1.253,1.2864,1.3065,1.3149,1.336,1.3706,1.3787,1.3867,1.3946,1.3812,1.3908,1.4473,1.339,1.3254,1.4285,1.4,1.4211,1.4947,1.4657,1.451,1.4466,1.4719,1.4776,-0.951,-1.0318,0.0,0.0,-1.6056,-1.8145,-1.8801,-2.0034,-2.1103,-2.1417,-2.1388,-2.1278,-2.1247,-2.1183,-2.1183,-2.123,-2.1103,-2.1023,-2.0991,-2.0811,-2.0613,-2.0512,-2.0342,-2.0239,-2.017,-2.0015,-1.9945,-1.9945,-1.9732,-1.953,-1.9273,-1.8959,-1.8486,-1.7841,-1.7585,-1.7076,-1.6373,-1.584,-1.5163,-1.447,-1.348,-1.2657,-1.1917,-1.2512,-1.1908,-1.0324,-0.903,-0.7929,-0.6919,-0.6054,-0.5074,-0.4088,-0.3495,-0.2666,-0.1668,-0.0889,0.0111,0.1221,0.1889,0.3113,0.4453,0.4385,0.4769,0.5382,0.6154,0.6691,0.7165,0.7593,0.7978,0.8362,0.8784,0.8995,0.9138,0.9183,0.8771,0.8362,0.8415,0.8573,0.8851,0.935,0.9925,1.0508,1.1236,1.1675,1.2132,1.2674,1.3212,1.3635,1.3694,1.366,1.3816,1.4243,1.4279,1.4495,1.4993,1.5159,1.5277,1.5277,1.5164,1.5173,1.5433,1.4639,1.4526,1.5203,1.5473,1.5477,1.5218,1.5333,1.5218,1.4823,1.4971,1.4971,-0.9293,0.0,0.0,-1.3879,0.0,-1.8006,-1.8781,-1.9529,-2.0236,-2.0748,-2.0925,-2.0941,-2.0876,-2.0892,-2.0892,-2.0876,-2.0794,-2.0679,-2.0613,-2.0426,-2.022,-2.0065,-1.9889,-1.9732,-1.9696,-1.9479,-1.9317,-1.9317,-1.9006,-1.8741,-1.8486,-1.8133,-1.7612,-1.6912,-1.66,-1.6071,-1.5252,-1.4619,-1.3914,-1.308,-1.2055,-1.0806,-0.9416,-1.0132,-0.9621,-0.8081,-0.702,-0.6,-0.4961,-0.3978,-0.3044,-0.2106,-0.1332,-0.0389,0.0612,0.1277,0.2441,0.3782,0.3996,0.4827,0.5828,0.5977,0.6362,0.6804,0.7289,0.7818,0.829,0.8613,0.8981,0.9347,0.9673,0.9932,1.019,1.0387,0.9814,0.9295,0.9295,0.9354,0.9657,1.0309,1.0862,1.1492,1.2198,1.2734,1.3155,1.364,1.4061,1.4419,1.4556,1.4655,1.4879,1.5206,1.5377,1.5622,1.6036,1.6227,1.6358,1.6424,1.6202,1.6262,1.6545,1.6096,1.5964,1.6216,1.6243,1.6148,1.5917,1.5859,1.5531,1.5006,1.5062,1.5062,0.0,0.0,-1.0596,-1.3845,-1.573,0.0,-1.8527,-1.9019,-1.9341,-1.9909,-2.0364,-2.0577,-2.0494,-2.0543,-2.0577,-2.046,-2.0376,-2.0308,-2.015,-1.999,-1.9777,-1.9581,-1.9369,-1.9184,-1.9058,-1.8769,-1.8592,-1.8592,-1.8159,-1.7814,-1.7531,-1.716,-1.6557,-1.5784,-1.5431,-1.4801,-1.3924,-1.3301,-1.2512,-1.1513,-1.0191,-0.8534,-0.6651,-0.7063,-0.6839,-0.6108,-0.5023,-0.3981,-0.2934,-0.1941,-0.1,-0.0111,0.0778,0.1725,0.2617,0.3274,0.4611,0.6023,0.5878,0.6249,0.6848,0.7385,0.7771,0.809,0.8521,0.8935,0.9295,0.9562,0.9873,1.0226,1.0498,1.0812,1.1023,1.1175,1.0753,1.0277,1.0226,1.0332,1.0645,1.1218,1.19,1.251,1.2988,1.3551,1.4061,1.4309,1.4656,1.501,1.5196,1.5536,1.5874,1.6046,1.6322,1.6606,1.6864,1.7078,1.7179,1.7301,1.7114,1.7178,1.7567,1.7427,1.7308,1.7202,1.6877,1.6632,1.6623,1.6221,1.5705,1.5108,1.5108,1.5108,0.0,0.0,-1.1155,0.0,-1.4399,-1.5756,0.0,0.0,-1.8732,0.0,-1.9684,-2.0339,-2.0339,-2.0339,-2.0304,-2.0185,-2.0015,-1.9788,-1.9551,-1.9347,-1.9139,-1.8936,-1.8731,-1.8577,-1.8422,-1.8068,-1.7787,-1.7679,-1.7366,-1.6938,-1.6514,-1.6071,-1.5386,-1.4424,-1.4007,-1.3301,-1.2297,-1.1778,-1.0864,-0.9636,-0.7418,-0.5662,-0.4371,-0.3429,-0.3484,-0.4262,-0.3049,-0.1943,-0.1001,0.0056,0.1001,0.1889,0.2664,0.3498,0.4446,0.4992,0.581,0.6745,0.7111,0.7605,0.8203,0.8613,0.8928,0.9256,0.9503,0.9873,1.0241,1.0462,1.071,1.1015,1.1267,1.1368,1.1469,1.1578,1.1519,1.1368,1.1015,1.1266,1.1646,1.2134,1.3058,1.3809,1.3981,1.4323,1.4706,1.5001,1.5468,1.5806,1.6083,1.6332,1.657,1.6842,1.7011,1.719,1.7412,1.7634,1.7799,1.7799,1.7852,1.7961,1.803,1.7961,1.7981,1.7927,1.7924,1.7455,1.6623,1.6566,1.6038,1.5108,1.5108,1.5108,-0.6982,-0.873,-1.0513,0.0,-1.2816,-1.4342,-1.5148,0.0,-1.7006,-1.7421,-1.8156,-1.8977,-1.9793,-1.9995,-1.996,-1.9782,-1.966,-1.9479,-1.9109,-1.8784,-1.8489,-1.824,-1.7854,-1.7558,-1.7381,-1.698,-1.6655,-1.6459,-1.6058,-1.5608,-1.5106,-1.4607,-1.3939,-1.3042,-1.2551,-1.1868,-1.0897,-1.0163,-0.9148,-0.7877,-0.5512,-0.3704,-0.2382,-0.1165,-0.111,-0.1941,-0.0888,0.0111,0.1111,0.2055,0.2943,0.377,0.4542,0.5311,0.6136,0.6622,0.7272,0.7871,0.8396,0.8771,0.9152,0.9614,0.9873,1.0035,1.0395,1.0702,1.0964,1.1116,1.1326,1.1569,1.1778,1.1927,1.2076,1.2126,1.2401,1.2508,1.2304,1.2173,1.2378,1.322,1.4035,1.4616,1.4734,1.4951,1.5235,1.5642,1.6046,1.6389,1.6662,1.6955,1.7134,1.7301,1.7457,1.7634,1.7744,1.7909,1.8018,1.8018,1.8084,1.8084,1.8084,1.8205,1.8205,1.8084,1.8084,1.7592,1.6623,1.6623,1.6107,1.5108,1.5108,1.5108,0.0,0.0,-0.9071,-0.973,-1.1078,-1.2509,0.0,0.0,-1.5182,0.0,-1.6559,-1.7311,-1.8426,-1.9082,-1.9427,-1.9207,-1.9109,-1.8907,-1.8486,-1.8082,-1.772,-1.7325,-1.6896,-1.6514,-1.6232,-1.5808,-1.5466,-1.5163,-1.4664,-1.4193,-1.3611,-1.3042,-1.2357,-1.1571,-1.1015,-1.0257,-0.9297,-0.8128,-0.687,-0.5622,-0.3495,-0.1775,-0.0388,0.0777,0.1166,0.1052,0.1721,0.2443,0.3161,0.3993,0.4761,0.5584,0.6244,0.6945,0.7646,0.8137,0.8613,0.9093,0.9517,0.9769,1.0028,1.0498,1.0659,1.0761,1.1116,1.1377,1.1528,1.1628,1.1828,1.2076,1.2224,1.2382,1.2607,1.2712,1.3121,1.3452,1.3456,1.324,1.3348,1.4308,1.4878,1.5205,1.5323,1.5536,1.5874,1.6285,1.6627,1.6909,1.7179,1.7468,1.7634,1.7634,1.7854,1.7963,1.7963,1.8084,1.8139,1.8084,1.815,1.8205,1.8205,1.8356,1.8422,1.8302,1.8302,1.7809,1.6818,1.6692,1.6164,1.5315,1.5177,1.5177,0.0,-0.5935,0.0,-0.8365,-0.9197,0.0,0.0,0.0,-1.3697,-1.4375,-1.5092,-1.5634,-1.5808,-1.7332,-1.85,-1.8383,-1.8187,-1.7894,-1.7435,-1.7076,-1.6697,-1.6244,-1.5896,-1.5531,-1.5118,-1.4664,-1.4239,-1.3835,-1.3338,-1.2812,-1.2113,-1.1472,-1.0679,-0.9784,-0.9148,-0.8416,-0.7469,-0.5295,-0.3657,-0.2443,-0.0889,0.0445,0.1671,0.2722,0.3767,0.4809,0.5003,0.5003,0.5031,0.5914,0.6622,0.7208,0.78,0.8336,0.8922,0.9197,0.9658,1.0167,1.0285,1.0659,1.1074,1.1217,1.1326,1.1469,1.1628,1.1877,1.2076,1.2076,1.2274,1.248,1.2627,1.2676,1.2831,1.3328,1.3588,1.3928,1.4431,1.4494,1.4675,1.5235,1.5459,1.5652,1.5816,1.6228,1.6627,1.6899,1.7245,1.7523,1.7799,1.7843,1.7909,1.803,1.8084,1.8084,1.8084,1.8259,1.8313,1.8084,1.8259,1.8367,1.8367,1.8518,1.8614,1.8744,1.8744,1.8313,1.7335,1.6853,1.6359,1.5854,1.5349,1.5418,0.0,0.0,0.0,-0.6127,-0.7255,-0.8375,-0.9093,-1.0138,-1.1136,-1.1769,-1.2495,-1.3104,-1.3414,-1.5479,-1.7114,-1.6969,-1.6954,-1.6815,-1.6323,-1.5847,-1.533,-1.4767,-1.4264,-1.3846,-1.3365,-1.2888,-1.2347,-1.1899,-1.1364,-1.0764,-1.0046,-0.943,-0.877,-0.7947,-0.741,-0.6382,-0.4918,-0.3264,-0.1774,-0.0389,0.0944,0.25,0.4236,0.4816,0.5571,0.6553,0.7154,0.7101,0.6671,0.7368,0.7953,0.8593,0.902,0.9503,0.9925,1.0241,1.0549,1.0804,1.1015,1.1267,1.1528,1.1728,1.1977,1.2175,1.2274,1.251,1.2686,1.2686,1.2793,1.2987,1.3094,1.3296,1.3672,1.4613,1.505,1.5425,1.6005,1.5746,1.5568,1.6073,1.6228,1.6343,1.6549,1.6797,1.7078,1.7412,1.7634,1.7799,1.8018,1.803,1.803,1.8084,1.8205,1.8313,1.8313,1.8464,1.8518,1.841,1.8518,1.8572,1.8637,1.8881,1.9028,1.904,1.9158,1.8734,1.7772,1.7494,1.7105,1.6676,1.6562,1.6621,-0.3271,0.0,0.0,0.0,0.0,-0.6421,-0.6896,-0.7789,-0.8703,-0.9308,-0.9973,-1.0573,-1.0937,-1.273,-1.4359,-1.507,-1.5183,-1.5053,-1.4739,-1.4227,-1.3655,-1.3097,-1.2648,-1.2113,-1.1571,-1.1065,-1.0554,-1.0003,-0.9445,-0.8822,-0.8088,-0.7553,-0.6753,-0.5788,-0.5132,-0.4091,-0.2664,-0.1276,0.0056,0.1391,0.2664,0.4165,0.59,0.6352,0.7036,0.79,0.8698,0.8652,0.8184,0.8698,0.9228,0.9762,1.0072,1.0438,1.0812,1.1015,1.1226,1.1477,1.1669,1.1918,1.2116,1.2304,1.2559,1.2754,1.291,1.3035,1.3218,1.3304,1.3399,1.3505,1.3705,1.4079,1.4725,1.5611,1.619,1.6612,1.7158,1.6775,1.6389,1.674,1.6909,1.7022,1.7123,1.7412,1.7645,1.781,1.803,1.8182,1.8247,1.8247,1.8302,1.8302,1.8476,1.8583,1.8679,1.8774,1.8881,1.8881,1.8934,1.8987,1.9052,1.9291,1.9436,1.954,1.9617,1.9379,1.8792,1.8226,1.7772,1.7452,1.7471,1.7569,0.0,0.0,0.0,0.0,0.0,0.0,-0.5088,0.0,-0.6457,-0.7066,-0.7692,-0.8158,-0.8356,-0.9005,-1.0224,-1.2489,-1.2778,-1.2722,-1.2607,-1.2207,-1.1762,-1.1361,-1.0956,-1.046,-0.9776,-0.9297,-0.8763,-0.8246,-0.7723,-0.7084,-0.6333,-0.5734,-0.47,-0.3274,-0.2443,-0.1555,-0.0612,0.0723,0.1892,0.3005,0.4326,0.5479,0.6465,0.7374,0.8224,0.9079,0.9607,0.9718,0.9517,1.0012,1.0438,1.0769,1.1023,1.1276,1.1528,1.1519,1.1778,1.2126,1.2274,1.252,1.2852,1.2977,1.3112,1.3266,1.3409,1.3515,1.3705,1.3931,1.4025,1.4071,1.4373,1.5132,1.5895,1.6261,1.6813,1.7357,1.7799,1.7457,1.7067,1.719,1.7479,1.77,1.7523,1.803,1.8367,1.815,1.8398,1.8614,1.8614,1.8614,1.8679,1.8798,1.8851,1.8946,1.9186,1.9356,1.942,1.942,1.9565,1.9617,1.9604,1.9759,1.9965,2.0233,2.0233,2.0271,2.0422,1.8969,1.828,1.8268,1.7909,1.8203,-0.1345,0.0,0.0,0.0,0.0,0.0,0.0,0.0,-0.398,-0.4872,-0.5371,-0.5792,-0.6231,-0.6544,-0.6955,-0.7698,-0.9579,-1.0765,-1.0426,-0.9952,-0.9439,-0.9012,-0.8491,-0.8063,-0.7647,-0.718,-0.6645,-0.6166,-0.5575,-0.4922,-0.4204,-0.3101,-0.2052,-0.1111,-0.0333,0.05,0.1388,0.2556,0.3608,0.4652,0.591,0.694,0.78,0.8751,0.9488,1.0056,1.0736,1.1057,1.1057,1.1006,1.1116,1.1318,1.1678,1.1877,1.1977,1.2274,1.2471,1.2657,1.289,1.3132,1.342,1.3647,1.3884,1.4082,1.4176,1.4351,1.4536,1.4628,1.472,1.4823,1.5028,1.5759,1.655,1.6761,1.7549,1.8236,1.8398,1.829,1.8127,1.7909,1.803,1.8247,1.829,1.8452,1.8572,1.8583,1.8786,1.8934,1.9028,1.9093,1.9251,1.9356,1.946,1.9592,1.9734,1.9798,1.9862,1.9978,1.9901,1.9952,2.0169,2.0308,2.0459,2.061,2.061,2.066,2.0709,2.0016,1.9648,1.9636,1.9535,1.9611,0.0,0.0,0.0,0.0,0.0,0.0,-0.1342,-0.1612,-0.2051,-0.2741,-0.3142,-0.3543,-0.4004,-0.4173,-0.4303,-0.4442,-0.5943,-0.7288,-0.7899,-0.7635,-0.7201,-0.6843,-0.6481,-0.6066,-0.5655,-0.5468,-0.5073,-0.4149,-0.3608,-0.2888,-0.1886,-0.0778,0.0167,0.0889,0.2001,0.2834,0.3217,0.4213,0.5202,0.6126,0.7213,0.8125,0.8967,0.9814,1.0438,1.0889,1.151,1.1877,1.2026,1.1977,1.1927,1.1927,1.2224,1.2412,1.2501,1.2803,1.2997,1.319,1.3505,1.3789,1.4035,1.4305,1.4501,1.4697,1.4789,1.4926,1.5108,1.5198,1.5289,1.5345,1.539,1.5986,1.6641,1.7071,1.7757,1.846,1.878,1.8869,1.8774,1.8464,1.8518,1.8679,1.8774,1.8881,1.8934,1.8934,1.9146,1.9291,1.9436,1.9552,1.9708,1.9914,2.0016,2.0156,2.0295,2.0346,2.0409,2.0536,2.0472,2.0472,2.0623,2.0723,2.0822,2.0957,2.0957,2.1006,2.1055,2.056,2.0422,2.0472,2.0472,2.0472,0.0,0.0,0.0,0.0,0.0,0.0,0.011,-0.0186,-0.0513,-0.074,-0.1093,-0.145,-0.1767,-0.1972,-0.2149,-0.2301,-0.2332,-0.3099,-0.5227,-0.5279,-0.5009,-0.4771,-0.4601,-0.4278,-0.366,-0.3945,-0.362,-0.2249,-0.1712,-0.0831,0.0445,0.128,0.2058,0.2668,0.4236,0.5014,0.4929,0.5756,0.6622,0.7475,0.8349,0.9145,0.9925,1.0557,1.1124,1.1619,1.2026,1.2372,1.2618,1.2871,1.2822,1.2569,1.2725,1.29,1.3112,1.3256,1.3505,1.38,1.4176,1.4408,1.464,1.4915,1.5051,1.5198,1.5312,1.5357,1.5402,1.5671,1.5715,1.5703,1.5603,1.5948,1.6468,1.7243,1.7783,1.8259,1.9077,1.9239,1.9186,1.8946,1.8999,1.9093,1.9093,1.9251,1.9408,1.9291,1.95,1.9759,1.985,2.0003,2.0207,2.0472,2.0472,2.056,2.0858,2.0858,2.0908,2.1033,2.1033,2.1033,2.1033,2.1033,2.1082,2.1229,2.1229,2.1277,2.1423,2.0921,2.0759,2.0858,2.0858,2.0921,0.0,0.0,0.0,0.0,0.0,0.0,0.124,0.121,0.1107,0.0638,0.033,0.0106,-0.0113,-0.015,-0.0224,-0.0474,-0.0429,-0.0993,-0.2761,-0.2759,-0.2549,-0.2467,-0.215,-0.1894,-0.1819,-0.1623,-0.127,-0.0767,0.042,0.1459,0.2332,0.301,0.3677,0.4395,0.5109,0.5714,0.6199,0.7015,0.7765,0.8501,0.934,1.0079,1.071,1.1469,1.1977,1.2323,1.2793,1.3074,1.3228,1.3525,1.3334,1.2929,1.318,1.3409,1.3684,1.4035,1.4305,1.4525,1.4823,1.5017,1.521,1.548,1.557,1.5582,1.5659,1.5703,1.5748,1.5913,1.5957,1.5957,1.6057,1.6459,1.6995,1.758,1.8118,1.8655,1.9389,1.95,1.9565,1.9733,1.9617,1.946,1.946,1.9604,1.9759,1.9823,2.0067,2.0271,2.0409,2.0673,2.0885,2.1033,2.1033,2.1131,2.1264,2.1166,2.118,2.1326,2.1229,2.1229,2.1326,2.1326,2.1326,2.1375,2.1375,2.1375,2.1423,2.1264,2.1215,2.1131,2.1131,2.1082,0.2737,0.0,0.0,0.2783,0.2636,0.0,0.0,0.2274,0.2104,0.1816,0.167,0.1529,0.1349,0.1297,0.1297,0.1284,0.1298,0.1063,0.0342,-0.0402,-0.0839,-0.0729,-0.0517,-0.0354,-0.0188,0.0095,0.0577,0.14,0.2243,0.3034,0.363,0.4287,0.4977,0.5609,0.6253,0.6789,0.7331,0.809,0.8778,0.9496,1.0226,1.0905,1.1528,1.2067,1.2559,1.2949,1.3324,1.3658,1.3894,1.4104,1.4082,1.3956,1.3931,1.4071,1.4387,1.464,1.488,1.5051,1.53,1.5435,1.5537,1.5715,1.576,1.5748,1.5792,1.5836,1.5957,1.6132,1.6219,1.6219,1.6318,1.6759,1.7352,1.7959,1.8496,1.9083,1.9838,2.0016,2.0067,2.0271,2.0271,2.0156,2.0016,2.0105,2.0207,2.0271,2.0472,2.066,2.0772,2.0983,2.1131,2.1277,2.1277,2.1326,2.1375,2.1326,2.1326,2.1423,2.1326,2.1326,2.1423,2.1423,2.1423,2.1423,2.1423,2.1423,2.1423,2.1423,2.1375,2.1277,2.1277,2.1277,0.0,0.0,0.0,0.3885,0.3665,0.3417,0.0,0.0,0.0,0.2842,0.2867,0.2837,0.0,0.2574,0.2617,0.2724,0.2683,0.2708,0.2862,0.1634,0.0742,0.0849,0.0891,0.1,0.1337,0.1478,0.2064,0.3192,0.3668,0.4091,0.4601,0.5345,0.6034,0.6582,0.7315,0.7919,0.829,0.904,0.9718,1.0379,1.1006,1.1619,1.2224,1.2608,1.3035,1.3552,1.3858,1.4186,1.4512,1.4708,1.488,1.4994,1.4651,1.4731,1.504,1.5153,1.53,1.5447,1.5626,1.576,1.5748,1.5836,1.5881,1.5881,1.5925,1.6001,1.6163,1.6436,1.6522,1.6522,1.6595,1.7099,1.7702,1.8333,1.8917,1.9515,2.0293,2.0472,2.0523,2.0673,2.0809,2.0809,2.051,2.056,2.0673,2.0673,2.0809,2.0921,2.1033,2.118,2.1277,2.1375,2.1423,2.1423,2.1423,2.1423,2.1423,2.1423,2.1423,2.1423,2.1423,2.1423,2.1423,2.1423,2.1423,2.1423,2.1423,2.1423,2.1423,2.1423,2.1423,2.1423,0.0,0.0,0.4501,0.471,0.4467,0.4177,0.4177,0.0,0.3668,0.3661,0.0,0.3894,0.0,0.0,0.0,0.0,0.0,0.342,0.3263,0.3054,0.2866,0.2653,0.2671,0.2689,0.2606,0.2772,0.3075,0.3619,0.4239,0.4812,0.5335,0.6245,0.6939,0.7371,0.8072,0.8679,0.9054,0.9762,1.0379,1.1015,1.1669,1.2166,1.2559,1.318,1.3658,1.3978,1.4419,1.4697,1.4869,1.5232,1.5468,1.5501,1.5142,1.5198,1.5468,1.557,1.5659,1.5748,1.5792,1.5869,1.5957,1.5957,1.6044,1.62,1.6318,1.6392,1.6522,1.6791,1.6892,1.6964,1.7073,1.7574,1.8148,1.8721,1.9295,1.9904,2.0627,2.0759,2.0809,2.0934,2.1082,2.1068,2.0809,2.0871,2.0934,2.0934,2.1082,2.118,2.118,2.1277,2.1375,2.1423,2.1423,2.1423,2.1423,2.1423,2.1423,2.1423,2.1423,2.1423,2.1423,2.1423,2.1423,2.1423,2.1423,2.1423,2.1423,2.1423,2.1423,2.1423,2.1423,2.1423,0.0,0.5829,0.5831,0.605,0.5487,0.4899,0.494,0.4523,0.4234,0.4498,0.0,0.0,0.0,0.0,0.0,0.0,0.4131,0.0,0.4257,0.4179,0.3877,0.3219,0.313,0.3111,0.3048,0.3509,0.3834,0.3923,0.4533,0.5168,0.5831,0.6497,0.7197,0.7917,0.8666,0.9278,0.9762,1.049,1.1108,1.1678,1.2255,1.2735,1.318,1.3705,1.4176,1.4536,1.4823,1.5108,1.5424,1.5603,1.578,1.5957,1.5869,1.5869,1.5925,1.5981,1.6025,1.6025,1.6025,1.6144,1.6262,1.6306,1.6392,1.6522,1.6663,1.6723,1.685,1.7128,1.7212,1.7319,1.7774,1.8332,1.894,1.9509,2.0091,2.058,2.0966,2.1019,2.1068,2.1229,2.1277,2.1277,2.1166,2.1166,2.1229,2.1229,2.1277,2.1326,2.1326,2.1375,2.1423,2.1423,2.1423,2.1423,2.1423,2.1423,2.1423,2.1423,2.1423,2.1423,2.1423,2.1423,2.1423,2.1423,2.1423,2.1423,2.1423,2.1423,2.1423,2.1423,2.1423,2.1423,0.6983,0.6967,0.6975,0.7222,0.6377,0.5491,0.5558,0.5143,0.4849,0.5205,0.5395,0.0,0.0,0.0,0.0,0.0,0.0,0.4654,0.0,0.4797,0.0,0.0,0.0,0.3487,0.3447,0.3923,0.4202,0.4179,0.4735,0.5383,0.6137,0.6732,0.7483,0.8484,0.9193,0.9841,1.0474,1.1158,1.1819,1.2353,1.2774,1.3314,1.3847,1.4222,1.4593,1.496,1.5187,1.5513,1.5881,1.6001,1.6175,1.6405,1.6607,1.6607,1.6522,1.6392,1.6362,1.6374,1.6374,1.6491,1.6595,1.665,1.6765,1.685,1.7002,1.7073,1.7186,1.7432,1.7635,1.7902,1.8374,1.9057,1.9739,2.0154,2.0716,2.1131,2.1229,2.1229,2.1277,2.1375,2.1423,2.1423,2.1423,2.1423,2.1423,2.1423,2.1423,2.1423,2.1423,2.1423,2.1423,2.1423,2.1423,2.1423,2.1423,2.1423,2.1423,2.1423,2.1423,2.1423,2.1423,2.1423,2.1423,2.1423,2.1423,2.1423,2.1423,2.1423,2.1423,2.1423,2.1423,2.1423,0.7908,0.7821,0.778,0.795,0.6961,0.5981,0.5981,0.582,0.5672,0.5681,0.6293,0.6704,0.0,0.0,0.0,0.0,0.0,0.0,0.0,0.0,0.0,0.0,0.0,0.0,0.0,0.4022,0.4122,0.4364,0.4877,0.5551,0.6366,0.7208,0.8098,0.9043,0.97,1.0434,1.1267,1.1778,1.2353,1.2967,1.3362,1.3858,1.4384,1.4731,1.496,1.5108,1.557,1.5881,1.6044,1.6466,1.6765,1.6918,1.724,1.7352,1.731,1.6837,1.6778,1.6876,1.6876,1.6934,1.6993,1.7144,1.7199,1.7199,1.735,1.7419,1.7516,1.7638,1.822,1.8737,1.8764,1.9632,2.0468,2.0495,2.0941,2.1375,2.1375,2.1375,2.1375,2.1423,2.1423,2.1423,2.1423,2.1423,2.1423,2.1423,2.1423,2.1423,2.1423,2.1423,2.1423,2.1423,2.1423,2.1423,2.1423,2.1423,2.1423,2.1423,2.1423,2.1423,2.1423,2.1423,2.1423,2.1423,2.1423,2.1423,2.1423,2.1423,2.1423,2.1423,2.1423,2.1423,0.9333,0.9224,0.9087,0.8961,0.8149,0.7313,0.6989,0.6675,0.6502,0.6829,0.7072,0.7206,0.7082,0.0,0.0,0.0,0.0,0.0,0.0,0.0,0.0,0.0,0.0,0.0,0.0,0.4236,0.4355,0.4287,0.4871,0.5496,0.6054,0.697,0.7843,0.8621,0.9649,1.0514,1.1173,1.2027,1.2696,1.3266,1.3847,1.4326,1.4731,1.5017,1.53,1.557,1.5824,1.612,1.6466,1.6735,1.6947,1.7115,1.7352,1.7516,1.7557,1.7297,1.7269,1.7323,1.7323,1.731,1.7338,1.7393,1.7447,1.7556,1.7597,1.7679,1.7869,1.8315,1.8615,1.8983,1.9741,2.0183,2.059,2.0982,2.1274,2.1423,2.1423,2.1423,2.1423,2.1423,2.1423,2.1423,2.1423,2.1423,2.1423,2.1423,2.1423,2.1423,2.1423,2.1423,2.1423,2.1423,2.1423,2.1423,2.1423,2.1423,2.1423,2.1423,2.1423,2.1423,2.1423,2.1423,2.1423,2.1423,2.1423,2.1423,2.1423,2.1423,2.1423,2.1423,2.1423,2.1423,1.04,1.0322,1.0203,1.0027,0.9191,0.8325,0.8016,0.7589,0.7378,0.7663,0.7803,0.7882,0.7893,0.0,0.0,0.0,0.0,0.0,0.0,0.532,0.0,0.0,0.0,0.0,0.0,0.4403,0.4474,0.4386,0.4839,0.5418,0.0,0.6891,0.7735,0.8626,0.9796,1.0685,1.1396,1.2378,1.3122,1.3705,1.4269,1.4777,1.5142,1.539,1.5659,1.5969,1.6175,1.6466,1.6808,1.7031,1.7253,1.7461,1.7652,1.7801,1.7868,1.776,1.772,1.7733,1.7679,1.7679,1.7679,1.7652,1.7706,1.776,1.776,1.7842,1.8004,1.8643,1.8969,1.932,2.0238,2.0644,2.0901,2.1328,2.1423,2.1423,2.1423,2.1423,2.1423,2.1423,2.1423,2.1423,2.1423,2.1423,2.1423,2.1423,2.1423,2.1423,2.1423,2.1423,2.1423,2.1423,2.1423,2.1423,2.1423,2.1423,2.1423,2.1423,2.1423,2.1423,2.1423,2.1423,2.1423,2.1423,2.1423,2.1423,2.1423,2.1423,2.1423,2.1423,2.1423,2.1423]}]]